<?xml version='1.0' encoding='UTF-8'?><gpx version="1.1" creator="JPX - https://github.com/jenetics/jpx" xmlns="http://www.topografix.com/GPX/1/1"><trk><trkseg><trkpt lat="46.12359633467029" lon="13.526929658003672"><ele>168.0</ele><time>2026-04-18T13:59:35Z</time></trkpt><trkpt lat="46.123528002336094" lon="13.526941888949214"><ele>168.0</ele><time>2026-04-18T13:59:37Z</time></trkpt><trkpt lat="46.12344879203574" lon="13.526881824744303"><ele>168.0</ele><time>2026-04-18T13:59:39Z</time></trkpt><trkpt lat="46.12337094088699" lon="13.526863908882115"><ele>168.0</ele><time>2026-04-18T13:59:41Z</time></trkpt><trkpt lat="46.1232925989626" lon="13.52685536127185"><ele>168.0</ele><time>2026-04-18T13:59:43Z</time></trkpt><trkpt lat="46.123209027721764" lon="13.526865072856888"><ele>168.0</ele><time>2026-04-18T13:59:45Z</time></trkpt><trkpt lat="46.12312629028329" lon="13.526884360306758"><ele>168.16666666666666</ele><time>2026-04-18T13:59:47Z</time></trkpt><trkpt lat="46.12304921924618" lon="13.526960347395136"><ele>168.33333333333334</ele><time>2026-04-18T13:59:49Z</time></trkpt><trkpt lat="46.12296897455664" lon="13.52700682130998"><ele>168.5</ele><time>2026-04-18T13:59:51Z</time></trkpt><trkpt lat="46.12288867309044" lon="13.527074912948741"><ele>168.66666666666669</ele><time>2026-04-18T13:59:53Z</time></trkpt><trkpt lat="46.1228084413159" lon="13.52712394551459"><ele>168.83333333333334</ele><time>2026-04-18T13:59:55Z</time></trkpt><trkpt lat="46.12273310932764" lon="13.527185528796345"><ele>169.0</ele><time>2026-04-18T13:59:57Z</time></trkpt><trkpt lat="46.1226588311606" lon="13.527235721346385"><ele>169.33333333333334</ele><time>2026-04-18T13:59:59Z</time></trkpt><trkpt lat="46.12258874414999" lon="13.52732164138681"><ele>169.66666666666669</ele><time>2026-04-18T14:00:01Z</time></trkpt><trkpt lat="46.12252781363308" lon="13.527412692881494"><ele>170.0</ele><time>2026-04-18T14:00:03Z</time></trkpt><trkpt lat="46.12247313143549" lon="13.527500732973007"><ele>170.33333333333334</ele><time>2026-04-18T14:00:05Z</time></trkpt><trkpt lat="46.122389281599276" lon="13.527557660549718"><ele>170.66666666666666</ele><time>2026-04-18T14:00:06.999Z</time></trkpt><trkpt lat="46.12231028197391" lon="13.527616314010885"><ele>171.0</ele><time>2026-04-18T14:00:08.999Z</time></trkpt><trkpt lat="46.122238218439804" lon="13.527731818085746"><ele>171.0</ele><time>2026-04-18T14:00:10.999Z</time></trkpt><trkpt lat="46.12220897034573" lon="13.527831187621347"><ele>171.0</ele><time>2026-04-18T14:00:13.999Z</time></trkpt><trkpt lat="46.12212428811249" lon="13.527899003218058"><ele>171.0</ele><time>2026-04-18T14:00:16.999Z</time></trkpt><trkpt lat="46.12202712986491" lon="13.527906835294258"><ele>171.0</ele><time>2026-04-18T14:00:18.999Z</time></trkpt><trkpt lat="46.12195318984612" lon="13.52790581719993"><ele>171.0</ele><time>2026-04-18T14:00:20.999Z</time></trkpt><trkpt lat="46.12188218910615" lon="13.527964352189693"><ele>171.0</ele><time>2026-04-18T14:00:23.999Z</time></trkpt><trkpt lat="46.1218053337775" lon="13.52796540468663"><ele>170.8</ele><time>2026-04-18T14:00:26.999Z</time></trkpt><trkpt lat="46.12174869488268" lon="13.528062684861501"><ele>170.60000000000002</ele><time>2026-04-18T14:00:29.999Z</time></trkpt><trkpt lat="46.12172757869276" lon="13.528180980771936"><ele>170.4</ele><time>2026-04-18T14:00:31.999Z</time></trkpt><trkpt lat="46.121683044090155" lon="13.52827901348543"><ele>170.2</ele><time>2026-04-18T14:00:33.999Z</time></trkpt><trkpt lat="46.12165831280866" lon="13.528465139831418"><ele>170.0</ele><time>2026-04-18T14:00:35.999Z</time></trkpt><trkpt lat="46.12162924871889" lon="13.528591485607947"><ele>170.0</ele><time>2026-04-18T14:00:36.999Z</time></trkpt><trkpt lat="46.121629924796274" lon="13.52872462308945"><ele>170.0</ele><time>2026-04-18T14:00:37.999Z</time></trkpt><trkpt lat="46.121566063782595" lon="13.528876455143546"><ele>170.0</ele><time>2026-04-18T14:00:38.999Z</time></trkpt><trkpt lat="46.121559500289706" lon="13.52903813851635"><ele>170.0</ele><time>2026-04-18T14:00:39.999Z</time></trkpt><trkpt lat="46.121544455075366" lon="13.529210025769148"><ele>170.0</ele><time>2026-04-18T14:00:40.999Z</time></trkpt><trkpt lat="46.12152843411857" lon="13.529358561858086"><ele>168.6</ele><time>2026-04-18T14:00:41.999Z</time></trkpt><trkpt lat="46.12150195767087" lon="13.529513215316564"><ele>167.2</ele><time>2026-04-18T14:00:42.999Z</time></trkpt><trkpt lat="46.12149055511272" lon="13.52963792881289"><ele>165.8</ele><time>2026-04-18T14:00:43.999Z</time></trkpt><trkpt lat="46.12148034726196" lon="13.529774047996877"><ele>164.4</ele><time>2026-04-18T14:00:44.999Z</time></trkpt><trkpt lat="46.12146798324744" lon="13.529897673508318"><ele>163.0</ele><time>2026-04-18T14:00:45.999Z</time></trkpt><trkpt lat="46.121444008325675" lon="13.530034300557551"><ele>163.0</ele><time>2026-04-18T14:00:46.999Z</time></trkpt><trkpt lat="46.12142784230803" lon="13.530153291354944"><ele>163.0</ele><time>2026-04-18T14:00:47.999Z</time></trkpt><trkpt lat="46.12140385015773" lon="13.530277095203568"><ele>163.0</ele><time>2026-04-18T14:00:48.999Z</time></trkpt><trkpt lat="46.121388219608775" lon="13.530395769493861"><ele>163.0</ele><time>2026-04-18T14:00:49.998Z</time></trkpt><trkpt lat="46.12136527996175" lon="13.530523773839771"><ele>163.0</ele><time>2026-04-18T14:00:50.998Z</time></trkpt><trkpt lat="46.12132223720676" lon="13.530633758647905"><ele>163.0</ele><time>2026-04-18T14:00:51.998Z</time></trkpt><trkpt lat="46.121235002668875" lon="13.530691246683052"><ele>163.0</ele><time>2026-04-18T14:00:52.998Z</time></trkpt><trkpt lat="46.12114516093666" lon="13.530684359829202"><ele>163.0</ele><time>2026-04-18T14:00:53.998Z</time></trkpt><trkpt lat="46.121045156503264" lon="13.530674859357873"><ele>163.0</ele><time>2026-04-18T14:00:54.998Z</time></trkpt><trkpt lat="46.120950893466535" lon="13.530641924363547"><ele>163.0</ele><time>2026-04-18T14:00:55.998Z</time></trkpt><trkpt lat="46.12087005100898" lon="13.53065630922443"><ele>163.0</ele><time>2026-04-18T14:00:56.998Z</time></trkpt><trkpt lat="46.12078015317785" lon="13.53067570551499"><ele>163.0</ele><time>2026-04-18T14:00:57.998Z</time></trkpt><trkpt lat="46.12068877263604" lon="13.530692007040926"><ele>163.0</ele><time>2026-04-18T14:00:58.998Z</time></trkpt><trkpt lat="46.1206010568447" lon="13.530712272921505"><ele>163.0</ele><time>2026-04-18T14:00:59.998Z</time></trkpt><trkpt lat="46.120523909860125" lon="13.530748741832449"><ele>163.0</ele><time>2026-04-18T14:01:00.998Z</time></trkpt><trkpt lat="46.12043464851908" lon="13.530771725793489"><ele>163.0</ele><time>2026-04-18T14:01:01.998Z</time></trkpt><trkpt lat="46.120355620597145" lon="13.530808924875362"><ele>163.0</ele><time>2026-04-18T14:01:02.998Z</time></trkpt><trkpt lat="46.120267091971044" lon="13.530825641889129"><ele>163.0</ele><time>2026-04-18T14:01:03.998Z</time></trkpt><trkpt lat="46.12017923609678" lon="13.530841568845906"><ele>163.0</ele><time>2026-04-18T14:01:04.998Z</time></trkpt><trkpt lat="46.12009827623779" lon="13.530864097754334"><ele>163.0</ele><time>2026-04-18T14:01:05.998Z</time></trkpt><trkpt lat="46.12000247788498" lon="13.530896295681359"><ele>163.0</ele><time>2026-04-18T14:01:06.998Z</time></trkpt><trkpt lat="46.1199328009673" lon="13.530920816933198"><ele>163.0</ele><time>2026-04-18T14:01:07.998Z</time></trkpt><trkpt lat="46.119834820369505" lon="13.530943764943748"><ele>163.0</ele><time>2026-04-18T14:01:08.998Z</time></trkpt><trkpt lat="46.1197379322989" lon="13.530948334300115"><ele>163.8</ele><time>2026-04-18T14:01:09.998Z</time></trkpt><trkpt lat="46.119621960603446" lon="13.530942884219698"><ele>164.60000000000002</ele><time>2026-04-18T14:01:10.998Z</time></trkpt><trkpt lat="46.119508183345516" lon="13.530886117713848"><ele>165.39999999999998</ele><time>2026-04-18T14:01:11.998Z</time></trkpt><trkpt lat="46.119415637467995" lon="13.530878780142995"><ele>166.2</ele><time>2026-04-18T14:01:12.998Z</time></trkpt><trkpt lat="46.11933325597136" lon="13.530988546949658"><ele>167.0</ele><time>2026-04-18T14:01:14.998Z</time></trkpt><trkpt lat="46.119228816142794" lon="13.531063844227768"><ele>167.0</ele><time>2026-04-18T14:01:16.998Z</time></trkpt><trkpt lat="46.119133599398225" lon="13.531180372605801"><ele>167.0</ele><time>2026-04-18T14:01:18.998Z</time></trkpt><trkpt lat="46.11904012051893" lon="13.531279946628132"><ele>167.0</ele><time>2026-04-18T14:01:20.998Z</time></trkpt><trkpt lat="46.118976291079804" lon="13.531303339533657"><ele>167.0</ele><time>2026-04-18T14:01:21.998Z</time></trkpt><trkpt lat="46.11886002286832" lon="13.531333656755516"><ele>167.0</ele><time>2026-04-18T14:01:23.998Z</time></trkpt><trkpt lat="46.118749004133704" lon="13.531382715450915"><ele>167.6</ele><time>2026-04-18T14:01:25.998Z</time></trkpt><trkpt lat="46.11866259643728" lon="13.531459562763231"><ele>168.2</ele><time>2026-04-18T14:01:27.998Z</time></trkpt><trkpt lat="46.11860022698164" lon="13.531472264330654"><ele>168.8</ele><time>2026-04-18T14:01:28.998Z</time></trkpt><trkpt lat="46.1185076651536" lon="13.531457355438599"><ele>169.4</ele><time>2026-04-18T14:01:30.998Z</time></trkpt><trkpt lat="46.11840948347253" lon="13.53147356454328"><ele>170.0</ele><time>2026-04-18T14:01:32.998Z</time></trkpt><trkpt lat="46.11829844624999" lon="13.531522031834239"><ele>170.0</ele><time>2026-04-18T14:01:34.997Z</time></trkpt><trkpt lat="46.118185716400426" lon="13.53154708858765"><ele>170.0</ele><time>2026-04-18T14:01:36.997Z</time></trkpt><trkpt lat="46.11808563842249" lon="13.531588138918016"><ele>170.0</ele><time>2026-04-18T14:01:39Z</time></trkpt><trkpt lat="46.117957130979775" lon="13.531625269004946"><ele>170.0</ele><time>2026-04-18T14:01:41Z</time></trkpt><trkpt lat="46.117847128535864" lon="13.531686672635354"><ele>170.0</ele><time>2026-04-18T14:01:43Z</time></trkpt><trkpt lat="46.1177479314642" lon="13.531775270788714"><ele>170.0</ele><time>2026-04-18T14:01:45Z</time></trkpt><trkpt lat="46.11765840032995" lon="13.531855659674193"><ele>170.0</ele><time>2026-04-18T14:01:47Z</time></trkpt><trkpt lat="46.11760623021601" lon="13.531915887587452"><ele>170.0</ele><time>2026-04-18T14:01:48Z</time></trkpt><trkpt lat="46.11749532216764" lon="13.532024068786054"><ele>170.0</ele><time>2026-04-18T14:01:50Z</time></trkpt><trkpt lat="46.1174301731414" lon="13.532050660869603"><ele>171.0</ele><time>2026-04-18T14:01:51Z</time></trkpt><trkpt lat="46.117314105164304" lon="13.532094207354145"><ele>172.0</ele><time>2026-04-18T14:01:53Z</time></trkpt><trkpt lat="46.11725113727685" lon="13.532113900195966"><ele>173.0</ele><time>2026-04-18T14:01:54Z</time></trkpt><trkpt lat="46.11718290739608" lon="13.532089403786063"><ele>174.0</ele><time>2026-04-18T14:01:55Z</time></trkpt><trkpt lat="46.11707116759163" lon="13.53211602049215"><ele>175.0</ele><time>2026-04-18T14:01:57Z</time></trkpt><trkpt lat="46.1169781681229" lon="13.532106681871069"><ele>175.0</ele><time>2026-04-18T14:01:59Z</time></trkpt><trkpt lat="46.116907392497595" lon="13.532107704225147"><ele>175.0</ele><time>2026-04-18T14:02:01Z</time></trkpt><trkpt lat="46.11682642735153" lon="13.532111720051843"><ele>175.0</ele><time>2026-04-18T14:02:02Z</time></trkpt><trkpt lat="46.11673090689248" lon="13.532106173056338"><ele>175.0</ele><time>2026-04-18T14:02:05Z</time></trkpt><trkpt lat="46.11669309437034" lon="13.532194738655388"><ele>175.0</ele><time>2026-04-18T14:02:08Z</time></trkpt><trkpt lat="46.11657989607925" lon="13.532279356196659"><ele>175.0</ele><time>2026-04-18T14:02:11Z</time></trkpt><trkpt lat="46.11649116389883" lon="13.532327269931946"><ele>175.66666666666669</ele><time>2026-04-18T14:02:12.999Z</time></trkpt><trkpt lat="46.11641961073425" lon="13.532372219441077"><ele>176.33333333333334</ele><time>2026-04-18T14:02:14.999Z</time></trkpt><trkpt lat="46.116319258107985" lon="13.532451923622624"><ele>177.0</ele><time>2026-04-18T14:02:18.999Z</time></trkpt><trkpt lat="46.11628251120392" lon="13.532532849822697"><ele>177.66666666666666</ele><time>2026-04-18T14:02:20.999Z</time></trkpt><trkpt lat="46.11622041665044" lon="13.53264139957953"><ele>178.33333333333331</ele><time>2026-04-18T14:02:23.999Z</time></trkpt><trkpt lat="46.11617697671414" lon="13.532713931801489"><ele>179.0</ele><time>2026-04-18T14:02:25.999Z</time></trkpt><trkpt lat="46.116097785987854" lon="13.5327504803287"><ele>179.0</ele><time>2026-04-18T14:02:28.999Z</time></trkpt><trkpt lat="46.1160241341516" lon="13.532800632732618"><ele>179.0</ele><time>2026-04-18T14:02:31.999Z</time></trkpt><trkpt lat="46.11594331298413" lon="13.532835233954012"><ele>179.0</ele><time>2026-04-18T14:02:33.999Z</time></trkpt><trkpt lat="46.11586184813551" lon="13.53286642847099"><ele>179.0</ele><time>2026-04-18T14:02:35.999Z</time></trkpt><trkpt lat="46.115783064094956" lon="13.532905198035817"><ele>179.0</ele><time>2026-04-18T14:02:37.999Z</time></trkpt><trkpt lat="46.11572043433115" lon="13.53294964420655"><ele>179.0</ele><time>2026-04-18T14:02:39.999Z</time></trkpt><trkpt lat="46.11566680508523" lon="13.533004725188132"><ele>180.5</ele><time>2026-04-18T14:02:41.999Z</time></trkpt><trkpt lat="46.11559698703727" lon="13.533051491305725"><ele>182.0</ele><time>2026-04-18T14:02:43.999Z</time></trkpt><trkpt lat="46.11550845446066" lon="13.533109229458368"><ele>183.5</ele><time>2026-04-18T14:02:46.999Z</time></trkpt><trkpt lat="46.115442615590446" lon="13.533169025417193"><ele>185.0</ele><time>2026-04-18T14:02:48.999Z</time></trkpt><trkpt lat="46.11538320712287" lon="13.53321850470745"><ele>186.5</ele><time>2026-04-18T14:02:50.999Z</time></trkpt><trkpt lat="46.11532494063446" lon="13.533254071642823"><ele>188.0</ele><time>2026-04-18T14:02:52.999Z</time></trkpt><trkpt lat="46.11526098991664" lon="13.53330608773431"><ele>188.0</ele><time>2026-04-18T14:02:54.999Z</time></trkpt><trkpt lat="46.115190187890605" lon="13.533389911937341"><ele>188.0</ele><time>2026-04-18T14:02:57.999Z</time></trkpt><trkpt lat="46.114898039600675" lon="13.533571793389793"><ele>188.0</ele><time>2026-04-18T14:02:59.998Z</time></trkpt><trkpt lat="46.114817795553236" lon="13.53369847569022"><ele>190.2</ele><time>2026-04-18T14:03:01.998Z</time></trkpt><trkpt lat="46.11475890411139" lon="13.533822070461262"><ele>192.4</ele><time>2026-04-18T14:03:03.998Z</time></trkpt><trkpt lat="46.11469003243464" lon="13.533917853610363"><ele>194.6</ele><time>2026-04-18T14:03:05.998Z</time></trkpt><trkpt lat="46.114624891634755" lon="13.534020570526817"><ele>196.79999999999998</ele><time>2026-04-18T14:03:07.998Z</time></trkpt><trkpt lat="46.114553884090405" lon="13.534114598323713"><ele>199.0</ele><time>2026-04-18T14:03:09.998Z</time></trkpt><trkpt lat="46.11448911337599" lon="13.53419039110698"><ele>198.99999999999997</ele><time>2026-04-18T14:03:11.998Z</time></trkpt><trkpt lat="46.11440939622371" lon="13.534273736164876"><ele>199.0</ele><time>2026-04-18T14:03:13.998Z</time></trkpt><trkpt lat="46.11434427359269" lon="13.534341149369302"><ele>199.0</ele><time>2026-04-18T14:03:15.998Z</time></trkpt><trkpt lat="46.11427344336384" lon="13.53440021919734"><ele>199.0</ele><time>2026-04-18T14:03:17.998Z</time></trkpt><trkpt lat="46.114203936725175" lon="13.53445966928792"><ele>198.99999999999997</ele><time>2026-04-18T14:03:19.998Z</time></trkpt><trkpt lat="46.11413603552057" lon="13.534480822549536"><ele>199.0</ele><time>2026-04-18T14:03:28.998Z</time></trkpt><trkpt lat="46.11416321105402" lon="13.534568738286472"><ele>199.0</ele><time>2026-04-18T14:03:34.998Z</time></trkpt><trkpt lat="46.11411746620137" lon="13.53478885167179"><ele>199.0</ele><time>2026-04-18T14:04:10Z</time></trkpt><trkpt lat="46.1141629799799" lon="13.534704269494055"><ele>199.0</ele><time>2026-04-18T14:04:48.999Z</time></trkpt><trkpt lat="46.11415146497746" lon="13.534565486480593"><ele>199.0</ele><time>2026-04-18T14:05:02.999Z</time></trkpt><trkpt lat="46.11409342271144" lon="13.534525772850483"><ele>199.0</ele><time>2026-04-18T14:05:22.998Z</time></trkpt><trkpt lat="46.114021823696504" lon="13.534543238981236"><ele>199.99999999999997</ele><time>2026-04-18T14:05:30.998Z</time></trkpt><trkpt lat="46.11391500642135" lon="13.534664675198409"><ele>201.0</ele><time>2026-04-18T14:06:03Z</time></trkpt><trkpt lat="46.114004636581114" lon="13.534684082300656"><ele>202.0</ele><time>2026-04-18T14:06:35.999Z</time></trkpt><trkpt lat="46.11406421632233" lon="13.534737848772918"><ele>203.0</ele><time>2026-04-18T14:06:44.999Z</time></trkpt><trkpt lat="46.11412733258921" lon="13.534713127112314"><ele>203.99999999999997</ele><time>2026-04-18T14:06:54.999Z</time></trkpt><trkpt lat="46.114106743616574" lon="13.534624668631619"><ele>205.0</ele><time>2026-04-18T14:07:12.998Z</time></trkpt><trkpt lat="46.11404247777553" lon="13.534585258103565"><ele>205.2857142857143</ele><time>2026-04-18T14:07:21.998Z</time></trkpt><trkpt lat="46.11397983690775" lon="13.53461117716256"><ele>205.57142857142856</ele><time>2026-04-18T14:07:25.998Z</time></trkpt><trkpt lat="46.11391848210116" lon="13.53464432163796"><ele>205.85714285714286</ele><time>2026-04-18T14:07:28.998Z</time></trkpt><trkpt lat="46.11387179547712" lon="13.534731953313008"><ele>206.14285714285717</ele><time>2026-04-18T14:07:32.998Z</time></trkpt><trkpt lat="46.11385187276383" lon="13.534826251133188"><ele>206.42857142857144</ele><time>2026-04-18T14:07:36.998Z</time></trkpt><trkpt lat="46.11391224105089" lon="13.534870383362362"><ele>206.71428571428572</ele><time>2026-04-18T14:07:43.998Z</time></trkpt><trkpt lat="46.11396080784211" lon="13.534946294548813"><ele>207.0</ele><time>2026-04-18T14:07:51.998Z</time></trkpt><trkpt lat="46.11401834192547" lon="13.535012201299201"><ele>206.66666666666666</ele><time>2026-04-18T14:07:55.998Z</time></trkpt><trkpt lat="46.11408283294322" lon="13.535060733535582"><ele>206.33333333333331</ele><time>2026-04-18T14:08:00Z</time></trkpt><trkpt lat="46.11416397134518" lon="13.535101774725234"><ele>206.0</ele><time>2026-04-18T14:08:04Z</time></trkpt><trkpt lat="46.11424246110518" lon="13.535096585807576"><ele>205.66666666666666</ele><time>2026-04-18T14:08:08Z</time></trkpt><trkpt lat="46.11431240972104" lon="13.535073130512604"><ele>205.33333333333331</ele><time>2026-04-18T14:08:12Z</time></trkpt><trkpt lat="46.114395820357025" lon="13.535083935677356"><ele>205.0</ele><time>2026-04-18T14:08:17Z</time></trkpt><trkpt lat="46.114461864562095" lon="13.53509076034482"><ele>205.0</ele><time>2026-04-18T14:08:20Z</time></trkpt><trkpt lat="46.114529603240555" lon="13.535072878498848"><ele>205.0</ele><time>2026-04-18T14:08:23Z</time></trkpt><trkpt lat="46.11459925652521" lon="13.535069919713113"><ele>205.0</ele><time>2026-04-18T14:08:26Z</time></trkpt><trkpt lat="46.11468269116124" lon="13.535050190019385"><ele>205.0</ele><time>2026-04-18T14:08:30Z</time></trkpt><trkpt lat="46.114744901808926" lon="13.535028127754178"><ele>205.0</ele><time>2026-04-18T14:08:32.999Z</time></trkpt><trkpt lat="46.11480667595297" lon="13.535010319233466"><ele>205.0</ele><time>2026-04-18T14:08:35.999Z</time></trkpt><trkpt lat="46.11486881199466" lon="13.534985583726867"><ele>205.0</ele><time>2026-04-18T14:08:38.999Z</time></trkpt><trkpt lat="46.114931464401145" lon="13.534964757806717"><ele>205.57142857142858</ele><time>2026-04-18T14:08:41.999Z</time></trkpt><trkpt lat="46.11500565671924" lon="13.534944930760206"><ele>206.14285714285714</ele><time>2026-04-18T14:08:45.999Z</time></trkpt><trkpt lat="46.1150851359286" lon="13.534906418207312"><ele>206.71428571428572</ele><time>2026-04-18T14:08:49.999Z</time></trkpt><trkpt lat="46.11514983658295" lon="13.534898257903384"><ele>207.28571428571428</ele><time>2026-04-18T14:08:52.999Z</time></trkpt><trkpt lat="46.11522711714101" lon="13.534894694026308"><ele>207.85714285714283</ele><time>2026-04-18T14:08:56.999Z</time></trkpt><trkpt lat="46.115294708632945" lon="13.53495416671553"><ele>208.42857142857142</ele><time>2026-04-18T14:08:59.999Z</time></trkpt><trkpt lat="46.11534750384344" lon="13.535010998222255"><ele>209.0</ele><time>2026-04-18T14:09:02.999Z</time></trkpt><trkpt lat="46.11538668178295" lon="13.535091484484125"><ele>209.0</ele><time>2026-04-18T14:09:05.999Z</time></trkpt><trkpt lat="46.115424900881926" lon="13.53518633009116"><ele>209.0</ele><time>2026-04-18T14:09:09.999Z</time></trkpt><trkpt lat="46.115472974920124" lon="13.535271995879246"><ele>209.0</ele><time>2026-04-18T14:09:14.999Z</time></trkpt><trkpt lat="46.11552566947652" lon="13.535335243430614"><ele>209.0</ele><time>2026-04-18T14:09:18.998Z</time></trkpt><trkpt lat="46.1155899691415" lon="13.535383136502412"><ele>209.0</ele><time>2026-04-18T14:09:23.998Z</time></trkpt><trkpt lat="46.11566386288771" lon="13.535423763975032"><ele>209.0</ele><time>2026-04-18T14:09:27.998Z</time></trkpt><trkpt lat="46.11572671109772" lon="13.535459657865761"><ele>209.0</ele><time>2026-04-18T14:09:30.998Z</time></trkpt><trkpt lat="46.115802021500926" lon="13.535473581497213"><ele>213.14285714285714</ele><time>2026-04-18T14:09:34.998Z</time></trkpt><trkpt lat="46.11587347360621" lon="13.535466271723616"><ele>217.28571428571428</ele><time>2026-04-18T14:09:38.998Z</time></trkpt><trkpt lat="46.11593713499248" lon="13.535456195059407"><ele>221.42857142857144</ele><time>2026-04-18T14:09:42.998Z</time></trkpt><trkpt lat="46.116004111732934" lon="13.535480099907048"><ele>225.57142857142856</ele><time>2026-04-18T14:09:45.998Z</time></trkpt><trkpt lat="46.11608524798344" lon="13.535454259369542"><ele>229.71428571428572</ele><time>2026-04-18T14:09:49.998Z</time></trkpt><trkpt lat="46.11616745391018" lon="13.535442625425105"><ele>233.85714285714286</ele><time>2026-04-18T14:09:53.998Z</time></trkpt><trkpt lat="46.11623282619657" lon="13.535443771053494"><ele>238.0</ele><time>2026-04-18T14:09:56.998Z</time></trkpt><trkpt lat="46.11631064734784" lon="13.535398720126999"><ele>236.16666666666666</ele><time>2026-04-18T14:10:00.998Z</time></trkpt><trkpt lat="46.11638732785243" lon="13.535352709403824"><ele>234.33333333333331</ele><time>2026-04-18T14:10:04Z</time></trkpt><trkpt lat="46.11645570639049" lon="13.535299172698252"><ele>232.5</ele><time>2026-04-18T14:10:08Z</time></trkpt><trkpt lat="46.11653799625759" lon="13.53525541745322"><ele>230.66666666666669</ele><time>2026-04-18T14:10:12Z</time></trkpt><trkpt lat="46.11660557809629" lon="13.535251224502314"><ele>228.83333333333334</ele><time>2026-04-18T14:10:15Z</time></trkpt><trkpt lat="46.11667404650227" lon="13.535249336636978"><ele>227.0</ele><time>2026-04-18T14:10:18Z</time></trkpt><trkpt lat="46.11673998832994" lon="13.5352454602334"><ele>227.00000000000003</ele><time>2026-04-18T14:10:21Z</time></trkpt><trkpt lat="46.11680335440146" lon="13.53522370577932"><ele>227.0</ele><time>2026-04-18T14:10:24Z</time></trkpt><trkpt lat="46.11686336398894" lon="13.535182498578349"><ele>227.0</ele><time>2026-04-18T14:10:27Z</time></trkpt><trkpt lat="46.11694565752557" lon="13.535175750353915"><ele>227.0</ele><time>2026-04-18T14:10:30Z</time></trkpt><trkpt lat="46.1170243773067" lon="13.535186051360247"><ele>227.00000000000003</ele><time>2026-04-18T14:10:33Z</time></trkpt><trkpt lat="46.11709803565588" lon="13.535226129991766"><ele>227.0</ele><time>2026-04-18T14:10:36Z</time></trkpt><trkpt lat="46.11718489612865" lon="13.535229675653987"><ele>227.00000000000003</ele><time>2026-04-18T14:10:39Z</time></trkpt><trkpt lat="46.11727345420312" lon="13.535221450029335"><ele>227.0</ele><time>2026-04-18T14:10:41.999Z</time></trkpt><trkpt lat="46.117356108079704" lon="13.53522399386307"><ele>227.0</ele><time>2026-04-18T14:10:44.999Z</time></trkpt><trkpt lat="46.117435915828146" lon="13.535207729947322"><ele>227.0</ele><time>2026-04-18T14:10:47.999Z</time></trkpt><trkpt lat="46.11751858539406" lon="13.535231354145706"><ele>227.00000000000003</ele><time>2026-04-18T14:10:50.999Z</time></trkpt><trkpt lat="46.11756259121202" lon="13.53530140403006"><ele>227.0</ele><time>2026-04-18T14:10:53.999Z</time></trkpt><trkpt lat="46.117587578887395" lon="13.535395096539407"><ele>230.0</ele><time>2026-04-18T14:10:57.999Z</time></trkpt><trkpt lat="46.11759551839268" lon="13.535506436827568"><ele>233.00000000000003</ele><time>2026-04-18T14:11:03.999Z</time></trkpt><trkpt lat="46.117625058926514" lon="13.535594638085257"><ele>236.0</ele><time>2026-04-18T14:11:08.999Z</time></trkpt><trkpt lat="46.117654193232475" lon="13.535682117778633"><ele>239.0</ele><time>2026-04-18T14:11:11.999Z</time></trkpt><trkpt lat="46.11767408973641" lon="13.535790363341746"><ele>242.00000000000003</ele><time>2026-04-18T14:11:17.999Z</time></trkpt><trkpt lat="46.11770007216862" lon="13.53588321977698"><ele>245.0</ele><time>2026-04-18T14:11:21.999Z</time></trkpt><trkpt lat="46.117715941376204" lon="13.535992317671173"><ele>248.0</ele><time>2026-04-18T14:11:25.999Z</time></trkpt><trkpt lat="46.11771950140644" lon="13.536099632562928"><ele>248.0</ele><time>2026-04-18T14:11:28.998Z</time></trkpt><trkpt lat="46.11772482177161" lon="13.536193596018109"><ele>248.00000000000003</ele><time>2026-04-18T14:11:31.998Z</time></trkpt><trkpt lat="46.11773255959522" lon="13.536298694406293"><ele>248.0</ele><time>2026-04-18T14:11:34.998Z</time></trkpt><trkpt lat="46.11773219505309" lon="13.536422285377874"><ele>248.0</ele><time>2026-04-18T14:11:39.998Z</time></trkpt><trkpt lat="46.11773704539539" lon="13.536522194654122"><ele>248.00000000000003</ele><time>2026-04-18T14:11:42.998Z</time></trkpt><trkpt lat="46.117758347669444" lon="13.536609863116654"><ele>248.0</ele><time>2026-04-18T14:11:45.998Z</time></trkpt><trkpt lat="46.11777109109588" lon="13.536718186527665"><ele>248.0</ele><time>2026-04-18T14:11:48.998Z</time></trkpt><trkpt lat="46.1177050978497" lon="13.53667725929498"><ele>249.83333333333334</ele><time>2026-04-18T14:11:58.998Z</time></trkpt><trkpt lat="46.11765139620271" lon="13.536609356262675"><ele>251.66666666666669</ele><time>2026-04-18T14:12:03.998Z</time></trkpt><trkpt lat="46.11757882771512" lon="13.53660025251842"><ele>253.5</ele><time>2026-04-18T14:12:10Z</time></trkpt><trkpt lat="46.11751790701732" lon="13.536548946024208"><ele>255.33333333333331</ele><time>2026-04-18T14:12:15Z</time></trkpt><trkpt lat="46.11743393432695" lon="13.536537080800501"><ele>257.16666666666663</ele><time>2026-04-18T14:12:19Z</time></trkpt><trkpt lat="46.11734608782403" lon="13.536545243054341"><ele>259.0</ele><time>2026-04-18T14:12:23Z</time></trkpt><trkpt lat="46.1172795034542" lon="13.536557292064256"><ele>259.57142857142856</ele><time>2026-04-18T14:12:26Z</time></trkpt><trkpt lat="46.11720092448667" lon="13.536568142100865"><ele>260.1428571428571</ele><time>2026-04-18T14:12:29Z</time></trkpt><trkpt lat="46.11712559020235" lon="13.536583730128697"><ele>260.7142857142857</ele><time>2026-04-18T14:12:32Z</time></trkpt><trkpt lat="46.117055894805695" lon="13.536618882103236"><ele>261.2857142857143</ele><time>2026-04-18T14:12:35Z</time></trkpt><trkpt lat="46.11697653386244" lon="13.53665761160672"><ele>261.85714285714283</ele><time>2026-04-18T14:12:38Z</time></trkpt><trkpt lat="46.116914644139825" lon="13.536682874966923"><ele>262.42857142857144</ele><time>2026-04-18T14:12:40Z</time></trkpt><trkpt lat="46.116853240499424" lon="13.536735795873934"><ele>263.0</ele><time>2026-04-18T14:12:44Z</time></trkpt><trkpt lat="46.11679125917859" lon="13.536778465093123"><ele>263.0</ele><time>2026-04-18T14:12:47.999Z</time></trkpt><trkpt lat="46.11673532125541" lon="13.536825309462037"><ele>263.0</ele><time>2026-04-18T14:12:51.999Z</time></trkpt><trkpt lat="46.116688827378354" lon="13.536912891657579"><ele>263.0</ele><time>2026-04-18T14:12:55.999Z</time></trkpt><trkpt lat="46.11672071832318" lon="13.537008254666409"><ele>263.0</ele><time>2026-04-18T14:13:02.999Z</time></trkpt><trkpt lat="46.11675451168223" lon="13.537107768294831"><ele>263.0</ele><time>2026-04-18T14:13:07.999Z</time></trkpt><trkpt lat="46.116720042033286" lon="13.537195852859952"><ele>263.0</ele><time>2026-04-18T14:13:11.999Z</time></trkpt><trkpt lat="46.11669999152771" lon="13.53730181624551"><ele>263.0</ele><time>2026-04-18T14:13:15.999Z</time></trkpt><trkpt lat="46.1167081010906" lon="13.537409758207259"><ele>265.57142857142856</ele><time>2026-04-18T14:13:19.999Z</time></trkpt><trkpt lat="46.11671905157211" lon="13.537502141921289"><ele>268.1428571428571</ele><time>2026-04-18T14:13:23.999Z</time></trkpt><trkpt lat="46.1166986849339" lon="13.53759702389054"><ele>270.7142857142857</ele><time>2026-04-18T14:13:27.999Z</time></trkpt><trkpt lat="46.11667159473644" lon="13.5376989202627"><ele>273.2857142857143</ele><time>2026-04-18T14:13:31.998Z</time></trkpt><trkpt lat="46.1166483572827" lon="13.537787869752496"><ele>275.8571428571429</ele><time>2026-04-18T14:13:42.998Z</time></trkpt><trkpt lat="46.116577750879244" lon="13.53782422854494"><ele>278.42857142857144</ele><time>2026-04-18T14:14:01.998Z</time></trkpt><trkpt lat="46.116516009968706" lon="13.537794351718482"><ele>281.0</ele><time>2026-04-18T14:14:07.998Z</time></trkpt><trkpt lat="46.11646141195592" lon="13.537745304488322"><ele>283.42857142857144</ele><time>2026-04-18T14:14:12.997Z</time></trkpt><trkpt lat="46.11642086419381" lon="13.537666004034174"><ele>285.8571428571429</ele><time>2026-04-18T14:14:19Z</time></trkpt><trkpt lat="46.116362907106826" lon="13.537610294479506"><ele>288.2857142857143</ele><time>2026-04-18T14:14:24Z</time></trkpt><trkpt lat="46.1163011733512" lon="13.537557912311753"><ele>290.7142857142857</ele><time>2026-04-18T14:14:28Z</time></trkpt><trkpt lat="46.11622476158308" lon="13.537515978043203"><ele>293.1428571428571</ele><time>2026-04-18T14:14:32Z</time></trkpt><trkpt lat="46.11615512323756" lon="13.53752465789014"><ele>295.57142857142856</ele><time>2026-04-18T14:14:36Z</time></trkpt><trkpt lat="46.116157599604605" lon="13.537617982390476"><ele>298.0</ele><time>2026-04-18T14:14:45Z</time></trkpt><trkpt lat="46.11617814232479" lon="13.537708945657696"><ele>298.0</ele><time>2026-04-18T14:14:49.999Z</time></trkpt><trkpt lat="46.11617362619571" lon="13.53782263754829"><ele>298.0</ele><time>2026-04-18T14:14:54.999Z</time></trkpt><trkpt lat="46.11616238074469" lon="13.537926477148096"><ele>298.0</ele><time>2026-04-18T14:14:58.999Z</time></trkpt><trkpt lat="46.11615549785752" lon="13.538019351246087"><ele>298.0</ele><time>2026-04-18T14:15:01.999Z</time></trkpt><trkpt lat="46.116174662100825" lon="13.538107569149034"><ele>298.0</ele><time>2026-04-18T14:15:04.999Z</time></trkpt><trkpt lat="46.116180343678984" lon="13.53822825194458"><ele>298.0</ele><time>2026-04-18T14:15:08.999Z</time></trkpt><trkpt lat="46.116198711025056" lon="13.53832274253326"><ele>298.0</ele><time>2026-04-18T14:15:12.999Z</time></trkpt><trkpt lat="46.11622346768435" lon="13.538427217118677"><ele>300.7142857142857</ele><time>2026-04-18T14:15:16.999Z</time></trkpt><trkpt lat="46.1161975698917" lon="13.538533882173855"><ele>303.4285714285714</ele><time>2026-04-18T14:15:21.999Z</time></trkpt><trkpt lat="46.1161910020798" lon="13.538436537642795"><ele>306.1428571428571</ele><time>2026-04-18T14:15:26.999Z</time></trkpt><trkpt lat="46.11617076526506" lon="13.53833857379567"><ele>308.85714285714283</ele><time>2026-04-18T14:15:33.999Z</time></trkpt><trkpt lat="46.116105802159346" lon="13.53830017025181"><ele>311.57142857142856</ele><time>2026-04-18T14:15:40.998Z</time></trkpt><trkpt lat="46.116044194570534" lon="13.538255473332928"><ele>314.2857142857143</ele><time>2026-04-18T14:15:47.998Z</time></trkpt><trkpt lat="46.11597429629815" lon="13.538213573573536"><ele>317.0</ele><time>2026-04-18T14:15:53.998Z</time></trkpt><trkpt lat="46.115912656632915" lon="13.538163518969446"><ele>317.0</ele><time>2026-04-18T14:15:58.998Z</time></trkpt><trkpt lat="46.1158527614129" lon="13.538130500443595"><ele>317.0</ele><time>2026-04-18T14:16:03.998Z</time></trkpt><trkpt lat="46.11579213564433" lon="13.538095735469415"><ele>317.0</ele><time>2026-04-18T14:16:08.998Z</time></trkpt><trkpt lat="46.11570762287506" lon="13.538063524342753"><ele>317.0</ele><time>2026-04-18T14:16:14.998Z</time></trkpt><trkpt lat="46.115639809442044" lon="13.538045616352017"><ele>317.0</ele><time>2026-04-18T14:16:18.997Z</time></trkpt><trkpt lat="46.115561806579535" lon="13.5380156725906"><ele>317.0</ele><time>2026-04-18T14:16:24Z</time></trkpt><trkpt lat="46.115487710340695" lon="13.538016104087896"><ele>317.0</ele><time>2026-04-18T14:16:29Z</time></trkpt><trkpt lat="46.11541374668464" lon="13.538018523183274"><ele>319.14285714285717</ele><time>2026-04-18T14:16:33Z</time></trkpt><trkpt lat="46.11533733382079" lon="13.538019096461715"><ele>321.2857142857143</ele><time>2026-04-18T14:16:37Z</time></trkpt><trkpt lat="46.11526846348728" lon="13.53802673322498"><ele>323.42857142857144</ele><time>2026-04-18T14:16:40Z</time></trkpt><trkpt lat="46.11520422223103" lon="13.538014343342141"><ele>325.57142857142856</ele><time>2026-04-18T14:16:44Z</time></trkpt><trkpt lat="46.11512605030972" lon="13.53801917236326"><ele>327.7142857142857</ele><time>2026-04-18T14:16:49Z</time></trkpt><trkpt lat="46.11505535181656" lon="13.538030439451708"><ele>329.85714285714283</ele><time>2026-04-18T14:16:54Z</time></trkpt><trkpt lat="46.114974556801705" lon="13.538020111163267"><ele>332.0</ele><time>2026-04-18T14:16:58.999Z</time></trkpt><trkpt lat="46.11490484364478" lon="13.538002976200165"><ele>329.4285714285714</ele><time>2026-04-18T14:17:02.999Z</time></trkpt><trkpt lat="46.11483903056431" lon="13.537998418812464"><ele>326.8571428571429</ele><time>2026-04-18T14:17:06.999Z</time></trkpt><trkpt lat="46.11477457879035" lon="13.53803066339814"><ele>324.2857142857143</ele><time>2026-04-18T14:17:17.999Z</time></trkpt><trkpt lat="46.11467015654395" lon="13.538080988473297"><ele>321.71428571428567</ele><time>2026-04-18T14:17:33.999Z</time></trkpt><trkpt lat="46.11460094714946" lon="13.538080460031981"><ele>319.1428571428571</ele><time>2026-04-18T14:19:23.999Z</time></trkpt><trkpt lat="46.11453429538098" lon="13.538102836053913"><ele>316.57142857142856</ele><time>2026-04-18T14:19:31.999Z</time></trkpt><trkpt lat="46.11448685315704" lon="13.538170976252028"><ele>314.0</ele><time>2026-04-18T14:19:36.999Z</time></trkpt><trkpt lat="46.11443155921464" lon="13.538260418464022"><ele>313.99999999999994</ele><time>2026-04-18T14:19:42.999Z</time></trkpt><trkpt lat="46.11439000744773" lon="13.53834625961205"><ele>314.0</ele><time>2026-04-18T14:19:47.998Z</time></trkpt><trkpt lat="46.11436108365285" lon="13.538436177349059"><ele>314.0</ele><time>2026-04-18T14:19:52.998Z</time></trkpt><trkpt lat="46.11432992226074" lon="13.53851947300605"><ele>314.0</ele><time>2026-04-18T14:19:56.998Z</time></trkpt><trkpt lat="46.114316839234476" lon="13.538618940512844"><ele>314.0</ele><time>2026-04-18T14:20:00.998Z</time></trkpt><trkpt lat="46.11431214306361" lon="13.538713676731373"><ele>313.99999999999994</ele><time>2026-04-18T14:20:05.998Z</time></trkpt><trkpt lat="46.11430522249701" lon="13.538814335824059"><ele>314.0</ele><time>2026-04-18T14:20:10.998Z</time></trkpt><trkpt lat="46.11429211083182" lon="13.53891376248488"><ele>315.99999999999994</ele><time>2026-04-18T14:20:16.998Z</time></trkpt><trkpt lat="46.11428726050854" lon="13.53902761439929"><ele>318.0</ele><time>2026-04-18T14:20:22.998Z</time></trkpt><trkpt lat="46.114268479632955" lon="13.539137066784747"><ele>320.0</ele><time>2026-04-18T14:20:28.998Z</time></trkpt><trkpt lat="46.114257709195215" lon="13.539237688848768"><ele>322.0</ele><time>2026-04-18T14:20:34Z</time></trkpt><trkpt lat="46.11425906720443" lon="13.539343691470577"><ele>324.0</ele><time>2026-04-18T14:20:39Z</time></trkpt><trkpt lat="46.114265417801434" lon="13.539439398259153"><ele>325.99999999999994</ele><time>2026-04-18T14:20:43Z</time></trkpt><trkpt lat="46.11426058389883" lon="13.539539517803172"><ele>328.0</ele><time>2026-04-18T14:20:48Z</time></trkpt><trkpt lat="46.11426050936461" lon="13.539631092179764"><ele>329.85714285714283</ele><time>2026-04-18T14:20:53Z</time></trkpt><trkpt lat="46.11427044520172" lon="13.539730277331278"><ele>331.7142857142857</ele><time>2026-04-18T14:20:58Z</time></trkpt><trkpt lat="46.11428195313142" lon="13.539822265433575"><ele>333.57142857142856</ele><time>2026-04-18T14:21:02Z</time></trkpt><trkpt lat="46.11428492922701" lon="13.539915411610279"><ele>335.42857142857144</ele><time>2026-04-18T14:21:06Z</time></trkpt><trkpt lat="46.11426408263268" lon="13.540017754087634"><ele>337.2857142857143</ele><time>2026-04-18T14:21:10.999Z</time></trkpt><trkpt lat="46.11425390813075" lon="13.54011594913583"><ele>339.1428571428571</ele><time>2026-04-18T14:21:14.999Z</time></trkpt><trkpt lat="46.1142461695876" lon="13.540229609014435"><ele>341.0</ele><time>2026-04-18T14:21:18.999Z</time></trkpt><trkpt lat="46.11424763328727" lon="13.540334713544949"><ele>342.6666666666667</ele><time>2026-04-18T14:21:22.999Z</time></trkpt><trkpt lat="46.11427075286768" lon="13.540423463592631"><ele>344.33333333333337</ele><time>2026-04-18T14:21:25.999Z</time></trkpt><trkpt lat="46.1143138901415" lon="13.540501356612678"><ele>346.0</ele><time>2026-04-18T14:21:29.999Z</time></trkpt><trkpt lat="46.114376571581786" lon="13.54053378372349"><ele>347.6666666666667</ele><time>2026-04-18T14:21:37.999Z</time></trkpt><trkpt lat="46.11440389059114" lon="13.540624621916336"><ele>349.3333333333333</ele><time>2026-04-18T14:21:46.999Z</time></trkpt><trkpt lat="46.1144699144567" lon="13.540741461858898"><ele>351.0</ele><time>2026-04-18T14:22:10.998Z</time></trkpt><trkpt lat="46.11453373196163" lon="13.54067858691708"><ele>351.0</ele><time>2026-04-18T14:22:19.998Z</time></trkpt><trkpt lat="46.11458384475499" lon="13.540593740335042"><ele>351.0</ele><time>2026-04-18T14:22:23.998Z</time></trkpt><trkpt lat="46.11463717519447" lon="13.540468717233857"><ele>351.0</ele><time>2026-04-18T14:22:26.998Z</time></trkpt><trkpt lat="46.11469329073391" lon="13.540368234142244"><ele>351.0</ele><time>2026-04-18T14:22:29.998Z</time></trkpt><trkpt lat="46.11473463221504" lon="13.540298962126954"><ele>351.0</ele><time>2026-04-18T14:22:31.998Z</time></trkpt><trkpt lat="46.11478630229928" lon="13.540227581157971"><ele>351.0</ele><time>2026-04-18T14:22:34.998Z</time></trkpt><trkpt lat="46.11484586278174" lon="13.540172080615054"><ele>352.3333333333333</ele><time>2026-04-18T14:22:37.997Z</time></trkpt><trkpt lat="46.114903597614536" lon="13.540133133300886"><ele>353.6666666666667</ele><time>2026-04-18T14:22:41Z</time></trkpt><trkpt lat="46.11498432617279" lon="13.540171720640444"><ele>355.0</ele><time>2026-04-18T14:22:44Z</time></trkpt><trkpt lat="46.11503110770252" lon="13.540252474678026"><ele>356.33333333333337</ele><time>2026-04-18T14:22:47Z</time></trkpt><trkpt lat="46.115035256712964" lon="13.540374260707619"><ele>357.6666666666667</ele><time>2026-04-18T14:22:51Z</time></trkpt><trkpt lat="46.11499834986523" lon="13.54047498332302"><ele>359.0</ele><time>2026-04-18T14:22:55Z</time></trkpt><trkpt lat="46.11496844452141" lon="13.540572962406724"><ele>357.8571428571429</ele><time>2026-04-18T14:22:59Z</time></trkpt><trkpt lat="46.11493329632175" lon="13.540668812574193"><ele>356.7142857142857</ele><time>2026-04-18T14:23:03Z</time></trkpt><trkpt lat="46.11490506424123" lon="13.540761686433719"><ele>355.57142857142856</ele><time>2026-04-18T14:24:56Z</time></trkpt><trkpt lat="46.11491017772486" lon="13.540873660286662"><ele>354.42857142857144</ele><time>2026-04-18T14:25:00Z</time></trkpt><trkpt lat="46.114909586293855" lon="13.540967473731074"><ele>353.2857142857143</ele><time>2026-04-18T14:25:03Z</time></trkpt><trkpt lat="46.11489793214684" lon="13.54106074937085"><ele>352.14285714285717</ele><time>2026-04-18T14:25:05.999Z</time></trkpt><trkpt lat="46.11489579189351" lon="13.541161421967777"><ele>351.0</ele><time>2026-04-18T14:25:08.999Z</time></trkpt><trkpt lat="46.11490751306901" lon="13.541268467441093"><ele>354.42857142857144</ele><time>2026-04-18T14:25:12.999Z</time></trkpt><trkpt lat="46.11492564583086" lon="13.541382533607868"><ele>357.8571428571429</ele><time>2026-04-18T14:25:16.999Z</time></trkpt><trkpt lat="46.11494318721232" lon="13.541496861899233"><ele>361.28571428571433</ele><time>2026-04-18T14:25:20.999Z</time></trkpt><trkpt lat="46.114951395287974" lon="13.54159441781011"><ele>364.7142857142857</ele><time>2026-04-18T14:25:23.999Z</time></trkpt><trkpt lat="46.11496240825598" lon="13.541691771977662"><ele>368.1428571428571</ele><time>2026-04-18T14:25:26.999Z</time></trkpt><trkpt lat="46.11496389460375" lon="13.541794699847344"><ele>371.5714285714286</ele><time>2026-04-18T14:25:29.999Z</time></trkpt><trkpt lat="46.11494231304115" lon="13.541904818111172"><ele>375.0</ele><time>2026-04-18T14:25:32.999Z</time></trkpt><trkpt lat="46.114911129108755" lon="13.542012996865358"><ele>375.0</ele><time>2026-04-18T14:25:35.999Z</time></trkpt><trkpt lat="46.114865663346265" lon="13.542122819283378"><ele>375.0</ele><time>2026-04-18T14:25:38.999Z</time></trkpt><trkpt lat="46.114820805864895" lon="13.542222104317611"><ele>375.0</ele><time>2026-04-18T14:25:40.999Z</time></trkpt><trkpt lat="46.114794166076415" lon="13.542338029058609"><ele>375.0</ele><time>2026-04-18T14:25:44.999Z</time></trkpt><trkpt lat="46.11473715999925" lon="13.542434729601172"><ele>375.0</ele><time>2026-04-18T14:25:47.999Z</time></trkpt><trkpt lat="46.11470464107757" lon="13.542513278380344"><ele>375.0</ele><time>2026-04-18T14:25:49.999Z</time></trkpt><trkpt lat="46.114674415761705" lon="13.542604803304636"><ele>375.0</ele><time>2026-04-18T14:25:51.999Z</time></trkpt><trkpt lat="46.11463693146737" lon="13.542682518412832"><ele>375.0</ele><time>2026-04-18T14:25:53.999Z</time></trkpt><trkpt lat="46.114605196516116" lon="13.542767654489268"><ele>375.0</ele><time>2026-04-18T14:25:55.998Z</time></trkpt><trkpt lat="46.11455998357212" lon="13.542852159577953"><ele>375.0</ele><time>2026-04-18T14:25:57.998Z</time></trkpt><trkpt lat="46.11450753791746" lon="13.542937436646895"><ele>375.0</ele><time>2026-04-18T14:25:59.998Z</time></trkpt><trkpt lat="46.11446241714444" lon="13.543024333049381"><ele>375.0</ele><time>2026-04-18T14:26:01.998Z</time></trkpt><trkpt lat="46.114417436139476" lon="13.54310702367321"><ele>375.0</ele><time>2026-04-18T14:26:03.998Z</time></trkpt><trkpt lat="46.114372452406464" lon="13.543186785730377"><ele>375.1666666666667</ele><time>2026-04-18T14:26:05.998Z</time></trkpt><trkpt lat="46.11431215078463" lon="13.543295751262553"><ele>375.3333333333333</ele><time>2026-04-18T14:26:07.998Z</time></trkpt><trkpt lat="46.11424199312673" lon="13.543378168698753"><ele>375.5</ele><time>2026-04-18T14:26:09.998Z</time></trkpt><trkpt lat="46.11418570771192" lon="13.543463026102117"><ele>375.66666666666663</ele><time>2026-04-18T14:26:11.998Z</time></trkpt><trkpt lat="46.114130127317075" lon="13.543542962573431"><ele>375.8333333333333</ele><time>2026-04-18T14:26:13.998Z</time></trkpt><trkpt lat="46.11408299736101" lon="13.543626743880962"><ele>376.0</ele><time>2026-04-18T14:26:15.998Z</time></trkpt><trkpt lat="46.11403759025782" lon="13.543705590563556"><ele>377.5</ele><time>2026-04-18T14:26:17.998Z</time></trkpt><trkpt lat="46.1139979307283" lon="13.543786555654082"><ele>379.0</ele><time>2026-04-18T14:26:19.998Z</time></trkpt><trkpt lat="46.11396426602238" lon="13.543864215167742"><ele>380.5</ele><time>2026-04-18T14:26:21.998Z</time></trkpt><trkpt lat="46.11391643398927" lon="13.543966011274655"><ele>382.0</ele><time>2026-04-18T14:26:24.998Z</time></trkpt><trkpt lat="46.113882059463585" lon="13.544084512418607"><ele>383.50000000000006</ele><time>2026-04-18T14:26:27.998Z</time></trkpt><trkpt lat="46.113849743392535" lon="13.544182805079934"><ele>385.0</ele><time>2026-04-18T14:26:30.998Z</time></trkpt><trkpt lat="46.113826872469836" lon="13.544281290175489"><ele>385.0</ele><time>2026-04-18T14:26:33.998Z</time></trkpt><trkpt lat="46.11379767140589" lon="13.544372597672002"><ele>385.0</ele><time>2026-04-18T14:26:36.998Z</time></trkpt><trkpt lat="46.113783036459424" lon="13.544467664292986"><ele>385.0</ele><time>2026-04-18T14:26:39.998Z</time></trkpt><trkpt lat="46.11376206934288" lon="13.544559677581253"><ele>385.0</ele><time>2026-04-18T14:26:42.997Z</time></trkpt><trkpt lat="46.11373375928786" lon="13.544645234148367"><ele>385.0</ele><time>2026-04-18T14:26:45.997Z</time></trkpt><trkpt lat="46.11372557764186" lon="13.544756391656907"><ele>385.0</ele><time>2026-04-18T14:26:49.997Z</time></trkpt><trkpt lat="46.11371406669258" lon="13.544864402720357"><ele>385.0</ele><time>2026-04-18T14:26:53.999Z</time></trkpt><trkpt lat="46.113701422909884" lon="13.544967060785778"><ele>386.14285714285717</ele><time>2026-04-18T14:26:57.999Z</time></trkpt><trkpt lat="46.11368166484241" lon="13.545067606552648"><ele>387.2857142857143</ele><time>2026-04-18T14:27:02Z</time></trkpt><trkpt lat="46.11365789461381" lon="13.545158964453934"><ele>388.42857142857144</ele><time>2026-04-18T14:27:06Z</time></trkpt><trkpt lat="46.11363180322087" lon="13.545242536279115"><ele>389.57142857142856</ele><time>2026-04-18T14:27:10Z</time></trkpt><trkpt lat="46.11359061773121" lon="13.545312517410453"><ele>390.7142857142857</ele><time>2026-04-18T14:27:14Z</time></trkpt><trkpt lat="46.113538227501515" lon="13.545368906311724"><ele>391.8571428571429</ele><time>2026-04-18T14:27:16.999Z</time></trkpt><trkpt lat="46.113471555509484" lon="13.545433506070198"><ele>393.0</ele><time>2026-04-18T14:27:20.999Z</time></trkpt><trkpt lat="46.11339606210633" lon="13.545453563860049"><ele>394.5714285714286</ele><time>2026-04-18T14:27:23.999Z</time></trkpt><trkpt lat="46.11332353313932" lon="13.54548084218678"><ele>396.14285714285717</ele><time>2026-04-18T14:27:26.999Z</time></trkpt><trkpt lat="46.11326387875398" lon="13.54551245323875"><ele>397.7142857142857</ele><time>2026-04-18T14:27:29.999Z</time></trkpt><trkpt lat="46.11320068155708" lon="13.545550654107208"><ele>399.28571428571433</ele><time>2026-04-18T14:27:33.999Z</time></trkpt><trkpt lat="46.11314246243056" lon="13.545620380226234"><ele>400.85714285714283</ele><time>2026-04-18T14:27:38.999Z</time></trkpt><trkpt lat="46.113079144801816" lon="13.545661412130611"><ele>402.42857142857144</ele><time>2026-04-18T14:27:42.999Z</time></trkpt><trkpt lat="46.11301845774323" lon="13.545716263671636"><ele>404.0</ele><time>2026-04-18T14:27:46.999Z</time></trkpt><trkpt lat="46.11296790396205" lon="13.545772394201274"><ele>404.0</ele><time>2026-04-18T14:27:50.999Z</time></trkpt><trkpt lat="46.11290881808747" lon="13.545826714634522"><ele>404.0</ele><time>2026-04-18T14:27:54.999Z</time></trkpt><trkpt lat="46.11285547400119" lon="13.54588208631743"><ele>404.0</ele><time>2026-04-18T14:27:58.999Z</time></trkpt><trkpt lat="46.11279423134675" lon="13.545951747396"><ele>404.0</ele><time>2026-04-18T14:28:03.999Z</time></trkpt><trkpt lat="46.112744534040914" lon="13.546008941951758"><ele>404.0</ele><time>2026-04-18T14:28:07.999Z</time></trkpt><trkpt lat="46.11270167203513" lon="13.546078096137274"><ele>404.0</ele><time>2026-04-18T14:28:11.998Z</time></trkpt><trkpt lat="46.112665048421526" lon="13.546157612770044"><ele>404.0</ele><time>2026-04-18T14:28:15.998Z</time></trkpt><trkpt lat="46.112625860506874" lon="13.546234345464782"><ele>405.57142857142856</ele><time>2026-04-18T14:28:19.998Z</time></trkpt><trkpt lat="46.11259479377386" lon="13.546313950931966"><ele>407.1428571428571</ele><time>2026-04-18T14:28:23.998Z</time></trkpt><trkpt lat="46.11255178310772" lon="13.546392571793785"><ele>408.7142857142857</ele><time>2026-04-18T14:28:27.998Z</time></trkpt><trkpt lat="46.112498391931396" lon="13.546458940070034"><ele>410.2857142857143</ele><time>2026-04-18T14:28:31.998Z</time></trkpt><trkpt lat="46.11245621534857" lon="13.54653954104247"><ele>411.8571428571429</ele><time>2026-04-18T14:28:35.998Z</time></trkpt><trkpt lat="46.11240943428812" lon="13.546623303698656"><ele>413.42857142857144</ele><time>2026-04-18T14:28:39.998Z</time></trkpt><trkpt lat="46.1123705591568" lon="13.54672086023064"><ele>415.0</ele><time>2026-04-18T14:28:43.998Z</time></trkpt><trkpt lat="46.11233116424611" lon="13.546801488046379"><ele>415.8571428571429</ele><time>2026-04-18T14:28:47.998Z</time></trkpt><trkpt lat="46.11230034929673" lon="13.546889122633242"><ele>416.7142857142857</ele><time>2026-04-18T14:28:51.998Z</time></trkpt><trkpt lat="46.11226189005576" lon="13.546975644112827"><ele>417.57142857142856</ele><time>2026-04-18T14:28:55.998Z</time></trkpt><trkpt lat="46.11222136238194" lon="13.547059684181985"><ele>418.42857142857144</ele><time>2026-04-18T14:29:00Z</time></trkpt><trkpt lat="46.11217271768294" lon="13.547128097927343"><ele>419.2857142857143</ele><time>2026-04-18T14:29:03Z</time></trkpt><trkpt lat="46.11211731712851" lon="13.547182198240499"><ele>420.14285714285717</ele><time>2026-04-18T14:29:06Z</time></trkpt><trkpt lat="46.112063232766154" lon="13.54726275269876"><ele>421.0</ele><time>2026-04-18T14:29:10Z</time></trkpt><trkpt lat="46.11201520562024" lon="13.547325779805355"><ele>421.8571428571429</ele><time>2026-04-18T14:29:13Z</time></trkpt><trkpt lat="46.11196777866239" lon="13.547388227376748"><ele>422.7142857142857</ele><time>2026-04-18T14:29:16Z</time></trkpt><trkpt lat="46.11192906247575" lon="13.547461829185867"><ele>423.57142857142856</ele><time>2026-04-18T14:29:20Z</time></trkpt><trkpt lat="46.11187927537257" lon="13.547545882124247"><ele>424.42857142857144</ele><time>2026-04-18T14:29:24Z</time></trkpt><trkpt lat="46.11182766034055" lon="13.547623132682192"><ele>425.2857142857143</ele><time>2026-04-18T14:29:27.999Z</time></trkpt><trkpt lat="46.111758844261836" lon="13.547680767474173"><ele>426.14285714285717</ele><time>2026-04-18T14:29:31.999Z</time></trkpt><trkpt lat="46.11170348445126" lon="13.54775027477144"><ele>427.0</ele><time>2026-04-18T14:29:35.999Z</time></trkpt><trkpt lat="46.11164316400827" lon="13.547777701930157"><ele>427.0</ele><time>2026-04-18T14:29:38.999Z</time></trkpt><trkpt lat="46.11158685920064" lon="13.547862141702355"><ele>427.0</ele><time>2026-04-18T14:29:42.999Z</time></trkpt><trkpt lat="46.111535625255236" lon="13.54792323623122"><ele>427.0</ele><time>2026-04-18T14:29:47.999Z</time></trkpt><trkpt lat="46.11153637213307" lon="13.547819790445285"><ele>427.0</ele><time>2026-04-18T14:29:58.999Z</time></trkpt><trkpt lat="46.11159775846315" lon="13.547794367724075"><ele>427.0</ele><time>2026-04-18T14:30:02.999Z</time></trkpt><trkpt lat="46.11152215820316" lon="13.547835582335795"><ele>427.0</ele><time>2026-04-18T14:30:12.999Z</time></trkpt><trkpt lat="46.11148306357004" lon="13.547919538223727"><ele>427.0</ele><time>2026-04-18T14:30:17.999Z</time></trkpt><trkpt lat="46.11142353344718" lon="13.547982962238226"><ele>429.0</ele><time>2026-04-18T14:30:21.998Z</time></trkpt><trkpt lat="46.111399292686244" lon="13.54809024377627"><ele>431.0</ele><time>2026-04-18T14:30:25.998Z</time></trkpt><trkpt lat="46.11135871033061" lon="13.548182114147766"><ele>433.0</ele><time>2026-04-18T14:30:30.998Z</time></trkpt><trkpt lat="46.111369015715255" lon="13.548276076398626"><ele>435.0</ele><time>2026-04-18T14:30:37.998Z</time></trkpt><trkpt lat="46.111353591932655" lon="13.548374687887863"><ele>437.0</ele><time>2026-04-18T14:30:42.998Z</time></trkpt><trkpt lat="46.111343846899146" lon="13.548473889467395"><ele>439.0</ele><time>2026-04-18T14:30:47.998Z</time></trkpt><trkpt lat="46.11135605478901" lon="13.548578434033494"><ele>441.0</ele><time>2026-04-18T14:30:53.998Z</time></trkpt><trkpt lat="46.11135818940702" lon="13.548694260106522"><ele>440.2857142857143</ele><time>2026-04-18T14:30:57.998Z</time></trkpt><trkpt lat="46.11139956845562" lon="13.5487829464368"><ele>439.57142857142856</ele><time>2026-04-18T14:31:03Z</time></trkpt><trkpt lat="46.11147650551768" lon="13.548754610354719"><ele>438.8571428571429</ele><time>2026-04-18T14:31:09Z</time></trkpt><trkpt lat="46.11154570007802" lon="13.548732342581237"><ele>438.1428571428571</ele><time>2026-04-18T14:31:13Z</time></trkpt><trkpt lat="46.111615087531845" lon="13.54870488271623"><ele>437.42857142857144</ele><time>2026-04-18T14:31:17Z</time></trkpt><trkpt lat="46.11169056820513" lon="13.548718545764574"><ele>436.7142857142857</ele><time>2026-04-18T14:31:21Z</time></trkpt><trkpt lat="46.111747184493694" lon="13.548764512023297"><ele>436.0</ele><time>2026-04-18T14:31:24Z</time></trkpt><trkpt lat="46.1117974310891" lon="13.548833225467114"><ele>438.42857142857144</ele><time>2026-04-18T14:31:27Z</time></trkpt><trkpt lat="46.111852439481964" lon="13.548880772195766"><ele>440.8571428571429</ele><time>2026-04-18T14:31:30Z</time></trkpt><trkpt lat="46.111912282094714" lon="13.54892210188226"><ele>443.2857142857142</ele><time>2026-04-18T14:31:34Z</time></trkpt><trkpt lat="46.11196546775056" lon="13.548976767760331"><ele>445.71428571428567</ele><time>2026-04-18T14:31:38Z</time></trkpt><trkpt lat="46.11202090575146" lon="13.549024775923504"><ele>448.1428571428571</ele><time>2026-04-18T14:31:41.999Z</time></trkpt><trkpt lat="46.112078827703996" lon="13.5490809610101"><ele>450.5714285714285</ele><time>2026-04-18T14:31:45.999Z</time></trkpt><trkpt lat="46.11211179209062" lon="13.549164776492214"><ele>452.99999999999994</ele><time>2026-04-18T14:31:49.999Z</time></trkpt><trkpt lat="46.112076738946996" lon="13.549256879623469"><ele>452.99999999999994</ele><time>2026-04-18T14:31:53.999Z</time></trkpt><trkpt lat="46.11200975560333" lon="13.54926657801391"><ele>453.0</ele><time>2026-04-18T14:31:57.999Z</time></trkpt><trkpt lat="46.11193206028859" lon="13.549253080255601"><ele>452.99999999999994</ele><time>2026-04-18T14:32:02.999Z</time></trkpt><trkpt lat="46.11186175737406" lon="13.54926401020987"><ele>452.99999999999994</ele><time>2026-04-18T14:32:06.999Z</time></trkpt><trkpt lat="46.11179668934026" lon="13.549273060222145"><ele>453.0</ele><time>2026-04-18T14:32:10.999Z</time></trkpt><trkpt lat="46.11173370485611" lon="13.549289536888155"><ele>452.99999999999994</ele><time>2026-04-18T14:32:14.999Z</time></trkpt><trkpt lat="46.11166310956799" lon="13.549309841176646"><ele>452.99999999999994</ele><time>2026-04-18T14:32:19.999Z</time></trkpt><trkpt lat="46.111597620966485" lon="13.549328241503925"><ele>454.8571428571428</ele><time>2026-04-18T14:32:24.999Z</time></trkpt><trkpt lat="46.111522709463685" lon="13.549352174288368"><ele>456.71428571428567</ele><time>2026-04-18T14:32:29.999Z</time></trkpt><trkpt lat="46.11144596442742" lon="13.549351579071057"><ele>458.57142857142856</ele><time>2026-04-18T14:32:34.998Z</time></trkpt><trkpt lat="46.111383329975844" lon="13.549383133697043"><ele>460.4285714285714</ele><time>2026-04-18T14:32:38.998Z</time></trkpt><trkpt lat="46.11131360700887" lon="13.549414413862104"><ele>462.2857142857142</ele><time>2026-04-18T14:32:42.998Z</time></trkpt><trkpt lat="46.11124695010019" lon="13.549429650310897"><ele>464.14285714285717</ele><time>2026-04-18T14:32:46.998Z</time></trkpt><trkpt lat="46.1111739534554" lon="13.549446388194804"><ele>466.0</ele><time>2026-04-18T14:32:50.998Z</time></trkpt><trkpt lat="46.11110498469084" lon="13.54944972204114"><ele>466.0</ele><time>2026-04-18T14:32:54.998Z</time></trkpt><trkpt lat="46.11102678071476" lon="13.549443840375522"><ele>466.0</ele><time>2026-04-18T14:32:58.998Z</time></trkpt><trkpt lat="46.110952975983224" lon="13.549441807484433"><ele>466.0</ele><time>2026-04-18T14:33:02.998Z</time></trkpt><trkpt lat="46.11087737905936" lon="13.549424715935142"><ele>466.0</ele><time>2026-04-18T14:33:06.998Z</time></trkpt><trkpt lat="46.11079991896881" lon="13.549397451981939"><ele>466.0</ele><time>2026-04-18T14:33:11Z</time></trkpt><trkpt lat="46.110734257366566" lon="13.549379878940911"><ele>466.0</ele><time>2026-04-18T14:33:14Z</time></trkpt><trkpt lat="46.110670526141625" lon="13.549356994135481"><ele>466.0</ele><time>2026-04-18T14:33:17Z</time></trkpt><trkpt lat="46.11060747200901" lon="13.549308240057071"><ele>468.7142857142857</ele><time>2026-04-18T14:33:21Z</time></trkpt><trkpt lat="46.11053250274461" lon="13.549270000492943"><ele>471.42857142857144</ele><time>2026-04-18T14:33:25Z</time></trkpt><trkpt lat="46.11046581098217" lon="13.549262095857982"><ele>474.14285714285717</ele><time>2026-04-18T14:33:30Z</time></trkpt><trkpt lat="46.110395562160846" lon="13.549256303333957"><ele>476.8571428571429</ele><time>2026-04-18T14:33:35Z</time></trkpt><trkpt lat="46.110322170372974" lon="13.549251487806197"><ele>479.57142857142856</ele><time>2026-04-18T14:33:39Z</time></trkpt><trkpt lat="46.110249168001836" lon="13.549237851853588"><ele>482.28571428571433</ele><time>2026-04-18T14:33:43Z</time></trkpt><trkpt lat="46.11017413595759" lon="13.549223871922692"><ele>485.00000000000006</ele><time>2026-04-18T14:33:46.999Z</time></trkpt><trkpt lat="46.11010351829881" lon="13.549211779956169"><ele>485.00000000000006</ele><time>2026-04-18T14:33:51.999Z</time></trkpt><trkpt lat="46.11002959471637" lon="13.549202378602194"><ele>485.0</ele><time>2026-04-18T14:33:57.999Z</time></trkpt><trkpt lat="46.10995893639293" lon="13.549188882803309"><ele>485.00000000000006</ele><time>2026-04-18T14:34:02.999Z</time></trkpt><trkpt lat="46.109888714618464" lon="13.549159081617365"><ele>485.00000000000006</ele><time>2026-04-18T14:34:06.999Z</time></trkpt><trkpt lat="46.10981553866588" lon="13.549153363196085"><ele>485.0</ele><time>2026-04-18T14:34:10.999Z</time></trkpt><trkpt lat="46.10974883590622" lon="13.549136579677748"><ele>485.00000000000006</ele><time>2026-04-18T14:34:13.999Z</time></trkpt><trkpt lat="46.10968116537273" lon="13.549107895670323"><ele>485.00000000000006</ele><time>2026-04-18T14:34:17.999Z</time></trkpt><trkpt lat="46.10960555367409" lon="13.549099382553004"><ele>486.57142857142867</ele><time>2026-04-18T14:34:21.999Z</time></trkpt><trkpt lat="46.109536875980154" lon="13.549083997285411"><ele>488.14285714285717</ele><time>2026-04-18T14:34:25.999Z</time></trkpt><trkpt lat="46.109470573434834" lon="13.54906138466463"><ele>489.7142857142858</ele><time>2026-04-18T14:34:29.999Z</time></trkpt><trkpt lat="46.10940775623629" lon="13.549051357308125"><ele>491.28571428571433</ele><time>2026-04-18T14:34:33.999Z</time></trkpt><trkpt lat="46.109332602914385" lon="13.549064884616117"><ele>492.8571428571429</ele><time>2026-04-18T14:34:38.999Z</time></trkpt><trkpt lat="46.10925853911208" lon="13.54909513981849"><ele>494.42857142857144</ele><time>2026-04-18T14:34:43.998Z</time></trkpt><trkpt lat="46.10918502221467" lon="13.549118488070029"><ele>496.0</ele><time>2026-04-18T14:34:48.998Z</time></trkpt><trkpt lat="46.10911639275735" lon="13.549157152755669"><ele>495.5714285714286</ele><time>2026-04-18T14:34:52.998Z</time></trkpt><trkpt lat="46.10905921777064" lon="13.549202878778335"><ele>495.1428571428572</ele><time>2026-04-18T14:34:56.998Z</time></trkpt><trkpt lat="46.108992828217715" lon="13.549257762414294"><ele>494.7142857142857</ele><time>2026-04-18T14:35:01.998Z</time></trkpt><trkpt lat="46.108926901167195" lon="13.549312263689012"><ele>494.28571428571433</ele><time>2026-04-18T14:35:05.998Z</time></trkpt><trkpt lat="46.108863043104286" lon="13.549364663073318"><ele>493.8571428571429</ele><time>2026-04-18T14:35:08.998Z</time></trkpt><trkpt lat="46.10879113969062" lon="13.549422469868182"><ele>493.42857142857144</ele><time>2026-04-18T14:35:11.998Z</time></trkpt><trkpt lat="46.108727766389755" lon="13.549472788958731"><ele>493.0</ele><time>2026-04-18T14:35:15Z</time></trkpt><trkpt lat="46.10864504086406" lon="13.5495040570462"><ele>493.00000000000006</ele><time>2026-04-18T14:35:17Z</time></trkpt><trkpt lat="46.10853419749855" lon="13.549524913761154"><ele>493.0</ele><time>2026-04-18T14:35:20Z</time></trkpt><trkpt lat="46.10846469646676" lon="13.549542021270218"><ele>493.0</ele><time>2026-04-18T14:35:22Z</time></trkpt><trkpt lat="46.10839336049948" lon="13.549539699285702"><ele>493.0</ele><time>2026-04-18T14:35:24Z</time></trkpt><trkpt lat="46.10832324210159" lon="13.549627989897349"><ele>493.00000000000006</ele><time>2026-04-18T14:35:27Z</time></trkpt><trkpt lat="46.10824532690927" lon="13.549592332363959"><ele>493.0</ele><time>2026-04-18T14:35:29Z</time></trkpt><trkpt lat="46.10816738530853" lon="13.549595557306612"><ele>498.0</ele><time>2026-04-18T14:35:30Z</time></trkpt><trkpt lat="46.108068053201755" lon="13.549596765732115"><ele>502.99999999999994</ele><time>2026-04-18T14:35:32Z</time></trkpt><trkpt lat="46.10796254955777" lon="13.5495991887664"><ele>507.99999999999994</ele><time>2026-04-18T14:35:34Z</time></trkpt><trkpt lat="46.10786128801727" lon="13.549588015513127"><ele>513.0</ele><time>2026-04-18T14:35:36Z</time></trkpt><trkpt lat="46.10775647873583" lon="13.549573157553322"><ele>518.0</ele><time>2026-04-18T14:35:38Z</time></trkpt><trkpt lat="46.10769332525257" lon="13.549564869900586"><ele>518.0</ele><time>2026-04-18T14:35:41Z</time></trkpt><trkpt lat="46.107615876831034" lon="13.549568452804559"><ele>518.0</ele><time>2026-04-18T14:35:44Z</time></trkpt><trkpt lat="46.107523527381225" lon="13.549548168485614"><ele>518.0</ele><time>2026-04-18T14:35:47Z</time></trkpt><trkpt lat="46.10745424552821" lon="13.549541327863377"><ele>518.0</ele><time>2026-04-18T14:35:49Z</time></trkpt><trkpt lat="46.10738358229843" lon="13.549539596351929"><ele>518.0</ele><time>2026-04-18T14:35:51Z</time></trkpt><trkpt lat="46.10729108325997" lon="13.549519589956677"><ele>518.0</ele><time>2026-04-18T14:35:53.999Z</time></trkpt><trkpt lat="46.10721577494385" lon="13.549501484826294"><ele>516.0</ele><time>2026-04-18T14:35:56.999Z</time></trkpt><trkpt lat="46.10712822130548" lon="13.549469481392865"><ele>514.0</ele><time>2026-04-18T14:35:59.999Z</time></trkpt><trkpt lat="46.10704669890473" lon="13.549446315993341"><ele>512.0</ele><time>2026-04-18T14:36:02.999Z</time></trkpt><trkpt lat="46.106982365084065" lon="13.549426406095687"><ele>510.0</ele><time>2026-04-18T14:36:04.999Z</time></trkpt><trkpt lat="46.10688671075146" lon="13.549410684967937"><ele>507.99999999999994</ele><time>2026-04-18T14:36:07.999Z</time></trkpt><trkpt lat="46.106801806946855" lon="13.54937234336799"><ele>506.0</ele><time>2026-04-18T14:36:10.999Z</time></trkpt><trkpt lat="46.10673594808674" lon="13.549333807632925"><ele>506.00000000000006</ele><time>2026-04-18T14:36:13.999Z</time></trkpt><trkpt lat="46.10667033008831" lon="13.549304951108176"><ele>506.0</ele><time>2026-04-18T14:36:16.999Z</time></trkpt><trkpt lat="46.10660837927402" lon="13.549264474545975"><ele>506.00000000000006</ele><time>2026-04-18T14:36:19.999Z</time></trkpt><trkpt lat="46.10654375202836" lon="13.549229192318856"><ele>506.00000000000006</ele><time>2026-04-18T14:36:22.999Z</time></trkpt><trkpt lat="46.10648383362954" lon="13.549185424504017"><ele>506.0</ele><time>2026-04-18T14:36:25.999Z</time></trkpt><trkpt lat="46.106419250808926" lon="13.549129523932656"><ele>506.00000000000006</ele><time>2026-04-18T14:36:28.999Z</time></trkpt><trkpt lat="46.10634959822421" lon="13.549082583204532"><ele>506.00000000000006</ele><time>2026-04-18T14:36:31.999Z</time></trkpt><trkpt lat="46.10629059040521" lon="13.549049397654176"><ele>507.66666666666663</ele><time>2026-04-18T14:36:34.999Z</time></trkpt><trkpt lat="46.106229479938335" lon="13.549018133962383"><ele>509.3333333333333</ele><time>2026-04-18T14:36:37.999Z</time></trkpt><trkpt lat="46.10615375427643" lon="13.548992960694159"><ele>511.0</ele><time>2026-04-18T14:36:41.999Z</time></trkpt><trkpt lat="46.10607444801869" lon="13.548976277735049"><ele>512.6666666666666</ele><time>2026-04-18T14:36:45.999Z</time></trkpt><trkpt lat="46.105996027233076" lon="13.548960886138858"><ele>514.3333333333334</ele><time>2026-04-18T14:36:49.998Z</time></trkpt><trkpt lat="46.10591693844747" lon="13.548946188557855"><ele>516.0</ele><time>2026-04-18T14:36:53.998Z</time></trkpt><trkpt lat="46.105841107751296" lon="13.548932096357717"><ele>515.9999999999999</ele><time>2026-04-18T14:36:57.998Z</time></trkpt><trkpt lat="46.105769167839135" lon="13.5489153427102"><ele>516.0</ele><time>2026-04-18T14:37:01.998Z</time></trkpt><trkpt lat="46.105706534772615" lon="13.548898290831696"><ele>516.0</ele><time>2026-04-18T14:37:04.998Z</time></trkpt><trkpt lat="46.10562466647082" lon="13.548882644581871"><ele>516.0</ele><time>2026-04-18T14:37:08.998Z</time></trkpt><trkpt lat="46.105561859311294" lon="13.548868883161257"><ele>516.0</ele><time>2026-04-18T14:37:11.998Z</time></trkpt><trkpt lat="46.105496146714046" lon="13.548861580536716"><ele>515.9999999999999</ele><time>2026-04-18T14:37:14.998Z</time></trkpt><trkpt lat="46.105420578443734" lon="13.548870787150125"><ele>516.0</ele><time>2026-04-18T14:37:17.998Z</time></trkpt><trkpt lat="46.105334192134386" lon="13.548874706778905"><ele>517.0</ele><time>2026-04-18T14:37:21Z</time></trkpt><trkpt lat="46.105245277159106" lon="13.548865030249468"><ele>518.0</ele><time>2026-04-18T14:37:24Z</time></trkpt><trkpt lat="46.105151144671105" lon="13.548867724893615"><ele>519.0</ele><time>2026-04-18T14:37:27Z</time></trkpt><trkpt lat="46.10507342168224" lon="13.54884074712934"><ele>520.0</ele><time>2026-04-18T14:37:30Z</time></trkpt><trkpt lat="46.1049945269377" lon="13.548798435556273"><ele>521.0</ele><time>2026-04-18T14:37:33Z</time></trkpt><trkpt lat="46.104918267172565" lon="13.548744541707379"><ele>522.0</ele><time>2026-04-18T14:37:36Z</time></trkpt><trkpt lat="46.10484645538502" lon="13.54868865135847"><ele>522.8333333333334</ele><time>2026-04-18T14:37:39Z</time></trkpt><trkpt lat="46.10476968653705" lon="13.54862209451835"><ele>523.6666666666666</ele><time>2026-04-18T14:37:42Z</time></trkpt><trkpt lat="46.10469841115399" lon="13.54855318527291"><ele>524.5</ele><time>2026-04-18T14:37:45Z</time></trkpt><trkpt lat="46.104622324367774" lon="13.548482019271162"><ele>525.3333333333333</ele><time>2026-04-18T14:37:48Z</time></trkpt><trkpt lat="46.10456143905685" lon="13.548411974513522"><ele>526.1666666666666</ele><time>2026-04-18T14:37:51Z</time></trkpt><trkpt lat="46.10450502549442" lon="13.548370201019738"><ele>527.0</ele><time>2026-04-18T14:37:54Z</time></trkpt><trkpt lat="46.104429130017046" lon="13.548308653557998"><ele>527.0</ele><time>2026-04-18T14:37:57Z</time></trkpt><trkpt lat="46.10438838892276" lon="13.548236344565057"><ele>527.0</ele><time>2026-04-18T14:37:59Z</time></trkpt><trkpt lat="46.10435598363632" lon="13.54814475862508"><ele>527.0</ele><time>2026-04-18T14:38:01.999Z</time></trkpt><trkpt lat="46.104280793943765" lon="13.548019972480745"><ele>527.0</ele><time>2026-04-18T14:38:04.999Z</time></trkpt><trkpt lat="46.10424417501505" lon="13.547918772168678"><ele>527.0</ele><time>2026-04-18T14:38:06.999Z</time></trkpt><trkpt lat="46.10419900054493" lon="13.547844526787127"><ele>527.0</ele><time>2026-04-18T14:38:08.999Z</time></trkpt><trkpt lat="46.10415050978853" lon="13.547741150032254"><ele>526.4285714285714</ele><time>2026-04-18T14:38:11.999Z</time></trkpt><trkpt lat="46.10411044949756" lon="13.547653513135677"><ele>525.8571428571429</ele><time>2026-04-18T14:38:14.999Z</time></trkpt><trkpt lat="46.10410389897729" lon="13.547548528685589"><ele>525.2857142857142</ele><time>2026-04-18T14:38:57.998Z</time></trkpt><trkpt lat="46.10403151353629" lon="13.547466077131272"><ele>524.7142857142858</ele><time>2026-04-18T14:41:36Z</time></trkpt><trkpt lat="46.10397921528838" lon="13.547413091972862"><ele>524.1428571428571</ele><time>2026-04-18T14:41:41Z</time></trkpt><trkpt lat="46.1039184655392" lon="13.547387130078604"><ele>523.5714285714286</ele><time>2026-04-18T14:41:45Z</time></trkpt><trkpt lat="46.10386909043188" lon="13.547317301082877"><ele>523.0</ele><time>2026-04-18T14:41:49Z</time></trkpt><trkpt lat="46.10386986495782" lon="13.547222285091443"><ele>525.1428571428571</ele><time>2026-04-18T14:41:52Z</time></trkpt><trkpt lat="46.103903549000876" lon="13.547133846743138"><ele>527.2857142857142</ele><time>2026-04-18T14:41:55Z</time></trkpt><trkpt lat="46.10392425907588" lon="13.547026586323845"><ele>529.4285714285714</ele><time>2026-04-18T14:41:59Z</time></trkpt><trkpt lat="46.10396158888316" lon="13.546929442091807"><ele>531.5714285714286</ele><time>2026-04-18T14:42:03Z</time></trkpt><trkpt lat="46.10396585318867" lon="13.546834939540156"><ele>533.7142857142858</ele><time>2026-04-18T14:42:07Z</time></trkpt><trkpt lat="46.10397234290097" lon="13.546734034149436"><ele>535.8571428571429</ele><time>2026-04-18T14:42:11Z</time></trkpt><trkpt lat="46.103971220331516" lon="13.546622046716182"><ele>538.0</ele><time>2026-04-18T14:42:15.999Z</time></trkpt><trkpt lat="46.10396928558642" lon="13.546531080624515"><ele>538.0</ele><time>2026-04-18T14:42:19.999Z</time></trkpt><trkpt lat="46.10396713609756" lon="13.546426244451531"><ele>538.0</ele><time>2026-04-18T14:42:23.999Z</time></trkpt><trkpt lat="46.103959770807364" lon="13.546328638640691"><ele>538.0</ele><time>2026-04-18T14:42:26.999Z</time></trkpt><trkpt lat="46.10390583141235" lon="13.54624249859273"><ele>538.0</ele><time>2026-04-18T14:42:30.999Z</time></trkpt><trkpt lat="46.10384685643833" lon="13.54616235384628"><ele>538.0</ele><time>2026-04-18T14:42:34.999Z</time></trkpt><trkpt lat="46.10379689342415" lon="13.546066282014843"><ele>538.0</ele><time>2026-04-18T14:42:38.999Z</time></trkpt><trkpt lat="46.103746472595134" lon="13.545975350320317"><ele>537.8571428571429</ele><time>2026-04-18T14:42:42.999Z</time></trkpt><trkpt lat="46.10370553063312" lon="13.545894999733314"><ele>537.7142857142858</ele><time>2026-04-18T14:42:45.999Z</time></trkpt><trkpt lat="46.10366407677857" lon="13.545812814048157"><ele>537.5714285714286</ele><time>2026-04-18T14:42:48.999Z</time></trkpt><trkpt lat="46.10362123585154" lon="13.54573397126077"><ele>537.4285714285714</ele><time>2026-04-18T14:42:51.999Z</time></trkpt><trkpt lat="46.10357018526918" lon="13.54567121147445"><ele>537.2857142857142</ele><time>2026-04-18T14:42:54.999Z</time></trkpt><trkpt lat="46.10352176435339" lon="13.545599476549821"><ele>537.1428571428571</ele><time>2026-04-18T14:42:57.999Z</time></trkpt><trkpt lat="46.103470198412985" lon="13.545540503584498"><ele>537.0</ele><time>2026-04-18T14:43:00.999Z</time></trkpt><trkpt lat="46.10340031092483" lon="13.545509849300798"><ele>536.9999999999999</ele><time>2026-04-18T14:43:03.999Z</time></trkpt><trkpt lat="46.10333591052559" lon="13.545511620970753"><ele>537.0</ele><time>2026-04-18T14:43:06.998Z</time></trkpt><trkpt lat="46.10327211821164" lon="13.545511696293865"><ele>537.0</ele><time>2026-04-18T14:43:09.998Z</time></trkpt><trkpt lat="46.103189719519555" lon="13.545510725650765"><ele>537.0</ele><time>2026-04-18T14:43:13.998Z</time></trkpt><trkpt lat="46.10311184569328" lon="13.545501730805855"><ele>537.0</ele><time>2026-04-18T14:43:17.998Z</time></trkpt><trkpt lat="46.10304860859793" lon="13.545467948293066"><ele>536.9999999999999</ele><time>2026-04-18T14:43:20.998Z</time></trkpt><trkpt lat="46.10298212778205" lon="13.545404369574914"><ele>537.0</ele><time>2026-04-18T14:43:24.998Z</time></trkpt><trkpt lat="46.102946000557196" lon="13.545300710872755"><ele>539.8333333333334</ele><time>2026-04-18T14:43:28.998Z</time></trkpt><trkpt lat="46.10291619872749" lon="13.545210320986348"><ele>542.6666666666666</ele><time>2026-04-18T14:43:31.998Z</time></trkpt><trkpt lat="46.10288541540953" lon="13.545126749578792"><ele>545.5</ele><time>2026-04-18T14:43:34.998Z</time></trkpt><trkpt lat="46.10283384705816" lon="13.545022973071575"><ele>548.3333333333333</ele><time>2026-04-18T14:43:39Z</time></trkpt><trkpt lat="46.10280774121273" lon="13.544931796453488"><ele>551.1666666666666</ele><time>2026-04-18T14:43:41Z</time></trkpt><trkpt lat="46.102772524194506" lon="13.544804533135402"><ele>554.0</ele><time>2026-04-18T14:43:44Z</time></trkpt><trkpt lat="46.10273069867756" lon="13.54468991439635"><ele>554.0</ele><time>2026-04-18T14:43:47Z</time></trkpt><trkpt lat="46.10269543001623" lon="13.544581937031444"><ele>554.0</ele><time>2026-04-18T14:43:50Z</time></trkpt><trkpt lat="46.10267296417339" lon="13.544496912807666"><ele>554.0</ele><time>2026-04-18T14:43:52Z</time></trkpt><trkpt lat="46.10265273944222" lon="13.544410650158232"><ele>554.0</ele><time>2026-04-18T14:43:54Z</time></trkpt><trkpt lat="46.102619135956886" lon="13.544301321216537"><ele>554.0</ele><time>2026-04-18T14:43:57Z</time></trkpt><trkpt lat="46.10257456670934" lon="13.544208666886133"><ele>554.0</ele><time>2026-04-18T14:44:00Z</time></trkpt><trkpt lat="46.10252837987715" lon="13.54413400430268"><ele>554.0</ele><time>2026-04-18T14:44:03Z</time></trkpt><trkpt lat="46.10247302946907" lon="13.544043383120457"><ele>553.4285714285714</ele><time>2026-04-18T14:44:07Z</time></trkpt><trkpt lat="46.10244298760172" lon="13.543947321094521"><ele>552.8571428571428</ele><time>2026-04-18T14:44:10Z</time></trkpt><trkpt lat="46.10242072843337" lon="13.543841951500111"><ele>552.2857142857142</ele><time>2026-04-18T14:44:13Z</time></trkpt><trkpt lat="46.1023941803994" lon="13.54374168328621"><ele>551.7142857142857</ele><time>2026-04-18T14:44:15.999Z</time></trkpt><trkpt lat="46.102373241065465" lon="13.543639002451712"><ele>551.1428571428571</ele><time>2026-04-18T14:44:18.999Z</time></trkpt><trkpt lat="46.10235734483927" lon="13.543539575788337"><ele>550.5714285714286</ele><time>2026-04-18T14:44:21.999Z</time></trkpt><trkpt lat="46.10232597509533" lon="13.543434026779686"><ele>550.0</ele><time>2026-04-18T14:44:24.999Z</time></trkpt><trkpt lat="46.10235831675917" lon="13.54331004614563"><ele>550.5</ele><time>2026-04-18T14:44:27.999Z</time></trkpt><trkpt lat="46.10238192348979" lon="13.543223646906332"><ele>551.0</ele><time>2026-04-18T14:44:29.999Z</time></trkpt><trkpt lat="46.10241115368053" lon="13.543100232333256"><ele>551.5</ele><time>2026-04-18T14:44:32.999Z</time></trkpt><trkpt lat="46.1024142368299" lon="13.542974244234856"><ele>552.0</ele><time>2026-04-18T14:44:35.999Z</time></trkpt><trkpt lat="46.10239784268709" lon="13.542882598698379"><ele>552.5</ele><time>2026-04-18T14:44:37.999Z</time></trkpt><trkpt lat="46.102416346791" lon="13.542752971261425"><ele>553.0</ele><time>2026-04-18T14:44:40.999Z</time></trkpt><trkpt lat="46.102430838389274" lon="13.542633407421604"><ele>553.0</ele><time>2026-04-18T14:44:43.999Z</time></trkpt><trkpt lat="46.10241868410642" lon="13.542505511835573"><ele>553.0</ele><time>2026-04-18T14:44:46.999Z</time></trkpt><trkpt lat="46.10243917654736" lon="13.54238131135992"><ele>553.0</ele><time>2026-04-18T14:44:49.999Z</time></trkpt><trkpt lat="46.10245231784297" lon="13.542237542399846"><ele>553.0</ele><time>2026-04-18T14:44:52.999Z</time></trkpt><trkpt lat="46.10246767622104" lon="13.54214127458332"><ele>553.0</ele><time>2026-04-18T14:44:54.999Z</time></trkpt><trkpt lat="46.10248258394542" lon="13.542042633158603"><ele>553.0</ele><time>2026-04-18T14:44:56.999Z</time></trkpt><trkpt lat="46.10249912142186" lon="13.541930732761074"><ele>553.6666666666667</ele><time>2026-04-18T14:44:58.999Z</time></trkpt><trkpt lat="46.10251565714706" lon="13.541816913341997"><ele>554.3333333333334</ele><time>2026-04-18T14:45:00.999Z</time></trkpt><trkpt lat="46.102522741330596" lon="13.541701989236516"><ele>555.0</ele><time>2026-04-18T14:45:02.999Z</time></trkpt><trkpt lat="46.10252912388485" lon="13.541568620400325"><ele>555.6666666666666</ele><time>2026-04-18T14:45:04.999Z</time></trkpt><trkpt lat="46.102499844624354" lon="13.541467087894317"><ele>556.3333333333333</ele><time>2026-04-18T14:45:06.999Z</time></trkpt><trkpt lat="46.102460926105266" lon="13.54136838421776"><ele>557.0</ele><time>2026-04-18T14:45:08.998Z</time></trkpt><trkpt lat="46.10242575488687" lon="13.541291034861684"><ele>561.3333333333333</ele><time>2026-04-18T14:45:10.998Z</time></trkpt><trkpt lat="46.10238939815332" lon="13.54120991117643"><ele>565.6666666666666</ele><time>2026-04-18T14:45:12.998Z</time></trkpt><trkpt lat="46.10235676770387" lon="13.54113121886821"><ele>570.0</ele><time>2026-04-18T14:45:14.998Z</time></trkpt><trkpt lat="46.10232263763801" lon="13.541053066662903"><ele>574.3333333333334</ele><time>2026-04-18T14:45:16.998Z</time></trkpt><trkpt lat="46.102300937889346" lon="13.540935980988856"><ele>578.6666666666667</ele><time>2026-04-18T14:45:18.998Z</time></trkpt><trkpt lat="46.102261474047346" lon="13.540826489618615"><ele>583.0</ele><time>2026-04-18T14:45:20.998Z</time></trkpt><trkpt lat="46.102231226571135" lon="13.540706843686714"><ele>583.0</ele><time>2026-04-18T14:45:23.998Z</time></trkpt><trkpt lat="46.10220263508695" lon="13.540582444127946"><ele>583.0</ele><time>2026-04-18T14:45:26.998Z</time></trkpt><trkpt lat="46.10218335506379" lon="13.540465304918957"><ele>583.0</ele><time>2026-04-18T14:45:28.998Z</time></trkpt><trkpt lat="46.10218313960929" lon="13.540333553818112"><ele>583.0</ele><time>2026-04-18T14:45:30.998Z</time></trkpt><trkpt lat="46.10218995982975" lon="13.540228783373017"><ele>583.0</ele><time>2026-04-18T14:45:33.998Z</time></trkpt><trkpt lat="46.1021769785541" lon="13.54011022891145"><ele>583.0</ele><time>2026-04-18T14:45:35.998Z</time></trkpt><trkpt lat="46.10218636335054" lon="13.539998314728756"><ele>583.4285714285714</ele><time>2026-04-18T14:45:37.998Z</time></trkpt><trkpt lat="46.10219451753512" lon="13.539904467787409"><ele>583.8571428571429</ele><time>2026-04-18T14:45:39.998Z</time></trkpt><trkpt lat="46.10219947569217" lon="13.53979452630999"><ele>584.2857142857142</ele><time>2026-04-18T14:45:42.998Z</time></trkpt><trkpt lat="46.1022025597136" lon="13.539686243341214"><ele>584.7142857142858</ele><time>2026-04-18T14:45:46Z</time></trkpt><trkpt lat="46.10218632815124" lon="13.539577380417903"><ele>585.1428571428571</ele><time>2026-04-18T14:45:50Z</time></trkpt><trkpt lat="46.10216430126258" lon="13.539482042569821"><ele>585.5714285714286</ele><time>2026-04-18T14:45:54Z</time></trkpt><trkpt lat="46.10215400524947" lon="13.53936684569125"><ele>586.0</ele><time>2026-04-18T14:45:57Z</time></trkpt><trkpt lat="46.102137061258894" lon="13.539261537572298"><ele>585.9999999999999</ele><time>2026-04-18T14:46:00Z</time></trkpt><trkpt lat="46.10212686998422" lon="13.539153030447437"><ele>586.0</ele><time>2026-04-18T14:46:03Z</time></trkpt><trkpt lat="46.10211779439165" lon="13.539058007725"><ele>586.0</ele><time>2026-04-18T14:46:06Z</time></trkpt><trkpt lat="46.102057837405226" lon="13.53898697829748"><ele>586.0</ele><time>2026-04-18T14:46:09Z</time></trkpt><trkpt lat="46.10198335784264" lon="13.539006994438763"><ele>586.0</ele><time>2026-04-18T14:46:12Z</time></trkpt><trkpt lat="46.10191006805244" lon="13.538984243089459"><ele>585.9999999999999</ele><time>2026-04-18T14:46:16Z</time></trkpt><trkpt lat="46.101855484498245" lon="13.538930286204684"><ele>586.0</ele><time>2026-04-18T14:46:19Z</time></trkpt><trkpt lat="46.10181793317743" lon="13.538843960348169"><ele>585.9999999999999</ele><time>2026-04-18T14:46:22.999Z</time></trkpt><trkpt lat="46.10182461455994" lon="13.538753290143754"><ele>586.0</ele><time>2026-04-18T14:46:25.999Z</time></trkpt><trkpt lat="46.101811555406584" lon="13.538662753605818"><ele>586.0</ele><time>2026-04-18T14:46:28.999Z</time></trkpt><trkpt lat="46.10178679420889" lon="13.538569316870817"><ele>586.0</ele><time>2026-04-18T14:46:31.999Z</time></trkpt><trkpt lat="46.10176850257436" lon="13.5384622705226"><ele>586.0</ele><time>2026-04-18T14:46:34.999Z</time></trkpt><trkpt lat="46.10176219363837" lon="13.538360058912023"><ele>585.9999999999999</ele><time>2026-04-18T14:46:37.999Z</time></trkpt><trkpt lat="46.10173412010916" lon="13.538275822626918"><ele>586.0</ele><time>2026-04-18T14:46:40.999Z</time></trkpt><trkpt lat="46.10169355527162" lon="13.538197089510374"><ele>584.8571428571428</ele><time>2026-04-18T14:46:43.999Z</time></trkpt><trkpt lat="46.10164728980274" lon="13.538122504344305"><ele>583.7142857142857</ele><time>2026-04-18T14:46:46.999Z</time></trkpt><trkpt lat="46.10159931320634" lon="13.538051873340448"><ele>582.5714285714286</ele><time>2026-04-18T14:46:49.999Z</time></trkpt><trkpt lat="46.10154943112502" lon="13.537988358396568"><ele>581.4285714285713</ele><time>2026-04-18T14:46:52.999Z</time></trkpt><trkpt lat="46.1014976043748" lon="13.537935000363804"><ele>580.2857142857142</ele><time>2026-04-18T14:46:55.999Z</time></trkpt><trkpt lat="46.10143541322573" lon="13.537893486744489"><ele>579.1428571428571</ele><time>2026-04-18T14:46:58.999Z</time></trkpt><trkpt lat="46.10136469936821" lon="13.537864235892776"><ele>578.0</ele><time>2026-04-18T14:47:02.999Z</time></trkpt><trkpt lat="46.10129477391089" lon="13.537843739966629"><ele>581.3333333333333</ele><time>2026-04-18T14:47:06.999Z</time></trkpt><trkpt lat="46.10121857320301" lon="13.53779358986043"><ele>584.6666666666666</ele><time>2026-04-18T14:47:10.999Z</time></trkpt><trkpt lat="46.10116179589629" lon="13.5377224733947"><ele>588.0</ele><time>2026-04-18T14:47:13.999Z</time></trkpt><trkpt lat="46.10111553514333" lon="13.537616624558101"><ele>591.3333333333334</ele><time>2026-04-18T14:47:17.998Z</time></trkpt><trkpt lat="46.10110988099345" lon="13.537516766090159"><ele>594.6666666666667</ele><time>2026-04-18T14:47:20.998Z</time></trkpt><trkpt lat="46.10111478463484" lon="13.537413823086316"><ele>598.0</ele><time>2026-04-18T14:47:23.998Z</time></trkpt><trkpt lat="46.10111554441871" lon="13.537307648806717"><ele>598.0</ele><time>2026-04-18T14:47:26.998Z</time></trkpt><trkpt lat="46.101122991313716" lon="13.537177098697011"><ele>598.0</ele><time>2026-04-18T14:47:29.998Z</time></trkpt><trkpt lat="46.10112954544432" lon="13.53706736167174"><ele>598.0</ele><time>2026-04-18T14:47:32.998Z</time></trkpt><trkpt lat="46.101125268872664" lon="13.536963332588291"><ele>598.0</ele><time>2026-04-18T14:47:35.998Z</time></trkpt><trkpt lat="46.10111773503139" lon="13.53686406632778"><ele>598.0</ele><time>2026-04-18T14:47:38.998Z</time></trkpt><trkpt lat="46.10111027317975" lon="13.536770535685392"><ele>598.0</ele><time>2026-04-18T14:47:41.998Z</time></trkpt><trkpt lat="46.10109281982926" lon="13.536664316225306"><ele>597.8333333333334</ele><time>2026-04-18T14:47:44.998Z</time></trkpt><trkpt lat="46.10107189427175" lon="13.536567922897609"><ele>597.6666666666667</ele><time>2026-04-18T14:47:47.998Z</time></trkpt><trkpt lat="46.10103784065539" lon="13.536467029767822"><ele>597.5</ele><time>2026-04-18T14:47:51Z</time></trkpt><trkpt lat="46.10099810831045" lon="13.536372161911663"><ele>597.3333333333334</ele><time>2026-04-18T14:47:54Z</time></trkpt><trkpt lat="46.10095915698861" lon="13.536270284498265"><ele>597.1666666666666</ele><time>2026-04-18T14:47:57Z</time></trkpt><trkpt lat="46.100927855635284" lon="13.536167094808855"><ele>597.0</ele><time>2026-04-18T14:48:00Z</time></trkpt><trkpt lat="46.10091800021202" lon="13.536062345962938"><ele>597.2857142857143</ele><time>2026-04-18T14:48:03Z</time></trkpt><trkpt lat="46.10090165473217" lon="13.535968610915514"><ele>597.5714285714286</ele><time>2026-04-18T14:48:06Z</time></trkpt><trkpt lat="46.1008819624958" lon="13.535874431270145"><ele>597.8571428571429</ele><time>2026-04-18T14:48:09Z</time></trkpt><trkpt lat="46.10088042412945" lon="13.535759046263294"><ele>598.1428571428571</ele><time>2026-04-18T14:48:12Z</time></trkpt><trkpt lat="46.10088774273228" lon="13.535639111036193"><ele>598.4285714285714</ele><time>2026-04-18T14:48:15Z</time></trkpt><trkpt lat="46.100890782018936" lon="13.53552926612197"><ele>598.7142857142858</ele><time>2026-04-18T14:48:18Z</time></trkpt><trkpt lat="46.10088587462654" lon="13.535427429063146"><ele>599.0</ele><time>2026-04-18T14:48:21Z</time></trkpt><trkpt lat="46.100877473157894" lon="13.535316063971967"><ele>599.5</ele><time>2026-04-18T14:48:24Z</time></trkpt><trkpt lat="46.10087894287167" lon="13.535199757956418"><ele>600.0</ele><time>2026-04-18T14:48:27Z</time></trkpt><trkpt lat="46.100896177404856" lon="13.535068880295212"><ele>600.5</ele><time>2026-04-18T14:48:30Z</time></trkpt><trkpt lat="46.10089001103456" lon="13.534978263319172"><ele>601.0</ele><time>2026-04-18T14:48:32Z</time></trkpt><trkpt lat="46.100899199984724" lon="13.534844612941507"><ele>601.5</ele><time>2026-04-18T14:48:34.999Z</time></trkpt><trkpt lat="46.10088789111562" lon="13.53472580350807"><ele>602.0</ele><time>2026-04-18T14:48:37.999Z</time></trkpt><trkpt lat="46.10088961454407" lon="13.534607845260554"><ele>602.6666666666666</ele><time>2026-04-18T14:48:40.999Z</time></trkpt><trkpt lat="46.100877247815546" lon="13.534492457776928"><ele>603.3333333333333</ele><time>2026-04-18T14:48:43.999Z</time></trkpt><trkpt lat="46.10088396786704" lon="13.534401166697956"><ele>604.0</ele><time>2026-04-18T14:48:45.999Z</time></trkpt><trkpt lat="46.10088309234661" lon="13.534285051722504"><ele>604.6666666666666</ele><time>2026-04-18T14:48:48.999Z</time></trkpt><trkpt lat="46.10089198557455" lon="13.53415637144136"><ele>605.3333333333334</ele><time>2026-04-18T14:48:51.999Z</time></trkpt><trkpt lat="46.10089930969416" lon="13.534057013950333"><ele>606.0</ele><time>2026-04-18T14:48:53.999Z</time></trkpt><trkpt lat="46.1009056169228" lon="13.533959132281055"><ele>606.0</ele><time>2026-04-18T14:48:55.999Z</time></trkpt><trkpt lat="46.100914770995146" lon="13.533827037266276"><ele>606.0</ele><time>2026-04-18T14:48:58.999Z</time></trkpt><trkpt lat="46.10092615707422" lon="13.53371688973146"><ele>606.0</ele><time>2026-04-18T14:49:00.999Z</time></trkpt><trkpt lat="46.10094053450822" lon="13.53358799455602"><ele>606.0</ele><time>2026-04-18T14:49:02.999Z</time></trkpt><trkpt lat="46.10095585844793" lon="13.533478230855513"><ele>606.0</ele><time>2026-04-18T14:49:04.999Z</time></trkpt><trkpt lat="46.100974802890654" lon="13.533380820890862"><ele>606.0</ele><time>2026-04-18T14:49:06.999Z</time></trkpt><trkpt lat="46.1009880983838" lon="13.533265028052421"><ele>606.7142857142858</ele><time>2026-04-18T14:49:08.999Z</time></trkpt><trkpt lat="46.10100884656988" lon="13.533151526447641"><ele>607.4285714285714</ele><time>2026-04-18T14:49:10.999Z</time></trkpt><trkpt lat="46.10103647744306" lon="13.53304368916178"><ele>608.1428571428571</ele><time>2026-04-18T14:49:12.999Z</time></trkpt><trkpt lat="46.10104924145638" lon="13.532934331831008"><ele>608.8571428571429</ele><time>2026-04-18T14:49:14.999Z</time></trkpt><trkpt lat="46.10105727025151" lon="13.532831711394612"><ele>609.5714285714286</ele><time>2026-04-18T14:49:16.999Z</time></trkpt><trkpt lat="46.101061713830745" lon="13.532734995366127"><ele>610.2857142857143</ele><time>2026-04-18T14:49:18.999Z</time></trkpt><trkpt lat="46.10106708868266" lon="13.532633895793682"><ele>611.0</ele><time>2026-04-18T14:49:20.999Z</time></trkpt><trkpt lat="46.10106673760025" lon="13.53252564978727"><ele>610.2857142857143</ele><time>2026-04-18T14:49:22.999Z</time></trkpt><trkpt lat="46.10105813061635" lon="13.532426204968303"><ele>609.5714285714286</ele><time>2026-04-18T14:49:24.999Z</time></trkpt><trkpt lat="46.10104062209517" lon="13.532336910475859"><ele>608.8571428571429</ele><time>2026-04-18T14:49:26.998Z</time></trkpt><trkpt lat="46.10101395287785" lon="13.53224169651394"><ele>608.1428571428571</ele><time>2026-04-18T14:49:28.998Z</time></trkpt><trkpt lat="46.10098646993559" lon="13.532156625782118"><ele>607.4285714285714</ele><time>2026-04-18T14:49:30.998Z</time></trkpt><trkpt lat="46.10094405109718" lon="13.532053814419632"><ele>606.7142857142858</ele><time>2026-04-18T14:49:33.998Z</time></trkpt><trkpt lat="46.10088770942148" lon="13.531946868779805"><ele>606.0</ele><time>2026-04-18T14:49:36.998Z</time></trkpt><trkpt lat="46.100822058174145" lon="13.531865650181595"><ele>606.3333333333334</ele><time>2026-04-18T14:49:38.998Z</time></trkpt><trkpt lat="46.10074572357656" lon="13.53181816567135"><ele>606.6666666666666</ele><time>2026-04-18T14:49:40.998Z</time></trkpt><trkpt lat="46.10067878395585" lon="13.531795119778318"><ele>607.0</ele><time>2026-04-18T14:49:42.998Z</time></trkpt><trkpt lat="46.100594153420104" lon="13.53178712045823"><ele>607.3333333333333</ele><time>2026-04-18T14:49:45.998Z</time></trkpt><trkpt lat="46.100505281812296" lon="13.531783802997545"><ele>607.6666666666666</ele><time>2026-04-18T14:49:48.998Z</time></trkpt><trkpt lat="46.100391184430364" lon="13.531753686084885"><ele>608.0</ele><time>2026-04-18T14:49:50.998Z</time></trkpt><trkpt lat="46.10029183773046" lon="13.531708470129288"><ele>608.0</ele><time>2026-04-18T14:49:52.998Z</time></trkpt><trkpt lat="46.10019653127377" lon="13.53166175881901"><ele>608.0</ele><time>2026-04-18T14:49:54.998Z</time></trkpt><trkpt lat="46.100090249400395" lon="13.531607138492062"><ele>608.0</ele><time>2026-04-18T14:49:57Z</time></trkpt><trkpt lat="46.100003925466915" lon="13.531514252353135"><ele>608.0</ele><time>2026-04-18T14:49:59Z</time></trkpt><trkpt lat="46.09993890734906" lon="13.53140370236553"><ele>608.0</ele><time>2026-04-18T14:50:01Z</time></trkpt><trkpt lat="46.09987230082323" lon="13.531301037776903"><ele>607.0</ele><time>2026-04-18T14:50:03Z</time></trkpt><trkpt lat="46.09980888635195" lon="13.531182790088101"><ele>606.0</ele><time>2026-04-18T14:50:05Z</time></trkpt><trkpt lat="46.099709192390314" lon="13.53110447682941"><ele>605.0</ele><time>2026-04-18T14:50:07Z</time></trkpt><trkpt lat="46.099621151997525" lon="13.531017910885199"><ele>604.0</ele><time>2026-04-18T14:50:09Z</time></trkpt><trkpt lat="46.099530853027424" lon="13.53098183475632"><ele>603.0</ele><time>2026-04-18T14:50:11Z</time></trkpt><trkpt lat="46.09947699576389" lon="13.530933631882736"><ele>603.0</ele><time>2026-04-18T14:50:12Z</time></trkpt><trkpt lat="46.099378715351705" lon="13.53086792337605"><ele>603.0</ele><time>2026-04-18T14:50:14Z</time></trkpt><trkpt lat="46.09929925662571" lon="13.530796306489922"><ele>603.0</ele><time>2026-04-18T14:50:16Z</time></trkpt><trkpt lat="46.099248672293804" lon="13.530718144531418"><ele>603.0</ele><time>2026-04-18T14:50:18Z</time></trkpt><trkpt lat="46.09923035884106" lon="13.530619213159362"><ele>603.0</ele><time>2026-04-18T14:50:20Z</time></trkpt><trkpt lat="46.09923372627992" lon="13.53052249479983"><ele>603.0</ele><time>2026-04-18T14:54:34Z</time></trkpt><trkpt lat="46.099242515348465" lon="13.530421762785966"><ele>604.1428571428572</ele><time>2026-04-18T14:54:52Z</time></trkpt><trkpt lat="46.09926681612131" lon="13.530335797504586"><ele>605.2857142857142</ele><time>2026-04-18T14:54:59.999Z</time></trkpt><trkpt lat="46.09932564337567" lon="13.530275920933503"><ele>606.4285714285714</ele><time>2026-04-18T14:55:23.999Z</time></trkpt><trkpt lat="46.099382113907346" lon="13.53020230063143"><ele>607.5714285714287</ele><time>2026-04-18T14:55:39.999Z</time></trkpt><trkpt lat="46.099399910803406" lon="13.530112006902035"><ele>608.7142857142858</ele><time>2026-04-18T14:55:44.998Z</time></trkpt><trkpt lat="46.09942878314569" lon="13.530012113579387"><ele>609.8571428571429</ele><time>2026-04-18T14:55:50.998Z</time></trkpt><trkpt lat="46.09947298371036" lon="13.529902151962869"><ele>611.0</ele><time>2026-04-18T14:55:53.998Z</time></trkpt><trkpt lat="46.09948940104866" lon="13.529800566134977"><ele>611.0000000000001</ele><time>2026-04-18T14:55:57.998Z</time></trkpt><trkpt lat="46.09950702253963" lon="13.529705122642607"><ele>611.0</ele><time>2026-04-18T14:56:01.998Z</time></trkpt><trkpt lat="46.09951121414797" lon="13.529614396830182"><ele>611.0</ele><time>2026-04-18T14:56:06.998Z</time></trkpt><trkpt lat="46.099546042824194" lon="13.52950853328631"><ele>611.0</ele><time>2026-04-18T14:56:10.998Z</time></trkpt><trkpt lat="46.09959507213911" lon="13.529446933290783"><ele>611.0</ele><time>2026-04-18T14:56:12.998Z</time></trkpt><trkpt lat="46.09964037828049" lon="13.529348634322572"><ele>611.0000000000001</ele><time>2026-04-18T14:56:16Z</time></trkpt><trkpt lat="46.09968673307473" lon="13.529264712289839"><ele>611.0</ele><time>2026-04-18T14:56:20Z</time></trkpt><trkpt lat="46.09974105962618" lon="13.529200453443185"><ele>612.0</ele><time>2026-04-18T14:56:23Z</time></trkpt><trkpt lat="46.09981402235184" lon="13.52908823343466"><ele>613.0</ele><time>2026-04-18T14:56:25Z</time></trkpt><trkpt lat="46.09989548257826" lon="13.52900780698204"><ele>614.0</ele><time>2026-04-18T14:56:28Z</time></trkpt><trkpt lat="46.09995016767362" lon="13.528949322907206"><ele>615.0</ele><time>2026-04-18T14:56:31Z</time></trkpt><trkpt lat="46.1000060476877" lon="13.528905921012706"><ele>616.0</ele><time>2026-04-18T14:56:41Z</time></trkpt><trkpt lat="46.1000500056225" lon="13.528795804997005"><ele>617.0</ele><time>2026-04-18T14:57:08.999Z</time></trkpt><trkpt lat="46.10006671169299" lon="13.528692564681"><ele>610.8333333333333</ele><time>2026-04-18T14:57:12.999Z</time></trkpt><trkpt lat="46.10010718150215" lon="13.528584111069232"><ele>604.6666666666666</ele><time>2026-04-18T14:57:20.999Z</time></trkpt><trkpt lat="46.10018755958184" lon="13.528538993023803"><ele>598.5</ele><time>2026-04-18T14:57:23.999Z</time></trkpt><trkpt lat="46.10025354008042" lon="13.528469960031936"><ele>592.3333333333334</ele><time>2026-04-18T14:57:26.999Z</time></trkpt><trkpt lat="46.100326310602945" lon="13.528444737184332"><ele>586.1666666666667</ele><time>2026-04-18T14:57:30.999Z</time></trkpt><trkpt lat="46.100374235039354" lon="13.52834488225589"><ele>580.0</ele><time>2026-04-18T14:57:43.998Z</time></trkpt><trkpt lat="46.10042564462469" lon="13.528283342205633"><ele>580.0</ele><time>2026-04-18T14:57:45.998Z</time></trkpt><trkpt lat="46.10044144556002" lon="13.52815884280424"><ele>580.0</ele><time>2026-04-18T14:57:49.998Z</time></trkpt><trkpt lat="46.100477404042586" lon="13.528058144883666"><ele>580.0</ele><time>2026-04-18T14:57:51.998Z</time></trkpt><trkpt lat="46.10049995353053" lon="13.527960270868551"><ele>580.0</ele><time>2026-04-18T14:57:53.998Z</time></trkpt><trkpt lat="46.10052957036276" lon="13.52786247771767"><ele>580.0</ele><time>2026-04-18T14:57:58.998Z</time></trkpt><trkpt lat="46.10056829077044" lon="13.527784196744378"><ele>580.0</ele><time>2026-04-18T14:58:04.998Z</time></trkpt><trkpt lat="46.10062769058763" lon="13.527728492260403"><ele>580.0</ele><time>2026-04-18T14:58:11.998Z</time></trkpt><trkpt lat="46.10064748631182" lon="13.527631678629147"><ele>582.0</ele><time>2026-04-18T14:58:16.998Z</time></trkpt><trkpt lat="46.10070606324284" lon="13.527541165599716"><ele>584.0</ele><time>2026-04-18T14:58:25Z</time></trkpt><trkpt lat="46.100721116867376" lon="13.527439970317774"><ele>586.0</ele><time>2026-04-18T14:58:33Z</time></trkpt><trkpt lat="46.100753503316206" lon="13.52734536173349"><ele>588.0</ele><time>2026-04-18T14:58:36Z</time></trkpt><trkpt lat="46.10080835874688" lon="13.527286287082244"><ele>590.0</ele><time>2026-04-18T14:58:41Z</time></trkpt><trkpt lat="46.100858408632746" lon="13.52722668770627"><ele>592.0</ele><time>2026-04-18T14:58:46Z</time></trkpt><trkpt lat="46.10092057626013" lon="13.527163476786377"><ele>594.0</ele><time>2026-04-18T14:58:53Z</time></trkpt><trkpt lat="46.10096130256747" lon="13.527074718672"><ele>588.5</ele><time>2026-04-18T14:58:56Z</time></trkpt><trkpt lat="46.10101120571852" lon="13.526970835353408"><ele>583.0</ele><time>2026-04-18T14:58:58.999Z</time></trkpt><trkpt lat="46.10104926745729" lon="13.52688995703361"><ele>577.5</ele><time>2026-04-18T14:59:01.999Z</time></trkpt><trkpt lat="46.10117252248728" lon="13.526844946260027"><ele>572.0</ele><time>2026-04-18T14:59:47.998Z</time></trkpt><trkpt lat="46.10123011150532" lon="13.526905164582212"><ele>566.5</ele><time>2026-04-18T15:00:01.998Z</time></trkpt><trkpt lat="46.10129679061103" lon="13.526861069863433"><ele>561.0</ele><time>2026-04-18T15:00:03.998Z</time></trkpt><trkpt lat="46.10136319910373" lon="13.526796193761482"><ele>561.0</ele><time>2026-04-18T15:00:05.998Z</time></trkpt><trkpt lat="46.101421290153546" lon="13.526703349480574"><ele>561.0</ele><time>2026-04-18T15:00:22.998Z</time></trkpt><trkpt lat="46.10150106242132" lon="13.526623122023624"><ele>561.0</ele><time>2026-04-18T15:00:26Z</time></trkpt><trkpt lat="46.10155026088013" lon="13.526521756882648"><ele>561.0</ele><time>2026-04-18T15:00:28Z</time></trkpt><trkpt lat="46.1016025895555" lon="13.526433330662254"><ele>561.0</ele><time>2026-04-18T15:00:30Z</time></trkpt><trkpt lat="46.10165241099413" lon="13.526353421628436"><ele>561.0</ele><time>2026-04-18T15:00:33Z</time></trkpt><trkpt lat="46.10170295657325" lon="13.526268623375254"><ele>557.8571428571429</ele><time>2026-04-18T15:00:37Z</time></trkpt><trkpt lat="46.101740316046794" lon="13.526181925286071"><ele>554.7142857142857</ele><time>2026-04-18T15:00:39Z</time></trkpt><trkpt lat="46.101785139896855" lon="13.526081322521298"><ele>551.5714285714286</ele><time>2026-04-18T15:00:41Z</time></trkpt><trkpt lat="46.10182322967818" lon="13.52600649895984"><ele>548.4285714285714</ele><time>2026-04-18T15:00:43Z</time></trkpt><trkpt lat="46.101852372152656" lon="13.525923986854194"><ele>545.2857142857142</ele><time>2026-04-18T15:00:45Z</time></trkpt><trkpt lat="46.101912809218135" lon="13.525866025799115"><ele>542.1428571428571</ele><time>2026-04-18T15:00:49Z</time></trkpt><trkpt lat="46.10183134848185" lon="13.525857262047245"><ele>539.0</ele><time>2026-04-18T15:01:05.999Z</time></trkpt><trkpt lat="46.101767749616805" lon="13.52587607429658"><ele>539.0</ele><time>2026-04-18T15:01:07.999Z</time></trkpt><trkpt lat="46.10173752523659" lon="13.526001895034383"><ele>539.0</ele><time>2026-04-18T15:01:09.999Z</time></trkpt><trkpt lat="46.10166960231568" lon="13.526087694997173"><ele>539.0</ele><time>2026-04-18T15:01:13.999Z</time></trkpt><trkpt lat="46.101659398267145" lon="13.526190815250528"><ele>539.0</ele><time>2026-04-18T15:01:24.999Z</time></trkpt><trkpt lat="46.10160551541442" lon="13.526261924558629"><ele>539.0</ele><time>2026-04-18T15:01:28.999Z</time></trkpt><trkpt lat="46.101586662925676" lon="13.526364109156154"><ele>539.0</ele><time>2026-04-18T15:01:31.999Z</time></trkpt><trkpt lat="46.101523592413095" lon="13.526484892196677"><ele>542.1428571428571</ele><time>2026-04-18T15:01:35.999Z</time></trkpt><trkpt lat="46.101470640186825" lon="13.526552350562136"><ele>545.2857142857142</ele><time>2026-04-18T15:01:38.999Z</time></trkpt><trkpt lat="46.10139743591508" lon="13.526593194118439"><ele>548.4285714285714</ele><time>2026-04-18T15:01:41.999Z</time></trkpt><trkpt lat="46.10134944113548" lon="13.526685906603229"><ele>551.5714285714286</ele><time>2026-04-18T15:01:45.999Z</time></trkpt><trkpt lat="46.1013111201933" lon="13.52676021685677"><ele>554.7142857142857</ele><time>2026-04-18T15:01:48.999Z</time></trkpt><trkpt lat="46.10124943741515" lon="13.526803417272067"><ele>557.8571428571429</ele><time>2026-04-18T15:01:51.998Z</time></trkpt><trkpt lat="46.10119336054375" lon="13.52688431630954"><ele>561.0</ele><time>2026-04-18T15:01:55.998Z</time></trkpt><trkpt lat="46.10114739739552" lon="13.526984319968763"><ele>558.3333333333334</ele><time>2026-04-18T15:01:58.998Z</time></trkpt><trkpt lat="46.101123552248126" lon="13.527079761574672"><ele>555.6666666666666</ele><time>2026-04-18T15:02:01.998Z</time></trkpt><trkpt lat="46.101053123157364" lon="13.527197979998682"><ele>553.0</ele><time>2026-04-18T15:02:13.998Z</time></trkpt><trkpt lat="46.10100450845343" lon="13.52727366870304"><ele>550.3333333333333</ele><time>2026-04-18T15:02:17.998Z</time></trkpt><trkpt lat="46.10093181177456" lon="13.527305494671253"><ele>547.6666666666666</ele><time>2026-04-18T15:02:19.998Z</time></trkpt><trkpt lat="46.10086928105651" lon="13.52735038513151"><ele>545.0</ele><time>2026-04-18T15:02:22.998Z</time></trkpt><trkpt lat="46.10080408776678" lon="13.527334345202526"><ele>545.0</ele><time>2026-04-18T15:02:26.998Z</time></trkpt><trkpt lat="46.10078237814799" lon="13.52743095114619"><ele>545.0</ele><time>2026-04-18T15:02:30.998Z</time></trkpt><trkpt lat="46.10079839401366" lon="13.527550901664807"><ele>545.0</ele><time>2026-04-18T15:02:37Z</time></trkpt><trkpt lat="46.10081753546564" lon="13.52767102516545"><ele>545.0</ele><time>2026-04-18T15:02:45Z</time></trkpt><trkpt lat="46.100850549577665" lon="13.52776988498124"><ele>545.0</ele><time>2026-04-18T15:02:49Z</time></trkpt><trkpt lat="46.100871645244666" lon="13.527903094335732"><ele>545.0</ele><time>2026-04-18T15:02:59Z</time></trkpt><trkpt lat="46.10087667546719" lon="13.528005989687985"><ele>543.3333333333333</ele><time>2026-04-18T15:03:01Z</time></trkpt><trkpt lat="46.10090470578217" lon="13.52814319028953"><ele>541.6666666666666</ele><time>2026-04-18T15:03:03Z</time></trkpt><trkpt lat="46.10087964136657" lon="13.528271486212951"><ele>540.0</ele><time>2026-04-18T15:03:06Z</time></trkpt><trkpt lat="46.100871611241345" lon="13.528364564161757"><ele>538.3333333333334</ele><time>2026-04-18T15:03:08Z</time></trkpt><trkpt lat="46.100884722381124" lon="13.528506375046197"><ele>536.6666666666667</ele><time>2026-04-18T15:03:12.999Z</time></trkpt><trkpt lat="46.10088177478819" lon="13.52861861237364"><ele>535.0</ele><time>2026-04-18T15:03:14.999Z</time></trkpt><trkpt lat="46.100906565300434" lon="13.528718885178662"><ele>534.4285714285714</ele><time>2026-04-18T15:03:16.999Z</time></trkpt><trkpt lat="46.10093840720307" lon="13.528821542452178"><ele>533.8571428571429</ele><time>2026-04-18T15:03:26.999Z</time></trkpt><trkpt lat="46.10091419700105" lon="13.528912210760362"><ele>533.2857142857143</ele><time>2026-04-18T15:03:31.999Z</time></trkpt><trkpt lat="46.10087675904444" lon="13.529016049955242"><ele>532.7142857142858</ele><time>2026-04-18T15:03:44.999Z</time></trkpt><trkpt lat="46.10086048841062" lon="13.529103932939616"><ele>532.1428571428572</ele><time>2026-04-18T15:03:50.999Z</time></trkpt><trkpt lat="46.10089740657985" lon="13.529205121116627"><ele>531.5714285714286</ele><time>2026-04-18T15:03:57.999Z</time></trkpt><trkpt lat="46.100931291453165" lon="13.529287817084837"><ele>531.0</ele><time>2026-04-18T15:04:02.998Z</time></trkpt><trkpt lat="46.10094942207061" lon="13.529403516589179"><ele>531.0</ele><time>2026-04-18T15:04:05.998Z</time></trkpt><trkpt lat="46.100963751906626" lon="13.529497130385407"><ele>531.0</ele><time>2026-04-18T15:04:07.998Z</time></trkpt><trkpt lat="46.101035843262245" lon="13.529561383320551"><ele>531.0</ele><time>2026-04-18T15:04:09.998Z</time></trkpt><trkpt lat="46.101084586679335" lon="13.529626450454076"><ele>531.0</ele><time>2026-04-18T15:04:21.998Z</time></trkpt><trkpt lat="46.1011441732551" lon="13.529488623135762"><ele>531.0</ele><time>2026-04-18T15:04:34.998Z</time></trkpt><trkpt lat="46.101147227693026" lon="13.529386996583801"><ele>531.0</ele><time>2026-04-18T15:04:35.998Z</time></trkpt><trkpt lat="46.10109014616467" lon="13.529292487839763"><ele>531.0</ele><time>2026-04-18T15:04:40Z</time></trkpt><trkpt lat="46.101155109356995" lon="13.529283353172492"><ele>531.0</ele><time>2026-04-18T15:04:48Z</time></trkpt><trkpt lat="46.101229521378976" lon="13.52928755916715"><ele>531.0</ele><time>2026-04-18T15:04:54Z</time></trkpt><trkpt lat="46.101256401636036" lon="13.529204320732468"><ele>531.0</ele><time>2026-04-18T15:04:56Z</time></trkpt><trkpt lat="46.10129019946537" lon="13.52911640523112"><ele>531.0</ele><time>2026-04-18T15:05:00Z</time></trkpt><trkpt lat="46.101385886352205" lon="13.529126057159777"><ele>531.0</ele><time>2026-04-18T15:05:04Z</time></trkpt><trkpt lat="46.101425272587704" lon="13.529047273618653"><ele>531.0</ele><time>2026-04-18T15:05:10Z</time></trkpt><trkpt lat="46.101483032929664" lon="13.529001529028966"><ele>531.0</ele><time>2026-04-18T15:05:18.999Z</time></trkpt><trkpt lat="46.10145902210407" lon="13.528842286032043"><ele>531.0</ele><time>2026-04-18T15:05:35.999Z</time></trkpt><trkpt lat="46.10158726341562" lon="13.528841696670732"><ele>531.0</ele><time>2026-04-18T15:05:45.999Z</time></trkpt><trkpt lat="46.10164165560973" lon="13.528775122660038"><ele>531.0</ele><time>2026-04-18T15:05:47.999Z</time></trkpt><trkpt lat="46.101709641351384" lon="13.528700023900653"><ele>531.0</ele><time>2026-04-18T15:05:51.999Z</time></trkpt><trkpt lat="46.10178591701359" lon="13.528668603315278"><ele>524.8333333333334</ele><time>2026-04-18T15:05:57.999Z</time></trkpt><trkpt lat="46.10182706431304" lon="13.528524197453946"><ele>518.6666666666666</ele><time>2026-04-18T15:06:02.999Z</time></trkpt><trkpt lat="46.10190311046966" lon="13.528445407176873"><ele>512.5</ele><time>2026-04-18T15:06:09.998Z</time></trkpt><trkpt lat="46.101949163232696" lon="13.528512414864558"><ele>506.3333333333333</ele><time>2026-04-18T15:06:10.998Z</time></trkpt><trkpt lat="46.101971151615565" lon="13.528399739648135"><ele>500.16666666666663</ele><time>2026-04-18T15:06:13.998Z</time></trkpt><trkpt lat="46.10203123099273" lon="13.528427746847385"><ele>494.0</ele><time>2026-04-18T15:06:18.998Z</time></trkpt><trkpt lat="46.10206086258877" lon="13.528326442176693"><ele>493.99999999999994</ele><time>2026-04-18T15:06:25.998Z</time></trkpt><trkpt lat="46.10212389897272" lon="13.52824723033296"><ele>494.0</ele><time>2026-04-18T15:06:32.998Z</time></trkpt><trkpt lat="46.10218778402899" lon="13.528161531018583"><ele>494.0</ele><time>2026-04-18T15:06:38.998Z</time></trkpt><trkpt lat="46.10225129499248" lon="13.528123338842889"><ele>494.0</ele><time>2026-04-18T15:06:47Z</time></trkpt><trkpt lat="46.10233671752866" lon="13.528093765793715"><ele>493.99999999999994</ele><time>2026-04-18T15:06:51Z</time></trkpt><trkpt lat="46.10240457253737" lon="13.52802640219417"><ele>494.0</ele><time>2026-04-18T15:06:55Z</time></trkpt><trkpt lat="46.10247548586067" lon="13.527991590903296"><ele>487.8333333333333</ele><time>2026-04-18T15:06:57Z</time></trkpt><trkpt lat="46.1025611274742" lon="13.527990172299347"><ele>481.66666666666663</ele><time>2026-04-18T15:07:02Z</time></trkpt><trkpt lat="46.10261833358193" lon="13.528042553383687"><ele>475.5</ele><time>2026-04-18T15:07:06Z</time></trkpt><trkpt lat="46.10269192161162" lon="13.52803655699265"><ele>469.33333333333337</ele><time>2026-04-18T15:07:08Z</time></trkpt><trkpt lat="46.10275920021315" lon="13.527982523738908"><ele>463.1666666666667</ele><time>2026-04-18T15:07:10Z</time></trkpt><trkpt lat="46.10285736247" lon="13.527865933483918"><ele>457.0</ele><time>2026-04-18T15:07:15Z</time></trkpt><trkpt lat="46.10290293768133" lon="13.527738031993058"><ele>457.00000000000006</ele><time>2026-04-18T15:07:16Z</time></trkpt><trkpt lat="46.10296611514092" lon="13.52765646198781"><ele>457.0</ele><time>2026-04-18T15:07:19Z</time></trkpt><trkpt lat="46.10302289147944" lon="13.52755237833413"><ele>457.0</ele><time>2026-04-18T15:07:21Z</time></trkpt><trkpt lat="46.10304011097155" lon="13.527441516490113"><ele>457.0</ele><time>2026-04-18T15:07:23.999Z</time></trkpt><trkpt lat="46.103086284369496" lon="13.527332889361944"><ele>457.00000000000006</ele><time>2026-04-18T15:07:37.999Z</time></trkpt><trkpt lat="46.103157274483785" lon="13.527321226896463"><ele>457.0</ele><time>2026-04-18T15:08:10.999Z</time></trkpt><trkpt lat="46.10318338403261" lon="13.527208241810238"><ele>457.00000000000006</ele><time>2026-04-18T15:08:17.998Z</time></trkpt><trkpt lat="46.1031705326301" lon="13.527375789851432"><ele>457.0</ele><time>2026-04-18T15:08:23.998Z</time></trkpt><trkpt lat="46.1031875869936" lon="13.52728182227447"><ele>457.0</ele><time>2026-04-18T15:08:37.998Z</time></trkpt><trkpt lat="46.10315103019467" lon="13.527374872047778"><ele>457.0</ele><time>2026-04-18T15:09:04Z</time></trkpt><trkpt lat="46.10321269716668" lon="13.52731461190981"><ele>457.00000000000006</ele><time>2026-04-18T15:09:56.999Z</time></trkpt><trkpt lat="46.10314075703324" lon="13.527313647784238"><ele>457.0</ele><time>2026-04-18T15:10:22.998Z</time></trkpt><trkpt lat="46.103063842051704" lon="13.527254532317139"><ele>457.00000000000006</ele><time>2026-04-18T15:10:28.998Z</time></trkpt><trkpt lat="46.103093466658216" lon="13.52734547420351"><ele>457.0</ele><time>2026-04-18T15:10:58Z</time></trkpt><trkpt lat="46.10308531621297" lon="13.527489888395195"><ele>457.0</ele><time>2026-04-18T15:11:03Z</time></trkpt><trkpt lat="46.1031044929544" lon="13.527587965940395"><ele>457.0</ele><time>2026-04-18T15:11:05Z</time></trkpt><trkpt lat="46.10306738621538" lon="13.527722107166781"><ele>457.00000000000006</ele><time>2026-04-18T15:11:12Z</time></trkpt><trkpt lat="46.10306407863924" lon="13.527813985138652"><ele>457.0</ele><time>2026-04-18T15:11:14Z</time></trkpt><trkpt lat="46.10309809619561" lon="13.52791687471988"><ele>456.6666666666667</ele><time>2026-04-18T15:11:28Z</time></trkpt><trkpt lat="46.10316876093161" lon="13.527967738383722"><ele>456.33333333333337</ele><time>2026-04-18T15:11:52.999Z</time></trkpt><trkpt lat="46.103235688182224" lon="13.52792390561091"><ele>456.0</ele><time>2026-04-18T15:11:56.999Z</time></trkpt><trkpt lat="46.103318790920575" lon="13.527930320278418"><ele>455.66666666666663</ele><time>2026-04-18T15:11:59.999Z</time></trkpt><trkpt lat="46.103396998325195" lon="13.527929919943777"><ele>455.3333333333333</ele><time>2026-04-18T15:12:02.999Z</time></trkpt><trkpt lat="46.10347147352435" lon="13.527936542965193"><ele>455.0</ele><time>2026-04-18T15:12:04.999Z</time></trkpt><trkpt lat="46.103550158064635" lon="13.527939815322245"><ele>453.2857142857143</ele><time>2026-04-18T15:12:06.999Z</time></trkpt><trkpt lat="46.103613106072864" lon="13.527958972417101"><ele>451.57142857142856</ele><time>2026-04-18T15:12:08.999Z</time></trkpt><trkpt lat="46.103685885028035" lon="13.527972197495915"><ele>449.8571428571429</ele><time>2026-04-18T15:12:10.999Z</time></trkpt><trkpt lat="46.10376592405707" lon="13.527967814411742"><ele>448.1428571428571</ele><time>2026-04-18T15:12:12.999Z</time></trkpt><trkpt lat="46.103844852255676" lon="13.527972915458086"><ele>446.42857142857144</ele><time>2026-04-18T15:12:14.999Z</time></trkpt><trkpt lat="46.10391239461031" lon="13.527983748529879"><ele>444.7142857142857</ele><time>2026-04-18T15:12:17.999Z</time></trkpt><trkpt lat="46.103957601476154" lon="13.528057017877826"><ele>443.0</ele><time>2026-04-18T15:12:29.998Z</time></trkpt><trkpt lat="46.104041270723016" lon="13.528047699993971"><ele>440.99999999999994</ele><time>2026-04-18T15:12:39.998Z</time></trkpt><trkpt lat="46.10410509314709" lon="13.528015227255946"><ele>439.0</ele><time>2026-04-18T15:12:44.998Z</time></trkpt><trkpt lat="46.10417280566224" lon="13.527956693602592"><ele>437.0</ele><time>2026-04-18T15:12:54.998Z</time></trkpt><trkpt lat="46.10424087293776" lon="13.527893506186333"><ele>435.0</ele><time>2026-04-18T15:13:00.998Z</time></trkpt><trkpt lat="46.10429750260319" lon="13.527828673500222"><ele>432.99999999999994</ele><time>2026-04-18T15:13:05Z</time></trkpt><trkpt lat="46.104360272301264" lon="13.52779838148557"><ele>431.0</ele><time>2026-04-18T15:13:07Z</time></trkpt><trkpt lat="46.10444270976467" lon="13.527709118165415"><ele>425.99999999999994</ele><time>2026-04-18T15:13:10Z</time></trkpt><trkpt lat="46.10451482031389" lon="13.527673440704294"><ele>421.0</ele><time>2026-04-18T15:13:12Z</time></trkpt><trkpt lat="46.10458673332416" lon="13.527637512694193"><ele>416.0</ele><time>2026-04-18T15:13:15Z</time></trkpt><trkpt lat="46.10464807801207" lon="13.527575439017786"><ele>411.0</ele><time>2026-04-18T15:13:17Z</time></trkpt><trkpt lat="46.10473635099245" lon="13.527577743632197"><ele>405.99999999999994</ele><time>2026-04-18T15:13:19Z</time></trkpt><trkpt lat="46.104806032844394" lon="13.52759231562738"><ele>401.0</ele><time>2026-04-18T15:13:20Z</time></trkpt><trkpt lat="46.10487379310885" lon="13.527602041987118"><ele>399.99999999999994</ele><time>2026-04-18T15:13:21Z</time></trkpt><trkpt lat="46.10494650087654" lon="13.52760412933185"><ele>399.0</ele><time>2026-04-18T15:13:23Z</time></trkpt><trkpt lat="46.10501968588008" lon="13.52760427270276"><ele>398.0</ele><time>2026-04-18T15:13:25Z</time></trkpt><trkpt lat="46.10510317815796" lon="13.52758620170912"><ele>397.0</ele><time>2026-04-18T15:13:28Z</time></trkpt><trkpt lat="46.10519536625763" lon="13.527578848404234"><ele>395.99999999999994</ele><time>2026-04-18T15:13:31Z</time></trkpt><trkpt lat="46.10527732787073" lon="13.52755338659412"><ele>395.0</ele><time>2026-04-18T15:13:33Z</time></trkpt><trkpt lat="46.10535991716567" lon="13.527516260840796"><ele>395.0</ele><time>2026-04-18T15:13:35Z</time></trkpt><trkpt lat="46.10545003646886" lon="13.52754345500859"><ele>395.0</ele><time>2026-04-18T15:13:37Z</time></trkpt><trkpt lat="46.10551804110508" lon="13.52753182138524"><ele>395.0</ele><time>2026-04-18T15:13:39Z</time></trkpt><trkpt lat="46.105574389176994" lon="13.527589777237388"><ele>395.0</ele><time>2026-04-18T15:13:40.999Z</time></trkpt><trkpt lat="46.105639492091484" lon="13.527624006272589"><ele>395.0</ele><time>2026-04-18T15:13:42.999Z</time></trkpt><trkpt lat="46.10569328896596" lon="13.527672166463903"><ele>395.0</ele><time>2026-04-18T15:13:45.999Z</time></trkpt><trkpt lat="46.10575085225045" lon="13.527719011285843"><ele>395.0</ele><time>2026-04-18T15:13:47.999Z</time></trkpt><trkpt lat="46.105803071061935" lon="13.52778222120992"><ele>394.2</ele><time>2026-04-18T15:13:49.999Z</time></trkpt><trkpt lat="46.10588602177641" lon="13.527818227953059"><ele>393.4</ele><time>2026-04-18T15:13:51.999Z</time></trkpt><trkpt lat="46.105972400011694" lon="13.527854683735756"><ele>392.6</ele><time>2026-04-18T15:13:54.999Z</time></trkpt><trkpt lat="46.10605530330354" lon="13.527879208838073"><ele>391.8</ele><time>2026-04-18T15:13:57.999Z</time></trkpt><trkpt lat="46.10611693786418" lon="13.52799775621793"><ele>391.0</ele><time>2026-04-18T15:14:00.999Z</time></trkpt><trkpt lat="46.10619302379067" lon="13.528064613793482"><ele>394.6</ele><time>2026-04-18T15:14:02.999Z</time></trkpt><trkpt lat="46.106291665728136" lon="13.528129136290731"><ele>398.20000000000005</ele><time>2026-04-18T15:14:04.999Z</time></trkpt><trkpt lat="46.106351634366746" lon="13.528199928916258"><ele>401.79999999999995</ele><time>2026-04-18T15:14:06.999Z</time></trkpt><trkpt lat="46.106369755524135" lon="13.52835547540202"><ele>405.4</ele><time>2026-04-18T15:14:19.999Z</time></trkpt><trkpt lat="46.10639273771191" lon="13.528266422786787"><ele>409.0</ele><time>2026-04-18T15:14:22.999Z</time></trkpt><trkpt lat="46.10638625337507" lon="13.52810782176013"><ele>409.00000000000006</ele><time>2026-04-18T15:14:25.999Z</time></trkpt><trkpt lat="46.10642945983479" lon="13.5279754500047"><ele>409.0</ele><time>2026-04-18T15:14:27.999Z</time></trkpt><trkpt lat="46.10649520000507" lon="13.527860190137785"><ele>409.0</ele><time>2026-04-18T15:14:30.999Z</time></trkpt><trkpt lat="46.10656733018294" lon="13.527784502026806"><ele>409.0</ele><time>2026-04-18T15:14:32.998Z</time></trkpt><trkpt lat="46.10663798915786" lon="13.527746612105345"><ele>409.00000000000006</ele><time>2026-04-18T15:14:36.998Z</time></trkpt><trkpt lat="46.106703020755" lon="13.52770560230788"><ele>409.0</ele><time>2026-04-18T15:14:39.998Z</time></trkpt><trkpt lat="46.1067700722698" lon="13.52763025179008"><ele>402.85714285714283</ele><time>2026-04-18T15:14:43.998Z</time></trkpt><trkpt lat="46.10685262214828" lon="13.527588850656521"><ele>396.7142857142857</ele><time>2026-04-18T15:14:47.998Z</time></trkpt><trkpt lat="46.10692041747022" lon="13.527573784371548"><ele>390.57142857142856</ele><time>2026-04-18T15:14:50.998Z</time></trkpt><trkpt lat="46.10699339314095" lon="13.527567854763562"><ele>384.42857142857144</ele><time>2026-04-18T15:14:57.998Z</time></trkpt><trkpt lat="46.10705869845584" lon="13.527578770031615"><ele>378.28571428571433</ele><time>2026-04-18T15:15:04.998Z</time></trkpt><trkpt lat="46.107118682234216" lon="13.527618082684077"><ele>372.14285714285717</ele><time>2026-04-18T15:15:16Z</time></trkpt><trkpt lat="46.10715200006795" lon="13.52770035161215"><ele>366.0</ele><time>2026-04-18T15:15:23Z</time></trkpt><trkpt lat="46.10718229071188" lon="13.527612880836307"><ele>366.0</ele><time>2026-04-18T15:15:39Z</time></trkpt><trkpt lat="46.10723437691607" lon="13.52749482831148"><ele>366.0</ele><time>2026-04-18T15:15:47.999Z</time></trkpt><trkpt lat="46.10721593823723" lon="13.527584307395017"><ele>366.0</ele><time>2026-04-18T15:15:54.999Z</time></trkpt><trkpt lat="46.107260798429664" lon="13.527507519662151"><ele>366.0</ele><time>2026-04-18T15:16:16.999Z</time></trkpt><trkpt lat="46.107304000832634" lon="13.527436479235192"><ele>366.0</ele><time>2026-04-18T15:16:43.998Z</time></trkpt><trkpt lat="46.10732966718207" lon="13.527350708561077"><ele>366.0</ele><time>2026-04-18T15:16:50.998Z</time></trkpt><trkpt lat="46.10738181880031" lon="13.527291171204638"><ele>366.0</ele><time>2026-04-18T15:17:01.998Z</time></trkpt><trkpt lat="46.10740828236229" lon="13.527200034721998"><ele>366.0</ele><time>2026-04-18T15:17:11.998Z</time></trkpt><trkpt lat="46.10738230346901" lon="13.527099455303649"><ele>366.0</ele><time>2026-04-18T15:17:20Z</time></trkpt><trkpt lat="46.107454387237794" lon="13.527089269108435"><ele>366.0</ele><time>2026-04-18T15:17:38Z</time></trkpt><trkpt lat="46.107511862887776" lon="13.527051468075365"><ele>366.0</ele><time>2026-04-18T15:17:41Z</time></trkpt><trkpt lat="46.10755976647134" lon="13.526970452956002"><ele>366.0</ele><time>2026-04-18T15:17:44Z</time></trkpt><trkpt lat="46.10760905176291" lon="13.526911187931008"><ele>366.0</ele><time>2026-04-18T15:17:46.999Z</time></trkpt><trkpt lat="46.10764482150921" lon="13.526835098505238"><ele>366.0</ele><time>2026-04-18T15:17:47.999Z</time></trkpt><trkpt lat="46.107742805529845" lon="13.526824744490671"><ele>359.0</ele><time>2026-04-18T15:17:50.999Z</time></trkpt><trkpt lat="46.10780071571883" lon="13.526733909214183"><ele>352.0</ele><time>2026-04-18T15:17:59.999Z</time></trkpt><trkpt lat="46.10787617614109" lon="13.526745292894772"><ele>345.0</ele><time>2026-04-18T15:18:12.999Z</time></trkpt><trkpt lat="46.10794467709953" lon="13.526790017885432"><ele>338.0</ele><time>2026-04-18T15:18:15.999Z</time></trkpt><trkpt lat="46.10803732215194" lon="13.526811771483809"><ele>331.0</ele><time>2026-04-18T15:18:24.999Z</time></trkpt><trkpt lat="46.10809358822024" lon="13.526894488455024"><ele>324.0</ele><time>2026-04-18T15:18:51.998Z</time></trkpt><trkpt lat="46.10816356776921" lon="13.5268805991904"><ele>323.5</ele><time>2026-04-18T15:18:56.998Z</time></trkpt><trkpt lat="46.10824579801484" lon="13.526860736846832"><ele>323.0</ele><time>2026-04-18T15:18:58.998Z</time></trkpt><trkpt lat="46.10830145115953" lon="13.52692570390593"><ele>322.5</ele><time>2026-04-18T15:19:02.998Z</time></trkpt><trkpt lat="46.10837368873665" lon="13.526966837855507"><ele>322.0</ele><time>2026-04-18T15:19:07.998Z</time></trkpt><trkpt lat="46.10847142957925" lon="13.526974161988857"><ele>321.5</ele><time>2026-04-18T15:19:12.998Z</time></trkpt><trkpt lat="46.10854643221659" lon="13.526958514683812"><ele>321.0</ele><time>2026-04-18T15:19:15.998Z</time></trkpt><trkpt lat="46.10862270910926" lon="13.526934063901958"><ele>320.99999999999994</ele><time>2026-04-18T15:19:17.998Z</time></trkpt><trkpt lat="46.108668335441955" lon="13.526865387075947"><ele>321.0</ele><time>2026-04-18T15:19:20Z</time></trkpt><trkpt lat="46.108703463051924" lon="13.526771791493779"><ele>321.0</ele><time>2026-04-18T15:19:23Z</time></trkpt><trkpt lat="46.108792142441104" lon="13.52671502682714"><ele>321.0</ele><time>2026-04-18T15:19:28Z</time></trkpt><trkpt lat="46.10884683569584" lon="13.526669691718357"><ele>321.0</ele><time>2026-04-18T15:19:31Z</time></trkpt><trkpt lat="46.10891362782183" lon="13.526627231534574"><ele>320.99999999999994</ele><time>2026-04-18T15:19:34Z</time></trkpt><trkpt lat="46.108986823394815" lon="13.526594677034652"><ele>321.0</ele><time>2026-04-18T15:19:39Z</time></trkpt><trkpt lat="46.109041321634244" lon="13.526647517236745"><ele>317.2857142857143</ele><time>2026-04-18T15:19:42Z</time></trkpt><trkpt lat="46.10909999964064" lon="13.526707666416655"><ele>313.57142857142856</ele><time>2026-04-18T15:19:44Z</time></trkpt><trkpt lat="46.10917326195677" lon="13.526707319226949"><ele>309.8571428571429</ele><time>2026-04-18T15:19:47Z</time></trkpt><trkpt lat="46.10921073254968" lon="13.526621967658732"><ele>306.1428571428571</ele><time>2026-04-18T15:20:05.999Z</time></trkpt><trkpt lat="46.10927583365897" lon="13.526573156149881"><ele>302.42857142857144</ele><time>2026-04-18T15:20:08.999Z</time></trkpt><trkpt lat="46.10934370680562" lon="13.526613550496947"><ele>298.7142857142857</ele><time>2026-04-18T15:20:21.999Z</time></trkpt><trkpt lat="46.109409646307846" lon="13.526574209840494"><ele>295.0</ele><time>2026-04-18T15:20:34.999Z</time></trkpt><trkpt lat="46.10949906986308" lon="13.526558999551483"><ele>295.00000000000006</ele><time>2026-04-18T15:20:40.999Z</time></trkpt><trkpt lat="46.109560927331074" lon="13.526483805890699"><ele>295.0</ele><time>2026-04-18T15:20:42.999Z</time></trkpt><trkpt lat="46.109599309832845" lon="13.526407079945951"><ele>295.0</ele><time>2026-04-18T15:20:43.999Z</time></trkpt><trkpt lat="46.10966309797459" lon="13.52637320198505"><ele>295.0</ele><time>2026-04-18T15:20:48.999Z</time></trkpt><trkpt lat="46.10972476187617" lon="13.526333714313147"><ele>295.0</ele><time>2026-04-18T15:20:59.998Z</time></trkpt><trkpt lat="46.109791338436274" lon="13.526329432840148"><ele>295.00000000000006</ele><time>2026-04-18T15:21:05.998Z</time></trkpt><trkpt lat="46.10985022303982" lon="13.52636820240613"><ele>295.0</ele><time>2026-04-18T15:21:50Z</time></trkpt><trkpt lat="46.109919301918154" lon="13.52629358811124"><ele>289.7142857142857</ele><time>2026-04-18T15:21:58Z</time></trkpt><trkpt lat="46.10998628926893" lon="13.526269557373263"><ele>284.42857142857144</ele><time>2026-04-18T15:22:04.999Z</time></trkpt><trkpt lat="46.11005400371502" lon="13.526264252447131"><ele>279.1428571428571</ele><time>2026-04-18T15:22:15.999Z</time></trkpt><trkpt lat="46.11012056787449" lon="13.526220608148003"><ele>273.8571428571429</ele><time>2026-04-18T15:22:18.999Z</time></trkpt><trkpt lat="46.11018641075751" lon="13.526179548122398"><ele>268.57142857142856</ele><time>2026-04-18T15:22:25.999Z</time></trkpt><trkpt lat="46.11024810205386" lon="13.526123472623485"><ele>263.2857142857143</ele><time>2026-04-18T15:22:33.999Z</time></trkpt><trkpt lat="46.110310775823535" lon="13.52605649851608"><ele>258.0</ele><time>2026-04-18T15:22:36.999Z</time></trkpt><trkpt lat="46.11043327223177" lon="13.526059610336635"><ele>257.99999999999994</ele><time>2026-04-18T15:22:54.999Z</time></trkpt><trkpt lat="46.11044877820063" lon="13.526160322709009"><ele>258.0</ele><time>2026-04-18T15:23:10.998Z</time></trkpt><trkpt lat="46.11048637476533" lon="13.526243039771067"><ele>258.0</ele><time>2026-04-18T15:23:13.998Z</time></trkpt><trkpt lat="46.1104760729163" lon="13.526340386264357"><ele>258.0</ele><time>2026-04-18T15:23:17.998Z</time></trkpt><trkpt lat="46.110541442940864" lon="13.526397048148135"><ele>258.0</ele><time>2026-04-18T15:23:19.998Z</time></trkpt><trkpt lat="46.11062550674934" lon="13.526394016313139"><ele>257.99999999999994</ele><time>2026-04-18T15:23:26.998Z</time></trkpt><trkpt lat="46.110635048343426" lon="13.52629762314557"><ele>258.0</ele><time>2026-04-18T15:23:29.998Z</time></trkpt><trkpt lat="46.11066831075244" lon="13.526216344221062"><ele>257.0</ele><time>2026-04-18T15:23:39Z</time></trkpt><trkpt lat="46.11073548713369" lon="13.52613712198832"><ele>256.0</ele><time>2026-04-18T15:23:44Z</time></trkpt><trkpt lat="46.11079913874476" lon="13.526070782092251"><ele>255.0</ele><time>2026-04-18T15:23:46Z</time></trkpt><trkpt lat="46.11086578008167" lon="13.525971967907317"><ele>254.0</ele><time>2026-04-18T15:23:48Z</time></trkpt><trkpt lat="46.110953171117735" lon="13.525877177170274"><ele>253.0</ele><time>2026-04-18T15:23:51Z</time></trkpt><trkpt lat="46.11105097341415" lon="13.525822779241517"><ele>249.33333333333331</ele><time>2026-04-18T15:23:54Z</time></trkpt><trkpt lat="46.11114315392573" lon="13.525831501974563"><ele>245.66666666666666</ele><time>2026-04-18T15:23:57Z</time></trkpt><trkpt lat="46.11116904923384" lon="13.525734242172872"><ele>242.0</ele><time>2026-04-18T15:24:01Z</time></trkpt><trkpt lat="46.11116229380786" lon="13.5256366221905"><ele>238.33333333333331</ele><time>2026-04-18T15:24:03Z</time></trkpt><trkpt lat="46.111220886491644" lon="13.525578140675275"><ele>234.66666666666666</ele><time>2026-04-18T15:24:06Z</time></trkpt><trkpt lat="46.11128911957557" lon="13.525502664776411"><ele>231.0</ele><time>2026-04-18T15:24:09Z</time></trkpt><trkpt lat="46.111358395815486" lon="13.525467075008867"><ele>231.0</ele><time>2026-04-18T15:24:12.999Z</time></trkpt><trkpt lat="46.11142190593642" lon="13.525468630047909"><ele>231.0</ele><time>2026-04-18T15:24:20.999Z</time></trkpt><trkpt lat="46.111446689104305" lon="13.525326776551697"><ele>231.0</ele><time>2026-04-18T15:24:33.999Z</time></trkpt><trkpt lat="46.11154833035315" lon="13.52531145817734"><ele>231.0</ele><time>2026-04-18T15:24:45.999Z</time></trkpt><trkpt lat="46.111564777307" lon="13.525401683234398"><ele>231.0</ele><time>2026-04-18T15:24:47.999Z</time></trkpt><trkpt lat="46.111614634036314" lon="13.525335806908519"><ele>231.0</ele><time>2026-04-18T15:24:53.999Z</time></trkpt><trkpt lat="46.11164309644283" lon="13.52525270812044"><ele>227.42857142857142</ele><time>2026-04-18T15:24:57.999Z</time></trkpt><trkpt lat="46.111681149606" lon="13.52517022097717"><ele>223.85714285714286</ele><time>2026-04-18T15:25:05.999Z</time></trkpt><trkpt lat="46.11174291264485" lon="13.525192872382304"><ele>220.28571428571428</ele><time>2026-04-18T15:25:12.998Z</time></trkpt><trkpt lat="46.11181920517197" lon="13.52519883585413"><ele>216.71428571428572</ele><time>2026-04-18T15:25:16.998Z</time></trkpt><trkpt lat="46.111880949997" lon="13.525257728796795"><ele>213.14285714285714</ele><time>2026-04-18T15:25:19.998Z</time></trkpt><trkpt lat="46.1119442148262" lon="13.525270720274213"><ele>209.57142857142856</ele><time>2026-04-18T15:25:21.998Z</time></trkpt><trkpt lat="46.112013732460206" lon="13.525271418763506"><ele>206.0</ele><time>2026-04-18T15:25:23.998Z</time></trkpt><trkpt lat="46.112084409911716" lon="13.525288522396481"><ele>206.0</ele><time>2026-04-18T15:25:26.998Z</time></trkpt><trkpt lat="46.112187779975415" lon="13.525353617497794"><ele>206.0</ele><time>2026-04-18T15:25:29.998Z</time></trkpt><trkpt lat="46.11226292711961" lon="13.525367322031515"><ele>206.0</ele><time>2026-04-18T15:25:30.998Z</time></trkpt><trkpt lat="46.11237767991563" lon="13.525359906495058"><ele>206.0</ele><time>2026-04-18T15:25:31.998Z</time></trkpt><trkpt lat="46.11246508852961" lon="13.525363200049744"><ele>206.0</ele><time>2026-04-18T15:25:32.998Z</time></trkpt><trkpt lat="46.11253491444364" lon="13.525377490576933"><ele>204.66666666666669</ele><time>2026-04-18T15:25:33.998Z</time></trkpt><trkpt lat="46.11260528129668" lon="13.525369380165243"><ele>203.33333333333334</ele><time>2026-04-18T15:25:34.998Z</time></trkpt><trkpt lat="46.112725719328566" lon="13.525353538986513"><ele>202.0</ele><time>2026-04-18T15:25:36.998Z</time></trkpt><trkpt lat="46.11279747266286" lon="13.525325297961814"><ele>200.66666666666669</ele><time>2026-04-18T15:25:39Z</time></trkpt><trkpt lat="46.11283928389588" lon="13.525404501050284"><ele>199.33333333333334</ele><time>2026-04-18T15:25:44Z</time></trkpt><trkpt lat="46.11292652951729" lon="13.525457852892583"><ele>198.0</ele><time>2026-04-18T15:25:47Z</time></trkpt><trkpt lat="46.11302005181859" lon="13.525452117954224"><ele>197.0</ele><time>2026-04-18T15:25:48Z</time></trkpt><trkpt lat="46.11311012229244" lon="13.525435530214246"><ele>196.0</ele><time>2026-04-18T15:25:49Z</time></trkpt><trkpt lat="46.113192805641354" lon="13.525404325501107"><ele>195.0</ele><time>2026-04-18T15:25:50Z</time></trkpt><trkpt lat="46.11329654151212" lon="13.525375391872217"><ele>194.0</ele><time>2026-04-18T15:25:51Z</time></trkpt><trkpt lat="46.11339670959671" lon="13.525315707745548"><ele>193.0</ele><time>2026-04-18T15:25:52Z</time></trkpt><trkpt lat="46.113496276118994" lon="13.525286686413343"><ele>193.0</ele><time>2026-04-18T15:25:53Z</time></trkpt><trkpt lat="46.113595008199724" lon="13.525221019397272"><ele>193.0</ele><time>2026-04-18T15:25:54Z</time></trkpt><trkpt lat="46.113735237309626" lon="13.52515592685668"><ele>193.0</ele><time>2026-04-18T15:25:55Z</time></trkpt><trkpt lat="46.113856438768316" lon="13.525089203008903"><ele>193.0</ele><time>2026-04-18T15:25:56Z</time></trkpt><trkpt lat="46.11394115539229" lon="13.524994202087802"><ele>192.99999999999997</ele><time>2026-04-18T15:25:57Z</time></trkpt><trkpt lat="46.114015772161494" lon="13.524955456496194"><ele>193.0</ele><time>2026-04-18T15:25:58Z</time></trkpt><trkpt lat="46.11408279102158" lon="13.524889999201465"><ele>193.0</ele><time>2026-04-18T15:25:59Z</time></trkpt><trkpt lat="46.11414286302092" lon="13.524828596947135"><ele>193.0</ele><time>2026-04-18T15:26:00Z</time></trkpt><trkpt lat="46.114187783969896" lon="13.524760288348757"><ele>192.99999999999997</ele><time>2026-04-18T15:26:01Z</time></trkpt><trkpt lat="46.114244150711805" lon="13.52464626502793"><ele>193.0</ele><time>2026-04-18T15:26:03Z</time></trkpt><trkpt lat="46.11428092203936" lon="13.524569945272162"><ele>191.33333333333331</ele><time>2026-04-18T15:26:04Z</time></trkpt><trkpt lat="46.11432539045437" lon="13.524469238357728"><ele>189.66666666666666</ele><time>2026-04-18T15:26:06Z</time></trkpt><trkpt lat="46.11429989238906" lon="13.524555921978074"><ele>188.0</ele><time>2026-04-18T15:26:08Z</time></trkpt><trkpt lat="46.114394677015966" lon="13.524552827041566"><ele>186.33333333333331</ele><time>2026-04-18T15:26:11Z</time></trkpt><trkpt lat="46.1144826712226" lon="13.52452756841889"><ele>184.66666666666666</ele><time>2026-04-18T15:26:12Z</time></trkpt><trkpt lat="46.114565545525075" lon="13.524491106443671"><ele>183.0</ele><time>2026-04-18T15:26:13Z</time></trkpt><trkpt lat="46.11468157959077" lon="13.524337490373124"><ele>183.0</ele><time>2026-04-18T15:26:15Z</time></trkpt><trkpt lat="46.11473316069762" lon="13.524215252192077"><ele>183.0</ele><time>2026-04-18T15:26:16Z</time></trkpt><trkpt lat="46.11475400916349" lon="13.524033253632076"><ele>183.0</ele><time>2026-04-18T15:26:17Z</time></trkpt><trkpt lat="46.114777441863566" lon="13.523888255976681"><ele>183.0</ele><time>2026-04-18T15:26:18Z</time></trkpt><trkpt lat="46.11484084580449" lon="13.523732913979051"><ele>185.4</ele><time>2026-04-18T15:26:18.999Z</time></trkpt><trkpt lat="46.114876474592904" lon="13.52363137580156"><ele>187.8</ele><time>2026-04-18T15:26:19.999Z</time></trkpt><trkpt lat="46.11495532203256" lon="13.523461100118386"><ele>190.2</ele><time>2026-04-18T15:26:20.999Z</time></trkpt><trkpt lat="46.11501746174086" lon="13.523375057431677"><ele>192.6</ele><time>2026-04-18T15:26:21.999Z</time></trkpt><trkpt lat="46.11507190871371" lon="13.523308556579197"><ele>195.0</ele><time>2026-04-18T15:26:22.999Z</time></trkpt><trkpt lat="46.1151579752239" lon="13.523190343681268"><ele>188.0</ele><time>2026-04-18T15:26:23.999Z</time></trkpt><trkpt lat="46.115213944913414" lon="13.523122379529024"><ele>181.0</ele><time>2026-04-18T15:26:24.999Z</time></trkpt><trkpt lat="46.1152606891421" lon="13.523046885797532"><ele>174.0</ele><time>2026-04-18T15:26:25.999Z</time></trkpt><trkpt lat="46.11530950351784" lon="13.522987828439005"><ele>167.0</ele><time>2026-04-18T15:26:26.999Z</time></trkpt><trkpt lat="46.11542930116076" lon="13.522880233011394"><ele>160.0</ele><time>2026-04-18T15:26:28.999Z</time></trkpt><trkpt lat="46.11550821877122" lon="13.52278123303536"><ele>159.8</ele><time>2026-04-18T15:26:30.999Z</time></trkpt><trkpt lat="46.115551443763344" lon="13.522705850753216"><ele>159.6</ele><time>2026-04-18T15:26:31.999Z</time></trkpt><trkpt lat="46.115606205879274" lon="13.522610259549342"><ele>159.4</ele><time>2026-04-18T15:26:33.999Z</time></trkpt><trkpt lat="46.11569463894975" lon="13.522489017070466"><ele>159.2</ele><time>2026-04-18T15:26:35.999Z</time></trkpt><trkpt lat="46.11575325045202" lon="13.522392276307807"><ele>159.0</ele><time>2026-04-18T15:26:37.999Z</time></trkpt><trkpt lat="46.11584737242848" lon="13.52232608697573"><ele>157.4</ele><time>2026-04-18T15:26:39.999Z</time></trkpt><trkpt lat="46.115939531468634" lon="13.522252092594117"><ele>155.8</ele><time>2026-04-18T15:26:41.999Z</time></trkpt><trkpt lat="46.11604864329655" lon="13.5222100692772"><ele>154.2</ele><time>2026-04-18T15:26:43.999Z</time></trkpt><trkpt lat="46.116161745216324" lon="13.52216295372744"><ele>152.6</ele><time>2026-04-18T15:26:45.999Z</time></trkpt><trkpt lat="46.11626341025799" lon="13.522173782339056"><ele>151.0</ele><time>2026-04-18T15:26:47.999Z</time></trkpt><trkpt lat="46.11635485593224" lon="13.522162836866995"><ele>151.0</ele><time>2026-04-18T15:26:49.999Z</time></trkpt><trkpt lat="46.11643111485735" lon="13.522109755339015"><ele>151.0</ele><time>2026-04-18T15:26:51.999Z</time></trkpt><trkpt lat="46.11648744437462" lon="13.522028782647615"><ele>151.0</ele><time>2026-04-18T15:26:53.999Z</time></trkpt><trkpt lat="46.11657194438329" lon="13.521962545775308"><ele>151.0</ele><time>2026-04-18T15:26:55.999Z</time></trkpt><trkpt lat="46.11665011928513" lon="13.521886708819723"><ele>151.0</ele><time>2026-04-18T15:26:57.999Z</time></trkpt><trkpt lat="46.1167351198912" lon="13.521827838279107"><ele>151.0</ele><time>2026-04-18T15:26:59.999Z</time></trkpt><trkpt lat="46.11680446668138" lon="13.521765079956785"><ele>151.2</ele><time>2026-04-18T15:27:01.999Z</time></trkpt><trkpt lat="46.11685673676108" lon="13.521686581133789"><ele>151.39999999999998</ele><time>2026-04-18T15:27:03.999Z</time></trkpt><trkpt lat="46.11689977767931" lon="13.521533937877484"><ele>151.6</ele><time>2026-04-18T15:27:05.999Z</time></trkpt><trkpt lat="46.11694196584901" lon="13.52141188306714"><ele>151.79999999999998</ele><time>2026-04-18T15:27:07.999Z</time></trkpt><trkpt lat="46.11700776362815" lon="13.521296447826039"><ele>152.0</ele><time>2026-04-18T15:27:09.999Z</time></trkpt><trkpt lat="46.11708868042735" lon="13.52116209262139"><ele>152.2</ele><time>2026-04-18T15:27:11.999Z</time></trkpt><trkpt lat="46.11716074873138" lon="13.521042301939188"><ele>152.39999999999998</ele><time>2026-04-18T15:27:13.999Z</time></trkpt><trkpt lat="46.11723013401432" lon="13.520926361212725"><ele>152.60000000000002</ele><time>2026-04-18T15:27:15.999Z</time></trkpt><trkpt lat="46.11729000188088" lon="13.52083243767037"><ele>152.8</ele><time>2026-04-18T15:27:17.999Z</time></trkpt><trkpt lat="46.11737526309554" lon="13.520769061956296"><ele>153.0</ele><time>2026-04-18T15:27:19.998Z</time></trkpt><trkpt lat="46.11744367479574" lon="13.52074334387495"><ele>153.0</ele><time>2026-04-18T15:27:20.998Z</time></trkpt><trkpt lat="46.11751442736701" lon="13.52078239513441"><ele>153.0</ele><time>2026-04-18T15:27:21.998Z</time></trkpt><trkpt lat="46.11761585122073" lon="13.520763192341272"><ele>153.0</ele><time>2026-04-18T15:27:23.998Z</time></trkpt><trkpt lat="46.117671116192454" lon="13.520691121796277"><ele>153.0</ele><time>2026-04-18T15:27:25.998Z</time></trkpt><trkpt lat="46.11766797277673" lon="13.520584317023964"><ele>153.0</ele><time>2026-04-18T15:27:28.998Z</time></trkpt><trkpt lat="46.11759973346451" lon="13.520519917423009"><ele>153.0</ele><time>2026-04-18T15:27:30.998Z</time></trkpt><trkpt lat="46.11752163989827" lon="13.520394487333874"><ele>152.8</ele><time>2026-04-18T15:27:32.998Z</time></trkpt><trkpt lat="46.11747540562615" lon="13.52026635757173"><ele>152.60000000000002</ele><time>2026-04-18T15:27:34.998Z</time></trkpt><trkpt lat="46.11744355237329" lon="13.520142287874833"><ele>152.39999999999998</ele><time>2026-04-18T15:27:36.998Z</time></trkpt><trkpt lat="46.117423743670464" lon="13.520054218164296"><ele>152.2</ele><time>2026-04-18T15:27:37.998Z</time></trkpt><trkpt lat="46.11738416812309" lon="13.519895186294722"><ele>152.0</ele><time>2026-04-18T15:27:39.998Z</time></trkpt><trkpt lat="46.11734961769608" lon="13.51975926241446"><ele>152.0</ele><time>2026-04-18T15:27:41.998Z</time></trkpt><trkpt lat="46.117256895206665" lon="13.519668219194935"><ele>152.0</ele><time>2026-04-18T15:27:44Z</time></trkpt><trkpt lat="46.11717411814698" lon="13.519582401670172"><ele>152.0</ele><time>2026-04-18T15:27:46Z</time></trkpt><trkpt lat="46.11711601927096" lon="13.519533079545486"><ele>152.0</ele><time>2026-04-18T15:27:47Z</time></trkpt><trkpt lat="46.11702537486642" lon="13.519405467766601"><ele>152.0</ele><time>2026-04-18T15:27:49Z</time></trkpt><trkpt lat="46.11693000246352" lon="13.519303678494287"><ele>151.79999999999998</ele><time>2026-04-18T15:27:51Z</time></trkpt><trkpt lat="46.11683105762688" lon="13.519228237711685"><ele>151.6</ele><time>2026-04-18T15:27:53Z</time></trkpt><trkpt lat="46.116749956133525" lon="13.519162230966225"><ele>151.39999999999998</ele><time>2026-04-18T15:27:55Z</time></trkpt><trkpt lat="46.116651742093424" lon="13.519054031970255"><ele>151.2</ele><time>2026-04-18T15:27:57Z</time></trkpt><trkpt lat="46.11657127903872" lon="13.519028715188275"><ele>151.0</ele><time>2026-04-18T15:27:58Z</time></trkpt><trkpt lat="46.11650672981378" lon="13.518970752485304"><ele>151.0</ele><time>2026-04-18T15:27:59Z</time></trkpt><trkpt lat="46.116419422291074" lon="13.518894614140951"><ele>151.0</ele><time>2026-04-18T15:28:01Z</time></trkpt><trkpt lat="46.11633949324424" lon="13.518802145325019"><ele>151.0</ele><time>2026-04-18T15:28:03Z</time></trkpt><trkpt lat="46.11628760966255" lon="13.5187478692444"><ele>151.0</ele><time>2026-04-18T15:28:04Z</time></trkpt><trkpt lat="46.11621498386553" lon="13.51863164219859"><ele>151.0</ele><time>2026-04-18T15:28:06Z</time></trkpt><trkpt lat="46.11611719687968" lon="13.518531543140707"><ele>151.0</ele><time>2026-04-18T15:28:08Z</time></trkpt><trkpt lat="46.11601437979863" lon="13.518475337014436"><ele>151.0</ele><time>2026-04-18T15:28:10Z</time></trkpt><trkpt lat="46.11591848301726" lon="13.518409851721904"><ele>151.0</ele><time>2026-04-18T15:28:12Z</time></trkpt><trkpt lat="46.11581158442916" lon="13.518345712799816"><ele>151.0</ele><time>2026-04-18T15:28:14Z</time></trkpt><trkpt lat="46.1157519873556" lon="13.518298959270716"><ele>151.0</ele><time>2026-04-18T15:28:15Z</time></trkpt><trkpt lat="46.1156627184373" lon="13.51822545348877"><ele>151.0</ele><time>2026-04-18T15:28:17Z</time></trkpt><trkpt lat="46.11558777974201" lon="13.518128074868494"><ele>151.0</ele><time>2026-04-18T15:28:19Z</time></trkpt><trkpt lat="46.1154745390317" lon="13.518032685588214"><ele>151.0</ele><time>2026-04-18T15:28:21Z</time></trkpt><trkpt lat="46.11541786172579" lon="13.517977095464108"><ele>151.0</ele><time>2026-04-18T15:28:22Z</time></trkpt><trkpt lat="46.11535384051553" lon="13.517821210068531"><ele>151.0</ele><time>2026-04-18T15:28:23.999Z</time></trkpt><trkpt lat="46.115296967661536" lon="13.517662850887785"><ele>151.2</ele><time>2026-04-18T15:28:25.999Z</time></trkpt><trkpt lat="46.11523953043724" lon="13.51753482390377"><ele>151.39999999999998</ele><time>2026-04-18T15:28:27.999Z</time></trkpt><trkpt lat="46.115154951710146" lon="13.517370360763518"><ele>151.6</ele><time>2026-04-18T15:28:29.999Z</time></trkpt><trkpt lat="46.115100021220506" lon="13.517274238110014"><ele>151.79999999999998</ele><time>2026-04-18T15:28:31.999Z</time></trkpt><trkpt lat="46.11505619740814" lon="13.517192324160527"><ele>152.0</ele><time>2026-04-18T15:28:33.999Z</time></trkpt><trkpt lat="46.11501004708787" lon="13.517106821000414"><ele>151.66666666666666</ele><time>2026-04-18T15:28:34.999Z</time></trkpt><trkpt lat="46.114925367062284" lon="13.516947380778209"><ele>151.33333333333331</ele><time>2026-04-18T15:28:36.999Z</time></trkpt><trkpt lat="46.11487159473562" lon="13.516881050699302"><ele>151.0</ele><time>2026-04-18T15:28:40.999Z</time></trkpt><trkpt lat="46.11481819038512" lon="13.516790657869276"><ele>150.66666666666666</ele><time>2026-04-18T15:28:41.999Z</time></trkpt><trkpt lat="46.11476843200172" lon="13.516712801393323"><ele>150.33333333333334</ele><time>2026-04-18T15:28:42.999Z</time></trkpt><trkpt lat="46.11472115871475" lon="13.51663270943535"><ele>150.0</ele><time>2026-04-18T15:28:43.999Z</time></trkpt><trkpt lat="46.11469139842133" lon="13.516547960404449"><ele>154.4</ele><time>2026-04-18T15:28:44.999Z</time></trkpt><trkpt lat="46.11467404647663" lon="13.516429583518978"><ele>158.8</ele><time>2026-04-18T15:28:45.999Z</time></trkpt><trkpt lat="46.114657275367904" lon="13.516317406057986"><ele>163.2</ele><time>2026-04-18T15:28:46.999Z</time></trkpt><trkpt lat="46.11460124044764" lon="13.516123771866662"><ele>167.6</ele><time>2026-04-18T15:28:48.999Z</time></trkpt><trkpt lat="46.11453249832325" lon="13.516019709574932"><ele>172.0</ele><time>2026-04-18T15:28:49.999Z</time></trkpt><trkpt lat="46.114498278927066" lon="13.515854908131109"><ele>172.0</ele><time>2026-04-18T15:28:51.999Z</time></trkpt><trkpt lat="46.11448116926071" lon="13.515738490632874"><ele>172.0</ele><time>2026-04-18T15:28:52.999Z</time></trkpt><trkpt lat="46.11451409709368" lon="13.51555766139638"><ele>172.0</ele><time>2026-04-18T15:28:54.999Z</time></trkpt><trkpt lat="46.114505611162336" lon="13.515455459925752"><ele>172.0</ele><time>2026-04-18T15:28:55.999Z</time></trkpt><trkpt lat="46.11450380685662" lon="13.515340322499918"><ele>172.0</ele><time>2026-04-18T15:28:56.999Z</time></trkpt><trkpt lat="46.11448031397433" lon="13.515251778644656"><ele>172.0</ele><time>2026-04-18T15:28:58.999Z</time></trkpt><trkpt lat="46.1144243548874" lon="13.515080344256424"><ele>171.39999999999998</ele><time>2026-04-18T15:29:00.999Z</time></trkpt><trkpt lat="46.11443352507114" lon="13.514958677344012"><ele>170.79999999999998</ele><time>2026-04-18T15:29:01.999Z</time></trkpt><trkpt lat="46.11441774520864" lon="13.514838358137881"><ele>170.2</ele><time>2026-04-18T15:29:02.999Z</time></trkpt><trkpt lat="46.11439516503489" lon="13.514701929127687"><ele>169.6</ele><time>2026-04-18T15:29:04.999Z</time></trkpt><trkpt lat="46.114382572838934" lon="13.514609675759836"><ele>169.0</ele><time>2026-04-18T15:29:05.999Z</time></trkpt><trkpt lat="46.114354590188874" lon="13.514442163337973"><ele>168.2</ele><time>2026-04-18T15:29:07.999Z</time></trkpt><trkpt lat="46.11432013232559" lon="13.514290965862955"><ele>167.39999999999998</ele><time>2026-04-18T15:29:09.999Z</time></trkpt><trkpt lat="46.114314609535526" lon="13.51419742506386"><ele>166.6</ele><time>2026-04-18T15:29:10.999Z</time></trkpt><trkpt lat="46.11429007917627" lon="13.514066608976815"><ele>165.8</ele><time>2026-04-18T15:29:12.999Z</time></trkpt><trkpt lat="46.11426665415075" lon="13.513901273356336"><ele>165.0</ele><time>2026-04-18T15:29:14.999Z</time></trkpt><trkpt lat="46.11424695279284" lon="13.513759015643842"><ele>164.5</ele><time>2026-04-18T15:29:16.999Z</time></trkpt><trkpt lat="46.114216629033166" lon="13.513601638022184"><ele>164.0</ele><time>2026-04-18T15:29:18.999Z</time></trkpt><trkpt lat="46.11417557163381" lon="13.513522882809854"><ele>163.5</ele><time>2026-04-18T15:29:19.999Z</time></trkpt><trkpt lat="46.114150883056276" lon="13.513428184496618"><ele>163.0</ele><time>2026-04-18T15:29:20.999Z</time></trkpt><trkpt lat="46.11411061262803" lon="13.513276553039182"><ele>162.5</ele><time>2026-04-18T15:29:22.998Z</time></trkpt><trkpt lat="46.11412447786698" lon="13.513182094918312"><ele>162.0</ele><time>2026-04-18T15:29:23.998Z</time></trkpt><trkpt lat="46.11411984006078" lon="13.513029244225182"><ele>162.0</ele><time>2026-04-18T15:29:25.998Z</time></trkpt><trkpt lat="46.114134774333415" lon="13.512940856261947"><ele>162.0</ele><time>2026-04-18T15:29:26.998Z</time></trkpt><trkpt lat="46.1141255551002" lon="13.512850346539341"><ele>162.0</ele><time>2026-04-18T15:29:27.998Z</time></trkpt><trkpt lat="46.11411753039795" lon="13.512655671536335"><ele>162.0</ele><time>2026-04-18T15:29:29.998Z</time></trkpt><trkpt lat="46.11410688677957" lon="13.512474638041375"><ele>162.0</ele><time>2026-04-18T15:29:31.998Z</time></trkpt><trkpt lat="46.114072878715504" lon="13.512384947762602"><ele>162.16666666666666</ele><time>2026-04-18T15:29:32.998Z</time></trkpt><trkpt lat="46.11404272010408" lon="13.512290974836022"><ele>162.33333333333334</ele><time>2026-04-18T15:29:33.998Z</time></trkpt><trkpt lat="46.11400464888393" lon="13.512198387093104"><ele>162.5</ele><time>2026-04-18T15:29:34.998Z</time></trkpt><trkpt lat="46.11395885131719" lon="13.512078473381111"><ele>162.66666666666669</ele><time>2026-04-18T15:29:36.998Z</time></trkpt><trkpt lat="46.113946024664834" lon="13.511936786994386"><ele>162.83333333333334</ele><time>2026-04-18T15:29:38.998Z</time></trkpt><trkpt lat="46.11388325948109" lon="13.51181472544053"><ele>163.0</ele><time>2026-04-18T15:29:40.998Z</time></trkpt><trkpt lat="46.113844712832794" lon="13.511706397869867"><ele>163.0</ele><time>2026-04-18T15:29:42.998Z</time></trkpt><trkpt lat="46.11386657463605" lon="13.51154884134473"><ele>163.0</ele><time>2026-04-18T15:29:44.998Z</time></trkpt><trkpt lat="46.11388726112393" lon="13.511447598187488"><ele>163.0</ele><time>2026-04-18T15:29:45.998Z</time></trkpt><trkpt lat="46.11388323912335" lon="13.511336127659124"><ele>163.0</ele><time>2026-04-18T15:29:46.998Z</time></trkpt><trkpt lat="46.1138854596352" lon="13.511229874425457"><ele>163.0</ele><time>2026-04-18T15:29:47.998Z</time></trkpt><trkpt lat="46.11387558310118" lon="13.511136011150407"><ele>163.0</ele><time>2026-04-18T15:29:49Z</time></trkpt><trkpt lat="46.113886715506055" lon="13.511034983726624"><ele>163.0</ele><time>2026-04-18T15:29:50Z</time></trkpt><trkpt lat="46.11387948324633" lon="13.51087461426753"><ele>163.0</ele><time>2026-04-18T15:29:52Z</time></trkpt><trkpt lat="46.11384515000376" lon="13.510714208018884"><ele>163.0</ele><time>2026-04-18T15:29:54Z</time></trkpt><trkpt lat="46.11383561655381" lon="13.510563999060077"><ele>163.0</ele><time>2026-04-18T15:29:56Z</time></trkpt><trkpt lat="46.113835208470796" lon="13.510462808127519"><ele>163.0</ele><time>2026-04-18T15:29:57Z</time></trkpt><trkpt lat="46.11381484424111" lon="13.510311948694564"><ele>163.0</ele><time>2026-04-18T15:29:59Z</time></trkpt><trkpt lat="46.1138052600333" lon="13.51015992540554"><ele>163.0</ele><time>2026-04-18T15:30:01Z</time></trkpt><trkpt lat="46.113797933035734" lon="13.51001184502275"><ele>163.0</ele><time>2026-04-18T15:30:03Z</time></trkpt><trkpt lat="46.11378865120569" lon="13.509852379598648"><ele>163.0</ele><time>2026-04-18T15:30:05Z</time></trkpt><trkpt lat="46.1137764123007" lon="13.509690289322535"><ele>163.0</ele><time>2026-04-18T15:30:07Z</time></trkpt><trkpt lat="46.1137596199222" lon="13.509536329086837"><ele>162.16666666666669</ele><time>2026-04-18T15:30:09Z</time></trkpt><trkpt lat="46.113753406905644" lon="13.509429166872055"><ele>161.33333333333334</ele><time>2026-04-18T15:30:11Z</time></trkpt><trkpt lat="46.113832766678634" lon="13.509330264384486"><ele>160.5</ele><time>2026-04-18T15:30:13Z</time></trkpt><trkpt lat="46.11392093250794" lon="13.509305800028464"><ele>159.66666666666666</ele><time>2026-04-18T15:30:14Z</time></trkpt><trkpt lat="46.113950834448936" lon="13.509210929461071"><ele>158.83333333333331</ele><time>2026-04-18T15:30:17Z</time></trkpt><trkpt lat="46.11390548949125" lon="13.509135540227632"><ele>158.0</ele><time>2026-04-18T15:30:19Z</time></trkpt><trkpt lat="46.11387697345602" lon="13.509045314425553"><ele>158.0</ele><time>2026-04-18T15:30:21Z</time></trkpt><trkpt lat="46.11385493441759" lon="13.508929145292132"><ele>158.0</ele><time>2026-04-18T15:30:24Z</time></trkpt><trkpt lat="46.113795802399025" lon="13.508874194600615"><ele>158.0</ele><time>2026-04-18T15:34:17Z</time></trkpt><trkpt lat="46.11373081032686" lon="13.508768918682158"><ele>158.0</ele><time>2026-04-18T15:34:20Z</time></trkpt><trkpt lat="46.11367539418997" lon="13.508688781016872"><ele>158.0</ele><time>2026-04-18T15:34:23Z</time></trkpt><trkpt lat="46.11362538430947" lon="13.50862002622519"><ele>158.0</ele><time>2026-04-18T15:34:25Z</time></trkpt><trkpt lat="46.113574812959044" lon="13.508534704047419"><ele>157.5</ele><time>2026-04-18T15:34:27Z</time></trkpt><trkpt lat="46.11352405933648" lon="13.508467251070009"><ele>157.0</ele><time>2026-04-18T15:34:29Z</time></trkpt><trkpt lat="46.113476228439374" lon="13.508383854906375"><ele>156.5</ele><time>2026-04-18T15:34:31Z</time></trkpt><trkpt lat="46.11342585973275" lon="13.508280004609405"><ele>156.0</ele><time>2026-04-18T15:34:34Z</time></trkpt><trkpt lat="46.11337664386054" lon="13.508206123710917"><ele>155.5</ele><time>2026-04-18T15:34:37Z</time></trkpt><trkpt lat="46.11334759719826" lon="13.508107122666711"><ele>155.0</ele><time>2026-04-18T15:34:40Z</time></trkpt><trkpt lat="46.113315656292805" lon="13.507990681383736"><ele>155.0</ele><time>2026-04-18T15:34:43Z</time></trkpt><trkpt lat="46.113295658941716" lon="13.507893692654074"><ele>155.0</ele><time>2026-04-18T15:34:45.999Z</time></trkpt><trkpt lat="46.11327064845861" lon="13.507795943736967"><ele>155.0</ele><time>2026-04-18T15:34:49.999Z</time></trkpt><trkpt lat="46.113249574295345" lon="13.507696651748816"><ele>155.0</ele><time>2026-04-18T15:34:51.999Z</time></trkpt><trkpt lat="46.113185070312554" lon="13.507644772979885"><ele>155.0</ele><time>2026-04-18T15:34:53.999Z</time></trkpt><trkpt lat="46.11312528186977" lon="13.507614489532699"><ele>155.0</ele><time>2026-04-18T15:34:55.999Z</time></trkpt><trkpt lat="46.113050668403126" lon="13.507568790756482"><ele>155.0</ele><time>2026-04-18T15:34:58.999Z</time></trkpt><trkpt lat="46.112992175378686" lon="13.507497905515775"><ele>159.0</ele><time>2026-04-18T15:35:01.999Z</time></trkpt><trkpt lat="46.112939123706134" lon="13.50743573760622"><ele>163.0</ele><time>2026-04-18T15:35:07.999Z</time></trkpt><trkpt lat="46.11288366831238" lon="13.507392094091559"><ele>167.0</ele><time>2026-04-18T15:35:10.999Z</time></trkpt><trkpt lat="46.112825375535536" lon="13.507354591373367"><ele>171.0</ele><time>2026-04-18T15:35:13.999Z</time></trkpt><trkpt lat="46.112766373390755" lon="13.507310267752365"><ele>175.0</ele><time>2026-04-18T15:35:16.999Z</time></trkpt><trkpt lat="46.11268898408135" lon="13.507273296020273"><ele>179.0</ele><time>2026-04-18T15:35:20.999Z</time></trkpt><trkpt lat="46.11262306796865" lon="13.50720112271632"><ele>183.0</ele><time>2026-04-18T15:35:23.999Z</time></trkpt><trkpt lat="46.11255398047751" lon="13.507140625373731"><ele>183.57142857142858</ele><time>2026-04-18T15:35:26.999Z</time></trkpt><trkpt lat="46.112495504390935" lon="13.507065304816908"><ele>184.14285714285717</ele><time>2026-04-18T15:35:29.999Z</time></trkpt><trkpt lat="46.112441579602276" lon="13.507000927698174"><ele>184.71428571428572</ele><time>2026-04-18T15:35:33.999Z</time></trkpt><trkpt lat="46.112381840646435" lon="13.506921123732678"><ele>185.28571428571428</ele><time>2026-04-18T15:35:39.999Z</time></trkpt><trkpt lat="46.11232166208724" lon="13.506886319773816"><ele>185.85714285714286</ele><time>2026-04-18T15:35:45.998Z</time></trkpt><trkpt lat="46.112247166245545" lon="13.506845446875264"><ele>186.42857142857142</ele><time>2026-04-18T15:35:48.998Z</time></trkpt><trkpt lat="46.11218425705613" lon="13.506805433132515"><ele>187.0</ele><time>2026-04-18T15:35:52.998Z</time></trkpt><trkpt lat="46.11212635189333" lon="13.506741187630023"><ele>187.0</ele><time>2026-04-18T15:35:56.998Z</time></trkpt><trkpt lat="46.11209147628758" lon="13.506659568355461"><ele>187.0</ele><time>2026-04-18T15:36:02.998Z</time></trkpt><trkpt lat="46.11208055208441" lon="13.506566665566165"><ele>187.0</ele><time>2026-04-18T15:36:04.998Z</time></trkpt><trkpt lat="46.11204768525546" lon="13.506486376829612"><ele>187.0</ele><time>2026-04-18T15:36:08Z</time></trkpt><trkpt lat="46.11197463519146" lon="13.506447945370054"><ele>187.0</ele><time>2026-04-18T15:36:12Z</time></trkpt><trkpt lat="46.11189864933899" lon="13.506457080360867"><ele>187.0</ele><time>2026-04-18T15:36:17Z</time></trkpt><trkpt lat="46.11181751743291" lon="13.506478228696741"><ele>187.0</ele><time>2026-04-18T15:36:22Z</time></trkpt><trkpt lat="46.11174168964075" lon="13.506507517826165"><ele>187.0</ele><time>2026-04-18T15:36:26Z</time></trkpt><trkpt lat="46.11167797607099" lon="13.506523045421506"><ele>187.0</ele><time>2026-04-18T15:36:29Z</time></trkpt><trkpt lat="46.11160093261276" lon="13.506562443763734"><ele>187.0</ele><time>2026-04-18T15:36:35Z</time></trkpt><trkpt lat="46.11151271343712" lon="13.506587586309855"><ele>187.0</ele><time>2026-04-18T15:36:39Z</time></trkpt><trkpt lat="46.111449442818994" lon="13.506577863954393"><ele>187.0</ele><time>2026-04-18T15:36:41Z</time></trkpt><trkpt lat="46.11137335599659" lon="13.50659282275007"><ele>187.0</ele><time>2026-04-18T15:36:46Z</time></trkpt><trkpt lat="46.1112951672146" lon="13.50662076959066"><ele>188.14285714285714</ele><time>2026-04-18T15:36:50Z</time></trkpt><trkpt lat="46.11121459335029" lon="13.506641202698257"><ele>189.2857142857143</ele><time>2026-04-18T15:36:54.999Z</time></trkpt><trkpt lat="46.111128733101246" lon="13.506640178310834"><ele>190.42857142857144</ele><time>2026-04-18T15:36:59.999Z</time></trkpt><trkpt lat="46.11105831320836" lon="13.506631551112735"><ele>191.57142857142856</ele><time>2026-04-18T15:37:02.999Z</time></trkpt><trkpt lat="46.11099062158408" lon="13.506635457446517"><ele>192.71428571428572</ele><time>2026-04-18T15:37:06.999Z</time></trkpt><trkpt lat="46.110919604029384" lon="13.506671420065933"><ele>193.85714285714286</ele><time>2026-04-18T15:37:11.999Z</time></trkpt><trkpt lat="46.11086016110908" lon="13.5067050365392"><ele>195.0</ele><time>2026-04-18T15:37:14.999Z</time></trkpt><trkpt lat="46.110785568684804" lon="13.506735479887897"><ele>195.33333333333334</ele><time>2026-04-18T15:37:17.999Z</time></trkpt><trkpt lat="46.11071036418131" lon="13.506729374737048"><ele>195.66666666666669</ele><time>2026-04-18T15:37:24.999Z</time></trkpt><trkpt lat="46.11063475097958" lon="13.506676445126377"><ele>196.0</ele><time>2026-04-18T15:37:28.999Z</time></trkpt><trkpt lat="46.11054206138326" lon="13.50662772614709"><ele>196.33333333333334</ele><time>2026-04-18T15:37:35.999Z</time></trkpt><trkpt lat="46.11045646606061" lon="13.506600661420157"><ele>196.66666666666669</ele><time>2026-04-18T15:37:40.999Z</time></trkpt><trkpt lat="46.110392612285445" lon="13.50657173573051"><ele>197.0</ele><time>2026-04-18T15:37:44.999Z</time></trkpt><trkpt lat="46.11032827980533" lon="13.506560785210246"><ele>197.0</ele><time>2026-04-18T15:37:48.999Z</time></trkpt><trkpt lat="46.11026175650393" lon="13.506580386397005"><ele>197.0</ele><time>2026-04-18T15:37:52.998Z</time></trkpt><trkpt lat="46.110187019138344" lon="13.506581951216868"><ele>197.0</ele><time>2026-04-18T15:37:55.998Z</time></trkpt><trkpt lat="46.1101203067665" lon="13.506634661633212"><ele>197.0</ele><time>2026-04-18T15:37:59.998Z</time></trkpt><trkpt lat="46.110058061529415" lon="13.506670019448508"><ele>197.0</ele><time>2026-04-18T15:38:03.998Z</time></trkpt><trkpt lat="46.109986328445835" lon="13.506713553563534"><ele>197.0</ele><time>2026-04-18T15:38:07.998Z</time></trkpt><trkpt lat="46.10992473053417" lon="13.506746590056416"><ele>197.0</ele><time>2026-04-18T15:38:10.998Z</time></trkpt><trkpt lat="46.10985070901382" lon="13.506800035745787"><ele>195.14285714285714</ele><time>2026-04-18T15:38:15Z</time></trkpt><trkpt lat="46.10978839364946" lon="13.506820647044876"><ele>193.28571428571428</ele><time>2026-04-18T15:38:18Z</time></trkpt><trkpt lat="46.10971597598138" lon="13.50684878326773"><ele>191.42857142857144</ele><time>2026-04-18T15:38:22Z</time></trkpt><trkpt lat="46.109657813860146" lon="13.506900313032832"><ele>189.57142857142856</ele><time>2026-04-18T15:38:26Z</time></trkpt><trkpt lat="46.109609987623415" lon="13.50697279129508"><ele>187.7142857142857</ele><time>2026-04-18T15:38:31Z</time></trkpt><trkpt lat="46.109535796203474" lon="13.507020394404172"><ele>185.85714285714286</ele><time>2026-04-18T15:38:34Z</time></trkpt><trkpt lat="46.10947164506472" lon="13.507064213733837"><ele>184.0</ele><time>2026-04-18T15:38:37Z</time></trkpt><trkpt lat="46.10939013645264" lon="13.507104375452649"><ele>184.2857142857143</ele><time>2026-04-18T15:38:42Z</time></trkpt><trkpt lat="46.10936883742807" lon="13.507202528716928"><ele>184.57142857142856</ele><time>2026-04-18T15:38:45Z</time></trkpt><trkpt lat="46.1092978168893" lon="13.507234232273333"><ele>184.85714285714286</ele><time>2026-04-18T15:38:47Z</time></trkpt><trkpt lat="46.109267653365144" lon="13.507316878021525"><ele>185.14285714285717</ele><time>2026-04-18T15:38:52Z</time></trkpt><trkpt lat="46.109200229848966" lon="13.507362875599176"><ele>185.42857142857144</ele><time>2026-04-18T15:38:55Z</time></trkpt><trkpt lat="46.1091392964192" lon="13.507403550425794"><ele>185.71428571428572</ele><time>2026-04-18T15:38:57.999Z</time></trkpt><trkpt lat="46.10907263685276" lon="13.507466577871512"><ele>186.0</ele><time>2026-04-18T15:38:59.999Z</time></trkpt><trkpt lat="46.10904461646112" lon="13.507558480644589"><ele>186.00000000000003</ele><time>2026-04-18T15:39:02.999Z</time></trkpt><trkpt lat="46.108994534561795" lon="13.507638197709687"><ele>186.0</ele><time>2026-04-18T15:39:07.999Z</time></trkpt><trkpt lat="46.10894622138326" lon="13.507721597642583"><ele>186.0</ele><time>2026-04-18T15:39:11.999Z</time></trkpt><trkpt lat="46.10893016353965" lon="13.507831190183104"><ele>186.0</ele><time>2026-04-18T15:39:14.999Z</time></trkpt><trkpt lat="46.10889830559256" lon="13.507920674507048"><ele>186.0</ele><time>2026-04-18T15:39:20.999Z</time></trkpt><trkpt lat="46.10889371469014" lon="13.508016422780484"><ele>186.00000000000003</ele><time>2026-04-18T15:39:24.999Z</time></trkpt><trkpt lat="46.108837362028176" lon="13.508097419381935"><ele>186.0</ele><time>2026-04-18T15:39:29.999Z</time></trkpt><trkpt lat="46.108809490315814" lon="13.508179092831082"><ele>188.42857142857144</ele><time>2026-04-18T15:39:33.999Z</time></trkpt><trkpt lat="46.10876898262277" lon="13.508274502949964"><ele>190.85714285714286</ele><time>2026-04-18T15:39:38.999Z</time></trkpt><trkpt lat="46.1087490227104" lon="13.508369781061788"><ele>193.28571428571428</ele><time>2026-04-18T15:39:42.999Z</time></trkpt><trkpt lat="46.108709935439514" lon="13.508461584465396"><ele>195.71428571428572</ele><time>2026-04-18T15:39:46.999Z</time></trkpt><trkpt lat="46.10869460579572" lon="13.508559288336436"><ele>198.14285714285714</ele><time>2026-04-18T15:39:50.999Z</time></trkpt><trkpt lat="46.10866010498065" lon="13.508664550592485"><ele>200.57142857142858</ele><time>2026-04-18T15:39:53.999Z</time></trkpt><trkpt lat="46.108639780573775" lon="13.508750738337506"><ele>203.0</ele><time>2026-04-18T15:39:57.998Z</time></trkpt><trkpt lat="46.10860840001045" lon="13.508830493843151"><ele>205.57142857142858</ele><time>2026-04-18T15:40:00.998Z</time></trkpt><trkpt lat="46.10855235995282" lon="13.508889285211495"><ele>208.14285714285714</ele><time>2026-04-18T15:40:03.998Z</time></trkpt><trkpt lat="46.10852194856835" lon="13.50898679467999"><ele>210.71428571428572</ele><time>2026-04-18T15:40:08.998Z</time></trkpt><trkpt lat="46.10846408076342" lon="13.509045633286496"><ele>213.28571428571428</ele><time>2026-04-18T15:40:11.998Z</time></trkpt><trkpt lat="46.108416704724135" lon="13.509135391453492"><ele>215.85714285714286</ele><time>2026-04-18T15:40:15.998Z</time></trkpt><trkpt lat="46.10840356860897" lon="13.50923220087661"><ele>218.42857142857144</ele><time>2026-04-18T15:40:19Z</time></trkpt><trkpt lat="46.108392261476766" lon="13.509326700044548"><ele>221.0</ele><time>2026-04-18T15:40:23Z</time></trkpt><trkpt lat="46.10836871729128" lon="13.509431995531395"><ele>221.00000000000003</ele><time>2026-04-18T15:40:26Z</time></trkpt><trkpt lat="46.10832602321867" lon="13.509525044582283"><ele>221.0</ele><time>2026-04-18T15:40:31Z</time></trkpt><trkpt lat="46.10829741782042" lon="13.50963216494915"><ele>221.0</ele><time>2026-04-18T15:40:35Z</time></trkpt><trkpt lat="46.10825887000066" lon="13.509741036720355"><ele>221.0</ele><time>2026-04-18T15:40:39Z</time></trkpt><trkpt lat="46.10824188376634" lon="13.509832544452163"><ele>221.00000000000003</ele><time>2026-04-18T15:40:42Z</time></trkpt><trkpt lat="46.10816585077252" lon="13.509919818971627"><ele>221.0</ele><time>2026-04-18T15:40:47Z</time></trkpt><trkpt lat="46.108099104237795" lon="13.509971875499243"><ele>219.42857142857144</ele><time>2026-04-18T15:40:50Z</time></trkpt><trkpt lat="46.10806152391826" lon="13.510054201557518"><ele>217.85714285714286</ele><time>2026-04-18T15:40:54Z</time></trkpt><trkpt lat="46.10809460611329" lon="13.510144768559153"><ele>216.28571428571428</ele><time>2026-04-18T15:40:58Z</time></trkpt><trkpt lat="46.10816025574236" lon="13.510118925245429"><ele>214.71428571428572</ele><time>2026-04-18T15:41:01.999Z</time></trkpt><trkpt lat="46.10823302349312" lon="13.51009323119453"><ele>213.14285714285714</ele><time>2026-04-18T15:41:05.999Z</time></trkpt><trkpt lat="46.10827657261143" lon="13.510006586652784"><ele>211.57142857142858</ele><time>2026-04-18T15:41:09.999Z</time></trkpt><trkpt lat="46.1083382398768" lon="13.509964058617381"><ele>210.0</ele><time>2026-04-18T15:41:12.999Z</time></trkpt><trkpt lat="46.10839954524623" lon="13.509899750168849"><ele>211.57142857142858</ele><time>2026-04-18T15:41:16.999Z</time></trkpt><trkpt lat="46.10845990778839" lon="13.509852797426893"><ele>213.14285714285714</ele><time>2026-04-18T15:41:21.999Z</time></trkpt><trkpt lat="46.10852162502963" lon="13.509807204996815"><ele>214.71428571428572</ele><time>2026-04-18T15:41:25.999Z</time></trkpt><trkpt lat="46.1085821689885" lon="13.509740782001806"><ele>216.28571428571428</ele><time>2026-04-18T15:41:30.999Z</time></trkpt><trkpt lat="46.10863536950795" lon="13.509673198995864"><ele>217.85714285714286</ele><time>2026-04-18T15:41:34.999Z</time></trkpt><trkpt lat="46.10869270991312" lon="13.509619760704618"><ele>219.42857142857144</ele><time>2026-04-18T15:41:38.999Z</time></trkpt><trkpt lat="46.10876179252022" lon="13.509561999854759"><ele>221.0</ele><time>2026-04-18T15:41:42.999Z</time></trkpt><trkpt lat="46.10882372747595" lon="13.509522048317466"><ele>221.00000000000003</ele><time>2026-04-18T15:41:45.999Z</time></trkpt><trkpt lat="46.10889059715638" lon="13.509496674726345"><ele>221.0</ele><time>2026-04-18T15:41:48.999Z</time></trkpt><trkpt lat="46.10895052165018" lon="13.509468543895574"><ele>221.0</ele><time>2026-04-18T15:41:51.999Z</time></trkpt><trkpt lat="46.109021595292155" lon="13.509411432156009"><ele>221.0</ele><time>2026-04-18T15:41:55.999Z</time></trkpt><trkpt lat="46.109079043298756" lon="13.509340960143229"><ele>221.0</ele><time>2026-04-18T15:41:59.998Z</time></trkpt><trkpt lat="46.10912943420707" lon="13.50927913859258"><ele>221.00000000000003</ele><time>2026-04-18T15:42:02.998Z</time></trkpt><trkpt lat="46.10920759216938" lon="13.509218198365431"><ele>221.0</ele><time>2026-04-18T15:42:06.998Z</time></trkpt><trkpt lat="46.10926319289951" lon="13.509147517489756"><ele>225.0</ele><time>2026-04-18T15:42:10.998Z</time></trkpt><trkpt lat="46.109329917537124" lon="13.50908484577073"><ele>229.0</ele><time>2026-04-18T15:42:15.998Z</time></trkpt><trkpt lat="46.10938926335092" lon="13.509036190354667"><ele>233.0</ele><time>2026-04-18T15:42:20.998Z</time></trkpt><trkpt lat="46.1094357136877" lon="13.508969720789793"><ele>237.0</ele><time>2026-04-18T15:42:26Z</time></trkpt><trkpt lat="46.109511614217766" lon="13.508958518017952"><ele>240.99999999999997</ele><time>2026-04-18T15:42:30Z</time></trkpt><trkpt lat="46.10957981331385" lon="13.508982256358248"><ele>245.0</ele><time>2026-04-18T15:42:34Z</time></trkpt><trkpt lat="46.109642746605545" lon="13.50901647135303"><ele>249.0</ele><time>2026-04-18T15:42:38Z</time></trkpt><trkpt lat="46.1096882726709" lon="13.509082775455653"><ele>249.0</ele><time>2026-04-18T15:42:42Z</time></trkpt><trkpt lat="46.10968700818051" lon="13.509181293761472"><ele>248.99999999999997</ele><time>2026-04-18T15:42:46Z</time></trkpt><trkpt lat="46.109621362728205" lon="13.509242374066455"><ele>249.0</ele><time>2026-04-18T15:42:51Z</time></trkpt><trkpt lat="46.109574853711614" lon="13.509315167031664"><ele>249.0</ele><time>2026-04-18T15:42:55Z</time></trkpt><trkpt lat="46.10956137330796" lon="13.509413172187767"><ele>248.99999999999997</ele><time>2026-04-18T15:42:59Z</time></trkpt><trkpt lat="46.1095556865127" lon="13.50951939292203"><ele>249.0</ele><time>2026-04-18T15:43:03Z</time></trkpt><trkpt lat="46.1095434081516" lon="13.509619189706044"><ele>249.0</ele><time>2026-04-18T15:43:07Z</time></trkpt><trkpt lat="46.10952439442274" lon="13.509716493685353"><ele>251.33333333333334</ele><time>2026-04-18T15:43:10.999Z</time></trkpt><trkpt lat="46.10949594933022" lon="13.50981574225447"><ele>253.66666666666669</ele><time>2026-04-18T15:43:14.999Z</time></trkpt><trkpt lat="46.109439456739146" lon="13.50989435382431"><ele>256.0</ele><time>2026-04-18T15:43:19.999Z</time></trkpt><trkpt lat="46.10938186806365" lon="13.509949676285885"><ele>258.33333333333337</ele><time>2026-04-18T15:43:23.999Z</time></trkpt><trkpt lat="46.10933379270614" lon="13.51003351096134"><ele>260.6666666666667</ele><time>2026-04-18T15:43:27.999Z</time></trkpt><trkpt lat="46.109287653871505" lon="13.510106949349337"><ele>263.0</ele><time>2026-04-18T15:43:31.999Z</time></trkpt><trkpt lat="46.10922189632296" lon="13.510188904601012"><ele>263.0</ele><time>2026-04-18T15:43:36.999Z</time></trkpt><trkpt lat="46.10918073864278" lon="13.510267869222556"><ele>263.0</ele><time>2026-04-18T15:43:39.999Z</time></trkpt><trkpt lat="46.10912892666236" lon="13.510357000331753"><ele>263.0</ele><time>2026-04-18T15:43:43.999Z</time></trkpt><trkpt lat="46.10909030163938" lon="13.51043287109041"><ele>263.0</ele><time>2026-04-18T15:43:46.999Z</time></trkpt><trkpt lat="46.109055845201226" lon="13.510527509208703"><ele>263.0</ele><time>2026-04-18T15:43:50.999Z</time></trkpt><trkpt lat="46.10902552048271" lon="13.510632188682177"><ele>263.0</ele><time>2026-04-18T15:43:54.999Z</time></trkpt><trkpt lat="46.108996821815325" lon="13.510728923086733"><ele>263.0</ele><time>2026-04-18T15:43:58.999Z</time></trkpt><trkpt lat="46.10894483855067" lon="13.510828002894113"><ele>262.0</ele><time>2026-04-18T15:44:03.999Z</time></trkpt><trkpt lat="46.10889378851989" lon="13.51091507829663"><ele>261.0</ele><time>2026-04-18T15:44:07.999Z</time></trkpt><trkpt lat="46.108839973386765" lon="13.510984483119003"><ele>260.0</ele><time>2026-04-18T15:44:13.998Z</time></trkpt><trkpt lat="46.10878651505262" lon="13.511068052673194"><ele>259.0</ele><time>2026-04-18T15:44:18.998Z</time></trkpt><trkpt lat="46.10874610918195" lon="13.511141493360867"><ele>258.0</ele><time>2026-04-18T15:44:21.998Z</time></trkpt><trkpt lat="46.10869826794914" lon="13.511214258335961"><ele>257.0</ele><time>2026-04-18T15:44:25.998Z</time></trkpt><trkpt lat="46.108660456947185" lon="13.51131650789494"><ele>256.0</ele><time>2026-04-18T15:44:29.998Z</time></trkpt><trkpt lat="46.10862221799656" lon="13.511404387996524"><ele>259.1428571428571</ele><time>2026-04-18T15:44:34Z</time></trkpt><trkpt lat="46.1085865780344" lon="13.511488699733636"><ele>262.2857142857143</ele><time>2026-04-18T15:44:38Z</time></trkpt><trkpt lat="46.10855445677816" lon="13.511590554592955"><ele>265.42857142857144</ele><time>2026-04-18T15:44:42Z</time></trkpt><trkpt lat="46.10851360870976" lon="13.511662685400331"><ele>268.57142857142856</ele><time>2026-04-18T15:44:46Z</time></trkpt><trkpt lat="46.108480559877776" lon="13.511767098445999"><ele>271.7142857142857</ele><time>2026-04-18T15:44:50Z</time></trkpt><trkpt lat="46.10841959604999" lon="13.511834668345958"><ele>274.85714285714283</ele><time>2026-04-18T15:44:54Z</time></trkpt><trkpt lat="46.10838600347248" lon="13.511924848496264"><ele>278.0</ele><time>2026-04-18T15:44:57Z</time></trkpt><trkpt lat="46.10835945309664" lon="13.512014045280841"><ele>278.85714285714283</ele><time>2026-04-18T15:45:01Z</time></trkpt><trkpt lat="46.108328945482064" lon="13.51212443655605"><ele>279.7142857142857</ele><time>2026-04-18T15:45:05Z</time></trkpt><trkpt lat="46.10829950171648" lon="13.512216397229418"><ele>280.57142857142856</ele><time>2026-04-18T15:45:09Z</time></trkpt><trkpt lat="46.10827582792605" lon="13.512305645943469"><ele>281.42857142857144</ele><time>2026-04-18T15:45:12Z</time></trkpt><trkpt lat="46.108235584282546" lon="13.512388795496708"><ele>282.2857142857143</ele><time>2026-04-18T15:45:15.999Z</time></trkpt><trkpt lat="46.10818761085571" lon="13.512483704563541"><ele>283.1428571428571</ele><time>2026-04-18T15:45:19.999Z</time></trkpt><trkpt lat="46.108142314000844" lon="13.5125638250072"><ele>284.0</ele><time>2026-04-18T15:45:23.999Z</time></trkpt><trkpt lat="46.108117060107475" lon="13.51265956158427"><ele>284.0</ele><time>2026-04-18T15:45:25.999Z</time></trkpt><trkpt lat="46.108072846622036" lon="13.512742092794223"><ele>284.0</ele><time>2026-04-18T15:45:29.999Z</time></trkpt><trkpt lat="46.10800833054289" lon="13.512803200753588"><ele>284.0</ele><time>2026-04-18T15:45:33.999Z</time></trkpt><trkpt lat="46.10798215385745" lon="13.512908459721803"><ele>284.0</ele><time>2026-04-18T15:45:36.999Z</time></trkpt><trkpt lat="46.10793834880743" lon="13.512987958351253"><ele>284.0</ele><time>2026-04-18T15:45:40.999Z</time></trkpt><trkpt lat="46.10792011604843" lon="13.51308649590614"><ele>284.0</ele><time>2026-04-18T15:45:48.999Z</time></trkpt><trkpt lat="46.10786823209546" lon="13.513145280305704"><ele>284.0</ele><time>2026-04-18T15:45:55.999Z</time></trkpt><trkpt lat="46.10780361500485" lon="13.513187046061738"><ele>287.1428571428571</ele><time>2026-04-18T15:46:03.999Z</time></trkpt><trkpt lat="46.10774166736529" lon="13.51320499676872"><ele>290.2857142857143</ele><time>2026-04-18T15:46:07.999Z</time></trkpt><trkpt lat="46.10767785745025" lon="13.513264014890236"><ele>293.42857142857144</ele><time>2026-04-18T15:46:14.998Z</time></trkpt><trkpt lat="46.107622902683154" lon="13.513327905112675"><ele>296.57142857142856</ele><time>2026-04-18T15:46:31.998Z</time></trkpt><trkpt lat="46.107676211613345" lon="13.513381906359733"><ele>299.7142857142857</ele><time>2026-04-18T15:46:49Z</time></trkpt><trkpt lat="46.107733761977684" lon="13.513311675114137"><ele>302.85714285714283</ele><time>2026-04-18T15:46:56Z</time></trkpt><trkpt lat="46.107795345567446" lon="13.513280643976309"><ele>306.0</ele><time>2026-04-18T15:46:59Z</time></trkpt><trkpt lat="46.10786431300099" lon="13.5132533826475"><ele>306.0</ele><time>2026-04-18T15:47:02Z</time></trkpt><trkpt lat="46.10793943120045" lon="13.513233236814953"><ele>306.0</ele><time>2026-04-18T15:47:08Z</time></trkpt><trkpt lat="46.108010066225184" lon="13.513194619100895"><ele>306.0</ele><time>2026-04-18T15:47:19.999Z</time></trkpt><trkpt lat="46.10806951479765" lon="13.513156283444387"><ele>306.0</ele><time>2026-04-18T15:47:23.999Z</time></trkpt><trkpt lat="46.10814136117484" lon="13.513120765285972"><ele>306.0</ele><time>2026-04-18T15:47:27.999Z</time></trkpt><trkpt lat="46.10821155361838" lon="13.513083952200558"><ele>306.0</ele><time>2026-04-18T15:47:33.999Z</time></trkpt><trkpt lat="46.10827341894007" lon="13.513039937458183"><ele>306.0</ele><time>2026-04-18T15:47:38.999Z</time></trkpt><trkpt lat="46.10834314919023" lon="13.513000774751665"><ele>305.1428571428571</ele><time>2026-04-18T15:47:42.999Z</time></trkpt><trkpt lat="46.108367305419385" lon="13.51290773430757"><ele>304.2857142857143</ele><time>2026-04-18T15:47:45.999Z</time></trkpt><trkpt lat="46.108435662650756" lon="13.512847059663986"><ele>303.42857142857144</ele><time>2026-04-18T15:47:49.999Z</time></trkpt><trkpt lat="46.10850069889697" lon="13.51280443957109"><ele>302.57142857142856</ele><time>2026-04-18T15:47:53.999Z</time></trkpt><trkpt lat="46.108529804570374" lon="13.512722594536031"><ele>301.7142857142857</ele><time>2026-04-18T15:47:59.999Z</time></trkpt><trkpt lat="46.10855585413387" lon="13.512628000571683"><ele>300.85714285714283</ele><time>2026-04-18T15:48:03.999Z</time></trkpt><trkpt lat="46.10860587484787" lon="13.512571380017366"><ele>300.0</ele><time>2026-04-18T15:48:05.999Z</time></trkpt><trkpt lat="46.10866166469815" lon="13.512484775908147"><ele>300.0</ele><time>2026-04-18T15:48:08.999Z</time></trkpt><trkpt lat="46.10872172630637" lon="13.512452101698303"><ele>300.0</ele><time>2026-04-18T15:48:11.999Z</time></trkpt><trkpt lat="46.10879295369511" lon="13.512420168409847"><ele>300.0</ele><time>2026-04-18T15:48:14.999Z</time></trkpt><trkpt lat="46.10887448903506" lon="13.512401312441161"><ele>300.0</ele><time>2026-04-18T15:48:18.998Z</time></trkpt><trkpt lat="46.10894190752376" lon="13.512365273824907"><ele>300.0</ele><time>2026-04-18T15:48:22.998Z</time></trkpt><trkpt lat="46.10903318115138" lon="13.512347820663187"><ele>300.0</ele><time>2026-04-18T15:48:27.998Z</time></trkpt><trkpt lat="46.10912370694967" lon="13.512373499115643"><ele>302.2857142857143</ele><time>2026-04-18T15:48:31.998Z</time></trkpt><trkpt lat="46.109181273735516" lon="13.512413702632763"><ele>304.57142857142856</ele><time>2026-04-18T15:48:35.998Z</time></trkpt><trkpt lat="46.109231551838135" lon="13.512478352175453"><ele>306.8571428571429</ele><time>2026-04-18T15:48:41.998Z</time></trkpt><trkpt lat="46.1092592215726" lon="13.512560722297653"><ele>309.1428571428571</ele><time>2026-04-18T15:48:45Z</time></trkpt><trkpt lat="46.10928974441011" lon="13.512649442538107"><ele>311.42857142857144</ele><time>2026-04-18T15:48:50Z</time></trkpt><trkpt lat="46.10930589521436" lon="13.5127608578449"><ele>313.7142857142857</ele><time>2026-04-18T15:48:56Z</time></trkpt><trkpt lat="46.109321742234485" lon="13.51285493996975"><ele>316.0</ele><time>2026-04-18T15:49:00Z</time></trkpt><trkpt lat="46.10932366727108" lon="13.512962414930648"><ele>317.7142857142857</ele><time>2026-04-18T15:49:04Z</time></trkpt><trkpt lat="46.109321419225104" lon="13.513082796093956"><ele>319.42857142857144</ele><time>2026-04-18T15:49:14Z</time></trkpt><trkpt lat="46.10932875584885" lon="13.513178425348112"><ele>321.1428571428571</ele><time>2026-04-18T15:49:20Z</time></trkpt><trkpt lat="46.10932964525705" lon="13.513275256218757"><ele>322.8571428571429</ele><time>2026-04-18T15:49:25.999Z</time></trkpt><trkpt lat="46.10936069644465" lon="13.513379139996353"><ele>324.57142857142856</ele><time>2026-04-18T15:49:31.999Z</time></trkpt><trkpt lat="46.109323374855656" lon="13.51347408728223"><ele>326.2857142857143</ele><time>2026-04-18T15:49:37.999Z</time></trkpt><trkpt lat="46.10929936258324" lon="13.513573250253497"><ele>328.0</ele><time>2026-04-18T15:49:42.999Z</time></trkpt><trkpt lat="46.10927776016678" lon="13.513661962424537"><ele>327.85714285714283</ele><time>2026-04-18T15:49:47.999Z</time></trkpt><trkpt lat="46.10923821979817" lon="13.513743290162253"><ele>327.7142857142857</ele><time>2026-04-18T15:49:51.999Z</time></trkpt><trkpt lat="46.109222448838004" lon="13.513832409931126"><ele>327.57142857142856</ele><time>2026-04-18T15:49:55.999Z</time></trkpt><trkpt lat="46.10918406196668" lon="13.513920656413115"><ele>327.42857142857144</ele><time>2026-04-18T15:50:00.999Z</time></trkpt><trkpt lat="46.109133677185966" lon="13.513993205846656"><ele>327.2857142857143</ele><time>2026-04-18T15:50:06.999Z</time></trkpt><trkpt lat="46.10908571158351" lon="13.514056678871741"><ele>327.1428571428571</ele><time>2026-04-18T15:50:11.999Z</time></trkpt><trkpt lat="46.109021712489984" lon="13.514088042127959"><ele>327.0</ele><time>2026-04-18T15:50:15.999Z</time></trkpt><trkpt lat="46.10898754649193" lon="13.51416934682058"><ele>328.7142857142857</ele><time>2026-04-18T15:50:20.999Z</time></trkpt><trkpt lat="46.10892138079142" lon="13.514233268073387"><ele>330.42857142857144</ele><time>2026-04-18T15:50:26.998Z</time></trkpt><trkpt lat="46.10890264561667" lon="13.514320987666016"><ele>332.1428571428571</ele><time>2026-04-18T15:50:32.998Z</time></trkpt><trkpt lat="46.108844820194186" lon="13.514362760797281"><ele>333.8571428571429</ele><time>2026-04-18T15:50:37.998Z</time></trkpt><trkpt lat="46.10881448079766" lon="13.514443620724666"><ele>335.5714285714286</ele><time>2026-04-18T15:50:42.998Z</time></trkpt><trkpt lat="46.10875472675907" lon="13.514522072727765"><ele>337.2857142857143</ele><time>2026-04-18T15:50:49Z</time></trkpt><trkpt lat="46.108721343669494" lon="13.514600951771149"><ele>339.0</ele><time>2026-04-18T15:50:55Z</time></trkpt><trkpt lat="46.108721796789176" lon="13.514701857238288"><ele>341.5</ele><time>2026-04-18T15:50:59Z</time></trkpt><trkpt lat="46.10865912749472" lon="13.514867790220713"><ele>344.0</ele><time>2026-04-18T15:51:30Z</time></trkpt><trkpt lat="46.10864109479187" lon="13.5149574659938"><ele>346.5</ele><time>2026-04-18T15:51:36.999Z</time></trkpt><trkpt lat="46.10860270539978" lon="13.515041663733044"><ele>349.0</ele><time>2026-04-18T15:51:45.999Z</time></trkpt><trkpt lat="46.108575972357414" lon="13.515127913713165"><ele>351.5</ele><time>2026-04-18T15:51:52.999Z</time></trkpt><trkpt lat="46.108571561110956" lon="13.515223438046915"><ele>354.0</ele><time>2026-04-18T15:51:58.999Z</time></trkpt><trkpt lat="46.10855110434851" lon="13.515333515857861"><ele>355.8571428571429</ele><time>2026-04-18T15:52:04.999Z</time></trkpt><trkpt lat="46.10854625199111" lon="13.515424346043465"><ele>357.71428571428567</ele><time>2026-04-18T15:52:10.999Z</time></trkpt><trkpt lat="46.1085349327171" lon="13.515525168732573"><ele>359.57142857142856</ele><time>2026-04-18T15:52:16.999Z</time></trkpt><trkpt lat="46.10853880424647" lon="13.515645401833863"><ele>361.42857142857144</ele><time>2026-04-18T15:52:21.999Z</time></trkpt><trkpt lat="46.10856126593322" lon="13.51573401150385"><ele>363.28571428571433</ele><time>2026-04-18T15:52:27.999Z</time></trkpt><trkpt lat="46.10852724692614" lon="13.51582195170241"><ele>365.1428571428571</ele><time>2026-04-18T15:52:32.999Z</time></trkpt><trkpt lat="46.108491373459074" lon="13.515902719947368"><ele>367.0</ele><time>2026-04-18T15:52:38.998Z</time></trkpt><trkpt lat="46.10847898948166" lon="13.51600160865452"><ele>367.0</ele><time>2026-04-18T15:52:43.998Z</time></trkpt><trkpt lat="46.10843708487662" lon="13.516097189229905"><ele>367.0</ele><time>2026-04-18T15:52:51.998Z</time></trkpt><trkpt lat="46.10846936581922" lon="13.51619236152707"><ele>367.0</ele><time>2026-04-18T15:52:59Z</time></trkpt><trkpt lat="46.10850088827383" lon="13.516277200042383"><ele>367.0</ele><time>2026-04-18T15:53:07Z</time></trkpt><trkpt lat="46.10855990790916" lon="13.516383693428073"><ele>367.0</ele><time>2026-04-18T15:53:13Z</time></trkpt><trkpt lat="46.10860001005866" lon="13.516476566650908"><ele>367.0</ele><time>2026-04-18T15:53:21Z</time></trkpt><trkpt lat="46.10860800126221" lon="13.516571479597262"><ele>369.0</ele><time>2026-04-18T15:53:25Z</time></trkpt><trkpt lat="46.10866449501251" lon="13.516629976152265"><ele>371.0</ele><time>2026-04-18T15:53:32Z</time></trkpt><trkpt lat="46.10872785212655" lon="13.516630772924168"><ele>373.0</ele><time>2026-04-18T15:53:38Z</time></trkpt><trkpt lat="46.10877087848647" lon="13.516701048595763"><ele>375.0</ele><time>2026-04-18T15:53:39.999Z</time></trkpt><trkpt lat="46.10882815166018" lon="13.516742437526194"><ele>377.0</ele><time>2026-04-18T15:53:42.999Z</time></trkpt><trkpt lat="46.10888524220211" lon="13.516823311921208"><ele>379.0</ele><time>2026-04-18T15:53:46.999Z</time></trkpt><trkpt lat="46.10894754155263" lon="13.516885274398636"><ele>381.0</ele><time>2026-04-18T15:53:50.999Z</time></trkpt><trkpt lat="46.109014259219514" lon="13.516960669749905"><ele>381.6666666666667</ele><time>2026-04-18T15:53:55.999Z</time></trkpt><trkpt lat="46.10908246559414" lon="13.517013589532224"><ele>382.33333333333337</ele><time>2026-04-18T15:53:59.999Z</time></trkpt><trkpt lat="46.10914607450846" lon="13.517075162762758"><ele>383.0</ele><time>2026-04-18T15:54:04.999Z</time></trkpt><trkpt lat="46.10920824008965" lon="13.517136268044558"><ele>383.6666666666667</ele><time>2026-04-18T15:54:08.999Z</time></trkpt><trkpt lat="46.109267820478" lon="13.517210595073971"><ele>384.33333333333337</ele><time>2026-04-18T15:54:12.999Z</time></trkpt><trkpt lat="46.10931991367042" lon="13.51728816826347"><ele>385.0</ele><time>2026-04-18T15:54:17.999Z</time></trkpt><trkpt lat="46.10938602561418" lon="13.517332164201513"><ele>385.0</ele><time>2026-04-18T15:54:21.999Z</time></trkpt><trkpt lat="46.10945026807325" lon="13.517370867995968"><ele>385.0</ele><time>2026-04-18T15:54:25.999Z</time></trkpt><trkpt lat="46.10951839711315" lon="13.517361254490437"><ele>385.0</ele><time>2026-04-18T15:54:29.999Z</time></trkpt><trkpt lat="46.10957021501125" lon="13.517429137640226"><ele>385.0</ele><time>2026-04-18T15:54:32.999Z</time></trkpt><trkpt lat="46.10960204450952" lon="13.517530377339776"><ele>385.0</ele><time>2026-04-18T15:54:35.999Z</time></trkpt><trkpt lat="46.10962619862828" lon="13.51763669752257"><ele>385.0</ele><time>2026-04-18T15:54:38.999Z</time></trkpt><trkpt lat="46.10966454907548" lon="13.517720385536673"><ele>385.0</ele><time>2026-04-18T15:54:42.998Z</time></trkpt><trkpt lat="46.10969189580328" lon="13.517864758608962"><ele>388.1666666666667</ele><time>2026-04-18T15:54:45.998Z</time></trkpt><trkpt lat="46.10972241917617" lon="13.517964821361467"><ele>391.33333333333337</ele><time>2026-04-18T15:54:48.998Z</time></trkpt><trkpt lat="46.10972314123911" lon="13.518068692047624"><ele>394.5</ele><time>2026-04-18T15:54:52.998Z</time></trkpt><trkpt lat="46.10975380488088" lon="13.518188688593488"><ele>397.66666666666663</ele><time>2026-04-18T15:54:55.998Z</time></trkpt><trkpt lat="46.10977030799261" lon="13.518294176672113"><ele>400.8333333333333</ele><time>2026-04-18T15:54:58.998Z</time></trkpt><trkpt lat="46.10980503786497" lon="13.518389325672281"><ele>404.0</ele><time>2026-04-18T15:55:02Z</time></trkpt><trkpt lat="46.109826854419175" lon="13.518494032407977"><ele>403.99999999999994</ele><time>2026-04-18T15:55:05Z</time></trkpt><trkpt lat="46.109866220425886" lon="13.518587070560157"><ele>404.0</ele><time>2026-04-18T15:55:07Z</time></trkpt><trkpt lat="46.10987395260089" lon="13.518696380550349"><ele>404.0</ele><time>2026-04-18T15:55:10Z</time></trkpt><trkpt lat="46.10988047815368" lon="13.518792557903257"><ele>404.0</ele><time>2026-04-18T15:55:13Z</time></trkpt><trkpt lat="46.1098974017365" lon="13.518885066864895"><ele>403.99999999999994</ele><time>2026-04-18T15:55:17Z</time></trkpt><trkpt lat="46.10987683375436" lon="13.519016582857688"><ele>404.0</ele><time>2026-04-18T15:56:18.999Z</time></trkpt><trkpt lat="46.10990925094767" lon="13.519122645960202"><ele>398.49999999999994</ele><time>2026-04-18T15:57:04.998Z</time></trkpt><trkpt lat="46.10992271587881" lon="13.519240349621384"><ele>393.0</ele><time>2026-04-18T15:57:07Z</time></trkpt><trkpt lat="46.109942641484" lon="13.519344136008868"><ele>387.5</ele><time>2026-04-18T15:57:10Z</time></trkpt><trkpt lat="46.10998680177816" lon="13.519436249911747"><ele>382.0</ele><time>2026-04-18T15:57:12Z</time></trkpt><trkpt lat="46.11001786621399" lon="13.519530800945386"><ele>376.5</ele><time>2026-04-18T15:57:14Z</time></trkpt><trkpt lat="46.11005103017481" lon="13.5196321782899"><ele>371.0</ele><time>2026-04-18T15:57:16Z</time></trkpt><trkpt lat="46.11007699743906" lon="13.519739867366187"><ele>370.1666666666667</ele><time>2026-04-18T15:57:19Z</time></trkpt><trkpt lat="46.11010088962485" lon="13.5198776965874"><ele>369.33333333333337</ele><time>2026-04-18T15:57:21Z</time></trkpt><trkpt lat="46.11009461456102" lon="13.519997774920036"><ele>368.5</ele><time>2026-04-18T15:57:23Z</time></trkpt><trkpt lat="46.11009765718525" lon="13.520098302696598"><ele>367.6666666666667</ele><time>2026-04-18T15:57:27Z</time></trkpt><trkpt lat="46.110120842268735" lon="13.520183283898117"><ele>366.8333333333333</ele><time>2026-04-18T15:57:30Z</time></trkpt><trkpt lat="46.11012428827343" lon="13.520295685013588"><ele>366.0</ele><time>2026-04-18T15:57:34Z</time></trkpt><trkpt lat="46.11012135142287" lon="13.52038772170272"><ele>365.0</ele><time>2026-04-18T15:57:37Z</time></trkpt><trkpt lat="46.11016736800268" lon="13.520511065737516"><ele>364.0</ele><time>2026-04-18T15:57:40Z</time></trkpt><trkpt lat="46.110198611057854" lon="13.52061450530716"><ele>363.0</ele><time>2026-04-18T15:57:43Z</time></trkpt><trkpt lat="46.11023925482664" lon="13.520735506668386"><ele>362.0</ele><time>2026-04-18T15:57:45Z</time></trkpt><trkpt lat="46.11027938490372" lon="13.520837461660042"><ele>361.0</ele><time>2026-04-18T15:57:48Z</time></trkpt><trkpt lat="46.11035083426888" lon="13.520850389987299"><ele>360.0</ele><time>2026-04-18T15:57:51.999Z</time></trkpt><trkpt lat="46.11043427333478" lon="13.520840222196602"><ele>360.0</ele><time>2026-04-18T15:57:54.999Z</time></trkpt><trkpt lat="46.110524612812625" lon="13.52080651924262"><ele>360.0</ele><time>2026-04-18T15:57:56.999Z</time></trkpt><trkpt lat="46.11059063361816" lon="13.520780058713369"><ele>360.0</ele><time>2026-04-18T15:57:58.999Z</time></trkpt><trkpt lat="46.11065776078325" lon="13.520753177028116"><ele>360.0</ele><time>2026-04-18T15:58:01.999Z</time></trkpt><trkpt lat="46.11073430284377" lon="13.520777989004149"><ele>360.0</ele><time>2026-04-18T15:58:04.999Z</time></trkpt><trkpt lat="46.1108038256202" lon="13.520793181251358"><ele>360.0</ele><time>2026-04-18T15:58:08.999Z</time></trkpt><trkpt lat="46.1108801918653" lon="13.520826004175968"><ele>354.3333333333333</ele><time>2026-04-18T15:58:12.999Z</time></trkpt><trkpt lat="46.11096974947762" lon="13.52079334588156"><ele>348.6666666666667</ele><time>2026-04-18T15:58:15.999Z</time></trkpt><trkpt lat="46.11100908304874" lon="13.520711485756507"><ele>343.0</ele><time>2026-04-18T15:58:17.999Z</time></trkpt><trkpt lat="46.11108325975722" lon="13.520758830999192"><ele>337.33333333333337</ele><time>2026-04-18T15:58:20.999Z</time></trkpt><trkpt lat="46.1111587863925" lon="13.520778121538553"><ele>331.6666666666667</ele><time>2026-04-18T15:58:24.999Z</time></trkpt><trkpt lat="46.11124889319937" lon="13.520750821464494"><ele>326.0</ele><time>2026-04-18T15:58:27.999Z</time></trkpt><trkpt lat="46.111324174267786" lon="13.520685800884502"><ele>326.0</ele><time>2026-04-18T15:58:31.999Z</time></trkpt><trkpt lat="46.11135882296673" lon="13.520597350755391"><ele>326.0</ele><time>2026-04-18T15:58:34.999Z</time></trkpt><trkpt lat="46.111461729547536" lon="13.520600000826443"><ele>326.0</ele><time>2026-04-18T15:58:37.999Z</time></trkpt><trkpt lat="46.111520937134564" lon="13.52065039955897"><ele>326.0</ele><time>2026-04-18T15:58:40.999Z</time></trkpt><trkpt lat="46.11161539818906" lon="13.520728948498308"><ele>326.0</ele><time>2026-04-18T15:58:42.999Z</time></trkpt><trkpt lat="46.11171061229688" lon="13.520814683067979"><ele>324.0</ele><time>2026-04-18T15:58:44.999Z</time></trkpt><trkpt lat="46.11173888842806" lon="13.520902381488051"><ele>322.0</ele><time>2026-04-18T15:58:46.999Z</time></trkpt><trkpt lat="46.11174009065305" lon="13.521006724803058"><ele>320.0</ele><time>2026-04-18T15:58:48.999Z</time></trkpt><trkpt lat="46.11177671945448" lon="13.521086135888108"><ele>318.0</ele><time>2026-04-18T15:58:50.998Z</time></trkpt><trkpt lat="46.1118197451327" lon="13.521153785613144"><ele>316.0</ele><time>2026-04-18T15:58:56.998Z</time></trkpt><trkpt lat="46.11187219613633" lon="13.521217445467867"><ele>314.0</ele><time>2026-04-18T15:58:59.998Z</time></trkpt><trkpt lat="46.11194632152882" lon="13.521226833199302"><ele>312.0</ele><time>2026-04-18T15:59:03.998Z</time></trkpt><trkpt lat="46.11203344031151" lon="13.521288561705466"><ele>310.6666666666667</ele><time>2026-04-18T15:59:39Z</time></trkpt><trkpt lat="46.11204019965887" lon="13.52139440352026"><ele>309.3333333333333</ele><time>2026-04-18T15:59:41Z</time></trkpt><trkpt lat="46.11207486113837" lon="13.521506800000909"><ele>308.0</ele><time>2026-04-18T15:59:46Z</time></trkpt><trkpt lat="46.11206234250576" lon="13.521662807948234"><ele>306.66666666666663</ele><time>2026-04-18T15:59:49Z</time></trkpt><trkpt lat="46.11206157760212" lon="13.521773914993208"><ele>305.3333333333333</ele><time>2026-04-18T15:59:52Z</time></trkpt><trkpt lat="46.112111206896394" lon="13.521902144541922"><ele>304.0</ele><time>2026-04-18T15:59:56Z</time></trkpt><trkpt lat="46.11211160530844" lon="13.52206227496579"><ele>300.5</ele><time>2026-04-18T15:59:58Z</time></trkpt><trkpt lat="46.11202549876947" lon="13.522154152153462"><ele>297.0</ele><time>2026-04-18T15:59:59.999Z</time></trkpt><trkpt lat="46.11197513724437" lon="13.52221650561887"><ele>293.5</ele><time>2026-04-18T16:00:02.999Z</time></trkpt><trkpt lat="46.111984346266844" lon="13.52233029695813"><ele>290.0</ele><time>2026-04-18T16:00:06.999Z</time></trkpt><trkpt lat="46.11200969318137" lon="13.522418310706847"><ele>286.5</ele><time>2026-04-18T16:00:10.999Z</time></trkpt><trkpt lat="46.11206125724361" lon="13.52247409356804"><ele>283.0</ele><time>2026-04-18T16:00:27.999Z</time></trkpt><trkpt lat="46.11212019107703" lon="13.522402722893645"><ele>283.0</ele><time>2026-04-18T16:00:30.999Z</time></trkpt><trkpt lat="46.11216792095103" lon="13.522270089255883"><ele>283.0</ele><time>2026-04-18T16:01:04.998Z</time></trkpt><trkpt lat="46.11224646300843" lon="13.522259819091843"><ele>283.0</ele><time>2026-04-18T16:01:08.998Z</time></trkpt><trkpt lat="46.11231277500124" lon="13.522233894111803"><ele>283.0</ele><time>2026-04-18T16:01:10.998Z</time></trkpt><trkpt lat="46.112374267854335" lon="13.5221967461754"><ele>283.0</ele><time>2026-04-18T16:01:13.998Z</time></trkpt><trkpt lat="46.1124369445662" lon="13.522207513005279"><ele>283.0</ele><time>2026-04-18T16:01:19Z</time></trkpt><trkpt lat="46.11250334912417" lon="13.522212311978244"><ele>283.0</ele><time>2026-04-18T16:01:26Z</time></trkpt><trkpt lat="46.1125721955723" lon="13.522255572229248"><ele>281.3333333333333</ele><time>2026-04-18T16:01:32Z</time></trkpt><trkpt lat="46.11263076601963" lon="13.52230485647974"><ele>279.66666666666663</ele><time>2026-04-18T16:01:33Z</time></trkpt><trkpt lat="46.112534253535955" lon="13.522288029481317"><ele>278.0</ele><time>2026-04-18T16:01:53Z</time></trkpt><trkpt lat="46.11258904340086" lon="13.522203826411998"><ele>276.3333333333333</ele><time>2026-04-18T16:02:44.999Z</time></trkpt><trkpt lat="46.112673109252576" lon="13.522150981466176"><ele>274.6666666666667</ele><time>2026-04-18T16:02:51.999Z</time></trkpt><trkpt lat="46.112753494070155" lon="13.52218369108857"><ele>273.0</ele><time>2026-04-18T16:02:56.999Z</time></trkpt><trkpt lat="46.11282688416129" lon="13.522173866609828"><ele>273.0</ele><time>2026-04-18T16:03:13.998Z</time></trkpt><trkpt lat="46.11290639999299" lon="13.52215462769727"><ele>273.0</ele><time>2026-04-18T16:03:20.998Z</time></trkpt><trkpt lat="46.11296845286601" lon="13.522089310720178"><ele>273.0</ele><time>2026-04-18T16:03:25Z</time></trkpt><trkpt lat="46.11302711788128" lon="13.522039466401466"><ele>273.0</ele><time>2026-04-18T16:03:28Z</time></trkpt><trkpt lat="46.113105177198904" lon="13.521948680514509"><ele>273.0</ele><time>2026-04-18T16:03:31Z</time></trkpt><trkpt lat="46.11314168907455" lon="13.521870110651536"><ele>273.0</ele><time>2026-04-18T16:03:33Z</time></trkpt><trkpt lat="46.11319599549243" lon="13.521822340377927"><ele>269.1666666666667</ele><time>2026-04-18T16:03:39Z</time></trkpt><trkpt lat="46.11329112150239" lon="13.52180951304001"><ele>265.3333333333333</ele><time>2026-04-18T16:03:52Z</time></trkpt><trkpt lat="46.113360110953444" lon="13.521738000493025"><ele>261.5</ele><time>2026-04-18T16:03:56Z</time></trkpt><trkpt lat="46.11338840424974" lon="13.5216182021006"><ele>257.66666666666663</ele><time>2026-04-18T16:03:59Z</time></trkpt><trkpt lat="46.11343154486793" lon="13.52151466824993"><ele>253.83333333333331</ele><time>2026-04-18T16:04:19.999Z</time></trkpt><trkpt lat="46.11346275300737" lon="13.521415520753196"><ele>250.0</ele><time>2026-04-18T16:04:25.999Z</time></trkpt><trkpt lat="46.11349731641054" lon="13.521326483681136"><ele>250.0</ele><time>2026-04-18T16:04:30.999Z</time></trkpt><trkpt lat="46.113567181289255" lon="13.52124510140637"><ele>250.0</ele><time>2026-04-18T16:04:36.999Z</time></trkpt><trkpt lat="46.11360734513889" lon="13.521170550855865"><ele>250.0</ele><time>2026-04-18T16:04:40.999Z</time></trkpt><trkpt lat="46.11360617220035" lon="13.5210725740636"><ele>250.0</ele><time>2026-04-18T16:04:46.999Z</time></trkpt><trkpt lat="46.113627301208496" lon="13.52096358941326"><ele>250.0</ele><time>2026-04-18T16:04:51.999Z</time></trkpt><trkpt lat="46.113663362111545" lon="13.520888993815888"><ele>250.0</ele><time>2026-04-18T16:04:54.999Z</time></trkpt><trkpt lat="46.11372953222533" lon="13.520871494691201"><ele>250.0</ele><time>2026-04-18T16:05:05.999Z</time></trkpt><trkpt lat="46.113771016808904" lon="13.520956690225074"><ele>250.0</ele><time>2026-04-18T16:05:11.998Z</time></trkpt><trkpt lat="46.11382151530605" lon="13.521055082615986"><ele>250.0</ele><time>2026-04-18T16:05:15.998Z</time></trkpt><trkpt lat="46.11383150252224" lon="13.521157178628641"><ele>250.0</ele><time>2026-04-18T16:05:18.998Z</time></trkpt><trkpt lat="46.113836650815216" lon="13.521269263953151"><ele>250.0</ele><time>2026-04-18T16:05:19.998Z</time></trkpt><trkpt lat="46.11386759685098" lon="13.521362545262063"><ele>250.0</ele><time>2026-04-18T16:05:20.998Z</time></trkpt><trkpt lat="46.113892880327256" lon="13.521454030770265"><ele>250.0</ele><time>2026-04-18T16:05:23.998Z</time></trkpt><trkpt lat="46.11394672900012" lon="13.521519086579588"><ele>250.0</ele><time>2026-04-18T16:05:27.998Z</time></trkpt><trkpt lat="46.11397948783004" lon="13.521601206842975"><ele>250.0</ele><time>2026-04-18T16:05:31Z</time></trkpt><trkpt lat="46.11403003280106" lon="13.521682412997444"><ele>250.0</ele><time>2026-04-18T16:05:34Z</time></trkpt><trkpt lat="46.11409814103154" lon="13.521682794648493"><ele>250.0</ele><time>2026-04-18T16:05:39Z</time></trkpt><trkpt lat="46.114170469903286" lon="13.521639994694686"><ele>250.0</ele><time>2026-04-18T16:05:44Z</time></trkpt><trkpt lat="46.11424032143085" lon="13.521607211883472"><ele>250.0</ele><time>2026-04-18T16:05:47Z</time></trkpt><trkpt lat="46.11431190603233" lon="13.521615584334091"><ele>250.0</ele><time>2026-04-18T16:05:50Z</time></trkpt><trkpt lat="46.114383839096504" lon="13.521647512971404"><ele>250.0</ele><time>2026-04-18T16:05:52Z</time></trkpt><trkpt lat="46.11444862972233" lon="13.521686047285133"><ele>243.0</ele><time>2026-04-18T16:05:54Z</time></trkpt><trkpt lat="46.11451070508384" lon="13.521658319750191"><ele>236.0</ele><time>2026-04-18T16:05:58Z</time></trkpt><trkpt lat="46.11458068194768" lon="13.521677006463804"><ele>229.0</ele><time>2026-04-18T16:06:02Z</time></trkpt><trkpt lat="46.11463944781337" lon="13.521716179973287"><ele>222.0</ele><time>2026-04-18T16:06:07Z</time></trkpt><trkpt lat="46.11465886283993" lon="13.521619757234472"><ele>215.0</ele><time>2026-04-18T16:06:32.999Z</time></trkpt><trkpt lat="46.11463935163618" lon="13.521511513766185"><ele>208.0</ele><time>2026-04-18T16:06:35.999Z</time></trkpt><trkpt lat="46.11460081728753" lon="13.521432028210885"><ele>201.0</ele><time>2026-04-18T16:06:37.999Z</time></trkpt><trkpt lat="46.11454852839252" lon="13.52134551298781"><ele>200.33333333333334</ele><time>2026-04-18T16:06:39.999Z</time></trkpt><trkpt lat="46.1145181801425" lon="13.521227777135653"><ele>199.66666666666669</ele><time>2026-04-18T16:06:41.999Z</time></trkpt><trkpt lat="46.11452082477424" lon="13.521103820989048"><ele>199.0</ele><time>2026-04-18T16:06:43.999Z</time></trkpt><trkpt lat="46.11452686345754" lon="13.520949457337505"><ele>198.33333333333334</ele><time>2026-04-18T16:06:45.999Z</time></trkpt><trkpt lat="46.11451822660203" lon="13.520858278918205"><ele>197.66666666666669</ele><time>2026-04-18T16:06:47.999Z</time></trkpt><trkpt lat="46.11450314902539" lon="13.520729562882106"><ele>197.0</ele><time>2026-04-18T16:06:56.999Z</time></trkpt><trkpt lat="46.11453398008211" lon="13.52061920258836"><ele>197.00000000000003</ele><time>2026-04-18T16:07:00.999Z</time></trkpt><trkpt lat="46.114586340638304" lon="13.520520139488369"><ele>197.0</ele><time>2026-04-18T16:07:25.998Z</time></trkpt><trkpt lat="46.11458360924074" lon="13.520401944824423"><ele>197.0</ele><time>2026-04-18T16:07:35.998Z</time></trkpt><trkpt lat="46.11459432916566" lon="13.520282661499223"><ele>197.0</ele><time>2026-04-18T16:07:42Z</time></trkpt><trkpt lat="46.11456413792466" lon="13.520196788288628"><ele>197.00000000000003</ele><time>2026-04-18T16:07:44Z</time></trkpt><trkpt lat="46.114537097747515" lon="13.520093975667345"><ele>197.0</ele><time>2026-04-18T16:07:46Z</time></trkpt><trkpt lat="46.114527989011954" lon="13.519985082187684"><ele>195.66666666666669</ele><time>2026-04-18T16:07:48Z</time></trkpt><trkpt lat="46.11449725597626" lon="13.519892834342492"><ele>194.33333333333334</ele><time>2026-04-18T16:07:50Z</time></trkpt><trkpt lat="46.11448944699873" lon="13.519783523862802"><ele>193.0</ele><time>2026-04-18T16:07:53Z</time></trkpt><trkpt lat="46.11447753878602" lon="13.519667075375791"><ele>191.66666666666669</ele><time>2026-04-18T16:07:55Z</time></trkpt><trkpt lat="46.114507550396446" lon="13.519532692142333"><ele>190.33333333333334</ele><time>2026-04-18T16:07:58Z</time></trkpt><trkpt lat="46.11456165132866" lon="13.519471919481328"><ele>189.0</ele><time>2026-04-18T16:08:01Z</time></trkpt><trkpt lat="46.114586820269736" lon="13.51937727436138"><ele>187.0</ele><time>2026-04-18T16:08:03Z</time></trkpt><trkpt lat="46.11462972134607" lon="13.519253706415691"><ele>185.0</ele><time>2026-04-18T16:08:05Z</time></trkpt><trkpt lat="46.11465497748246" lon="13.519134343971448"><ele>183.0</ele><time>2026-04-18T16:08:07Z</time></trkpt><trkpt lat="46.114670771781725" lon="13.518964288237667"><ele>181.0</ele><time>2026-04-18T16:08:09Z</time></trkpt><trkpt lat="46.11467802677035" lon="13.518868349737657"><ele>179.0</ele><time>2026-04-18T16:08:13Z</time></trkpt><trkpt lat="46.11476502019492" lon="13.518781205718449"><ele>179.0</ele><time>2026-04-18T16:08:51.999Z</time></trkpt><trkpt lat="46.11470441806934" lon="13.518827388071331"><ele>179.0</ele><time>2026-04-18T16:08:59.999Z</time></trkpt><trkpt lat="46.11471514178015" lon="13.518708905988843"><ele>179.0</ele><time>2026-04-18T16:09:02.999Z</time></trkpt><trkpt lat="46.114788410928554" lon="13.518657425153897"><ele>179.0</ele><time>2026-04-18T16:09:07.999Z</time></trkpt><trkpt lat="46.11488351364551" lon="13.518629905184003"><ele>179.0</ele><time>2026-04-18T16:09:10.999Z</time></trkpt><trkpt lat="46.11497699176745" lon="13.518634002067031"><ele>179.0</ele><time>2026-04-18T16:09:12.999Z</time></trkpt><trkpt lat="46.115046035053865" lon="13.518627330972015"><ele>174.33333333333331</ele><time>2026-04-18T16:09:14.999Z</time></trkpt><trkpt lat="46.115115285506015" lon="13.518602497683784"><ele>169.66666666666666</ele><time>2026-04-18T16:09:16.999Z</time></trkpt><trkpt lat="46.11521228844576" lon="13.518595927805485"><ele>165.0</ele><time>2026-04-18T16:09:18.999Z</time></trkpt><trkpt lat="46.1152801073872" lon="13.518572319949081"><ele>160.33333333333334</ele><time>2026-04-18T16:09:21.999Z</time></trkpt><trkpt lat="46.115343696981924" lon="13.51857790615743"><ele>155.66666666666669</ele><time>2026-04-18T16:09:23.999Z</time></trkpt><trkpt lat="46.11540936176298" lon="13.518548935154296"><ele>151.0</ele><time>2026-04-18T16:09:25.998Z</time></trkpt><trkpt lat="46.11548916166729" lon="13.518491513061461"><ele>151.0</ele><time>2026-04-18T16:09:27.998Z</time></trkpt><trkpt lat="46.115570451508376" lon="13.518459002200325"><ele>151.0</ele><time>2026-04-18T16:09:29.998Z</time></trkpt><trkpt lat="46.115667411049955" lon="13.51843663572317"><ele>151.0</ele><time>2026-04-18T16:09:32.998Z</time></trkpt><trkpt lat="46.1157464879077" lon="13.518432483109345"><ele>151.0</ele><time>2026-04-18T16:09:35.998Z</time></trkpt><trkpt lat="46.11580497760962" lon="13.518467046761467"><ele>151.0</ele><time>2026-04-18T16:09:37.998Z</time></trkpt><trkpt lat="46.11588872512541" lon="13.51848568260219"><ele>151.0</ele><time>2026-04-18T16:09:40.998Z</time></trkpt><trkpt lat="46.11597662284352" lon="13.518508981328148"><ele>151.0</ele><time>2026-04-18T16:09:43Z</time></trkpt><trkpt lat="46.11607554961619" lon="13.518558095079623"><ele>151.0</ele><time>2026-04-18T16:09:45Z</time></trkpt><trkpt lat="46.11617487673044" lon="13.51855620484783"><ele>151.0</ele><time>2026-04-18T16:09:54Z</time></trkpt><trkpt lat="46.11621495333148" lon="13.518636146496103"><ele>151.0</ele><time>2026-04-18T16:10:05Z</time></trkpt><trkpt lat="46.116281438032594" lon="13.518760571604584"><ele>151.0</ele><time>2026-04-18T16:12:04Z</time></trkpt><trkpt lat="46.11634138838728" lon="13.518822724820282"><ele>151.0</ele><time>2026-04-18T16:12:10Z</time></trkpt><trkpt lat="46.11639475028763" lon="13.51888827869731"><ele>151.0</ele><time>2026-04-18T16:12:12Z</time></trkpt><trkpt lat="46.116467849167925" lon="13.518961092167132"><ele>151.0</ele><time>2026-04-18T16:12:15Z</time></trkpt><trkpt lat="46.11653489261813" lon="13.519013669198637"><ele>151.0</ele><time>2026-04-18T16:12:17Z</time></trkpt><trkpt lat="46.116610293667996" lon="13.519072853657205"><ele>151.0</ele><time>2026-04-18T16:12:20Z</time></trkpt><trkpt lat="46.116677510072364" lon="13.51912662111993"><ele>151.0</ele><time>2026-04-18T16:12:23Z</time></trkpt><trkpt lat="46.11675632830707" lon="13.519163308255282"><ele>151.5</ele><time>2026-04-18T16:12:26Z</time></trkpt><trkpt lat="46.116810248005784" lon="13.519263202622541"><ele>152.0</ele><time>2026-04-18T16:12:29Z</time></trkpt><trkpt lat="46.11690512930033" lon="13.519311252704139"><ele>152.5</ele><time>2026-04-18T16:12:31Z</time></trkpt><trkpt lat="46.116983465331614" lon="13.519334259759065"><ele>153.0</ele><time>2026-04-18T16:12:33Z</time></trkpt><trkpt lat="46.117049070525425" lon="13.51937269512991"><ele>153.5</ele><time>2026-04-18T16:13:20.999Z</time></trkpt><trkpt lat="46.1171136065864" lon="13.519450708996132"><ele>154.0</ele><time>2026-04-18T16:13:23.999Z</time></trkpt><trkpt lat="46.11718341069566" lon="13.519531812974817"><ele>153.71428571428572</ele><time>2026-04-18T16:13:26.999Z</time></trkpt><trkpt lat="46.11723667874355" lon="13.519588594602816"><ele>153.42857142857144</ele><time>2026-04-18T16:13:28.999Z</time></trkpt><trkpt lat="46.117288356485744" lon="13.519648098385108"><ele>153.14285714285714</ele><time>2026-04-18T16:13:30.999Z</time></trkpt><trkpt lat="46.11735377567725" lon="13.519754848835603"><ele>152.85714285714286</ele><time>2026-04-18T16:13:33.999Z</time></trkpt><trkpt lat="46.11738931486569" lon="13.519846046216507"><ele>152.57142857142858</ele><time>2026-04-18T16:13:35.999Z</time></trkpt><trkpt lat="46.11741731459943" lon="13.519941796595678"><ele>152.28571428571428</ele><time>2026-04-18T16:13:37.998Z</time></trkpt><trkpt lat="46.11744014189853" lon="13.520034016672502"><ele>152.0</ele><time>2026-04-18T16:13:39.998Z</time></trkpt><trkpt lat="46.11746163313624" lon="13.520141889746245"><ele>152.0</ele><time>2026-04-18T16:13:41.998Z</time></trkpt><trkpt lat="46.11748363914353" lon="13.52024656289548"><ele>152.0</ele><time>2026-04-18T16:13:43.998Z</time></trkpt><trkpt lat="46.1175229405553" lon="13.52034916886001"><ele>152.0</ele><time>2026-04-18T16:13:45.998Z</time></trkpt><trkpt lat="46.117574384480584" lon="13.520429619257039"><ele>152.0</ele><time>2026-04-18T16:13:47.998Z</time></trkpt><trkpt lat="46.11762189855064" lon="13.52050621587983"><ele>152.0</ele><time>2026-04-18T16:13:49.998Z</time></trkpt><trkpt lat="46.11767180611755" lon="13.52058827205194"><ele>152.0</ele><time>2026-04-18T16:13:51.998Z</time></trkpt><trkpt lat="46.117727458751965" lon="13.520665678700967"><ele>152.16666666666666</ele><time>2026-04-18T16:13:53.998Z</time></trkpt><trkpt lat="46.11778567624455" lon="13.52073670578139"><ele>152.33333333333331</ele><time>2026-04-18T16:13:56Z</time></trkpt><trkpt lat="46.11785590688458" lon="13.520805814149572"><ele>152.5</ele><time>2026-04-18T16:13:58Z</time></trkpt><trkpt lat="46.11792494539926" lon="13.520862612783239"><ele>152.66666666666666</ele><time>2026-04-18T16:14:00Z</time></trkpt><trkpt lat="46.11799957091116" lon="13.520834883201728"><ele>152.83333333333334</ele><time>2026-04-18T16:14:03Z</time></trkpt><trkpt lat="46.118051906053985" lon="13.520775118290969"><ele>153.0</ele><time>2026-04-18T16:14:05Z</time></trkpt><trkpt lat="46.118114217643985" lon="13.520710549680558"><ele>153.0</ele><time>2026-04-18T16:14:07Z</time></trkpt><trkpt lat="46.11818301326084" lon="13.52064011727923"><ele>153.0</ele><time>2026-04-18T16:14:10Z</time></trkpt><trkpt lat="46.11827677538035" lon="13.52066472470849"><ele>153.0</ele><time>2026-04-18T16:14:15Z</time></trkpt><trkpt lat="46.1183363961584" lon="13.5207486667668"><ele>153.0</ele><time>2026-04-18T16:14:17Z</time></trkpt><trkpt lat="46.11838677213443" lon="13.520834538035107"><ele>153.0</ele><time>2026-04-18T16:14:19Z</time></trkpt><trkpt lat="46.11844503569813" lon="13.52091492165184"><ele>153.0</ele><time>2026-04-18T16:14:21Z</time></trkpt><trkpt lat="46.1185073146773" lon="13.521000779653233"><ele>152.83333333333334</ele><time>2026-04-18T16:14:23Z</time></trkpt><trkpt lat="46.118562340215284" lon="13.521066335242876"><ele>152.66666666666666</ele><time>2026-04-18T16:14:26Z</time></trkpt><trkpt lat="46.11861676473588" lon="13.521145618965718"><ele>152.5</ele><time>2026-04-18T16:14:31Z</time></trkpt><trkpt lat="46.118680581641335" lon="13.521214562104076"><ele>152.33333333333331</ele><time>2026-04-18T16:14:35Z</time></trkpt><trkpt lat="46.11874516701917" lon="13.52128931330019"><ele>152.16666666666666</ele><time>2026-04-18T16:14:39Z</time></trkpt><trkpt lat="46.118793618207086" lon="13.52134792266716"><ele>152.0</ele><time>2026-04-18T16:14:41.999Z</time></trkpt><trkpt lat="46.11885808980641" lon="13.521429242966567"><ele>152.33333333333331</ele><time>2026-04-18T16:14:44.999Z</time></trkpt><trkpt lat="46.11893241145639" lon="13.521484700246171"><ele>152.66666666666666</ele><time>2026-04-18T16:14:47.999Z</time></trkpt><trkpt lat="46.119001003878076" lon="13.521575857278004"><ele>153.0</ele><time>2026-04-18T16:14:49.999Z</time></trkpt><trkpt lat="46.11906827526926" lon="13.52165213713378"><ele>153.33333333333334</ele><time>2026-04-18T16:14:51.999Z</time></trkpt><trkpt lat="46.11913549944691" lon="13.521738674697756"><ele>153.66666666666669</ele><time>2026-04-18T16:14:54.999Z</time></trkpt><trkpt lat="46.11918999929566" lon="13.521800292387208"><ele>154.0</ele><time>2026-04-18T16:14:56.999Z</time></trkpt><trkpt lat="46.11925055746325" lon="13.521864579107667"><ele>154.0</ele><time>2026-04-18T16:14:58.999Z</time></trkpt><trkpt lat="46.11930899515927" lon="13.52193144507613"><ele>154.0</ele><time>2026-04-18T16:15:00.999Z</time></trkpt><trkpt lat="46.11937082882531" lon="13.521993608792815"><ele>154.0</ele><time>2026-04-18T16:15:02.999Z</time></trkpt><trkpt lat="46.11942076457315" lon="13.522053832761339"><ele>154.0</ele><time>2026-04-18T16:15:04.999Z</time></trkpt><trkpt lat="46.119494269795624" lon="13.522115125789275"><ele>154.0</ele><time>2026-04-18T16:15:07.999Z</time></trkpt><trkpt lat="46.11956046848862" lon="13.522158646293368"><ele>154.0</ele><time>2026-04-18T16:15:09.999Z</time></trkpt><trkpt lat="46.11961731749827" lon="13.52223383297935"><ele>154.0</ele><time>2026-04-18T16:15:11.999Z</time></trkpt><trkpt lat="46.119671961098064" lon="13.522305063910045"><ele>154.0</ele><time>2026-04-18T16:15:13.999Z</time></trkpt><trkpt lat="46.119718331358676" lon="13.522392410498876"><ele>154.0</ele><time>2026-04-18T16:15:15.999Z</time></trkpt><trkpt lat="46.11975295307793" lon="13.522469736738353"><ele>154.0</ele><time>2026-04-18T16:15:18.999Z</time></trkpt><trkpt lat="46.119809766560735" lon="13.522568192888816"><ele>154.0</ele><time>2026-04-18T16:15:21.999Z</time></trkpt><trkpt lat="46.119884145339505" lon="13.52269289110881"><ele>154.0</ele><time>2026-04-18T16:15:24.999Z</time></trkpt><trkpt lat="46.119939211473046" lon="13.522811401674453"><ele>154.16666666666669</ele><time>2026-04-18T16:15:26.999Z</time></trkpt><trkpt lat="46.11998692348267" lon="13.522928449885997"><ele>154.33333333333334</ele><time>2026-04-18T16:15:28.999Z</time></trkpt><trkpt lat="46.12002829743867" lon="13.523042086197181"><ele>154.5</ele><time>2026-04-18T16:15:30.999Z</time></trkpt><trkpt lat="46.12007037111788" lon="13.523133919846053"><ele>154.66666666666666</ele><time>2026-04-18T16:15:32.999Z</time></trkpt><trkpt lat="46.120110468563254" lon="13.523221723049854"><ele>154.83333333333331</ele><time>2026-04-18T16:15:34.999Z</time></trkpt><trkpt lat="46.12014886844416" lon="13.523300589163252"><ele>155.0</ele><time>2026-04-18T16:15:36.999Z</time></trkpt><trkpt lat="46.120190328578616" lon="13.523404114305286"><ele>155.0</ele><time>2026-04-18T16:15:38.999Z</time></trkpt><trkpt lat="46.12023923075793" lon="13.523503105380223"><ele>155.0</ele><time>2026-04-18T16:15:40.998Z</time></trkpt><trkpt lat="46.12027996253136" lon="13.523585386893888"><ele>155.0</ele><time>2026-04-18T16:15:42.998Z</time></trkpt><trkpt lat="46.12031025276623" lon="13.523674837649073"><ele>155.0</ele><time>2026-04-18T16:15:44.998Z</time></trkpt><trkpt lat="46.12035728405643" lon="13.523748802449308"><ele>155.0</ele><time>2026-04-18T16:15:46.998Z</time></trkpt><trkpt lat="46.12041759564504" lon="13.523797263393192"><ele>155.0</ele><time>2026-04-18T16:15:48.998Z</time></trkpt><trkpt lat="46.12051517807063" lon="13.523800496991733"><ele>155.0</ele><time>2026-04-18T16:15:51.998Z</time></trkpt><trkpt lat="46.12060118328382" lon="13.523746176820309"><ele>155.0</ele><time>2026-04-18T16:15:54.998Z</time></trkpt><trkpt lat="46.1206834545565" lon="13.523706579016755"><ele>155.0</ele><time>2026-04-18T16:15:57.998Z</time></trkpt><trkpt lat="46.120764561368425" lon="13.523676538574444"><ele>155.0</ele><time>2026-04-18T16:16:01Z</time></trkpt><trkpt lat="46.12083553346616" lon="13.523642383388763"><ele>155.0</ele><time>2026-04-18T16:16:04Z</time></trkpt><trkpt lat="46.120927880484466" lon="13.523700803658393"><ele>155.0</ele><time>2026-04-18T16:16:07Z</time></trkpt><trkpt lat="46.120976469751184" lon="13.52377550750621"><ele>155.33333333333331</ele><time>2026-04-18T16:16:09Z</time></trkpt><trkpt lat="46.12100470218782" lon="13.523694131009941"><ele>155.66666666666666</ele><time>2026-04-18T16:16:11Z</time></trkpt><trkpt lat="46.121041911764884" lon="13.523591847004992"><ele>156.0</ele><time>2026-04-18T16:16:13Z</time></trkpt><trkpt lat="46.12105698378197" lon="13.52347086501363"><ele>156.33333333333334</ele><time>2026-04-18T16:16:15Z</time></trkpt><trkpt lat="46.12111122032963" lon="13.523375809190053"><ele>156.66666666666669</ele><time>2026-04-18T16:16:17Z</time></trkpt><trkpt lat="46.12121515969853" lon="13.52335547407156"><ele>157.0</ele><time>2026-04-18T16:16:19Z</time></trkpt><trkpt lat="46.12131619746839" lon="13.523381167841936"><ele>157.0</ele><time>2026-04-18T16:16:21Z</time></trkpt><trkpt lat="46.121432927616276" lon="13.523406909281336"><ele>157.0</ele><time>2026-04-18T16:16:23Z</time></trkpt><trkpt lat="46.121552104321076" lon="13.523437338063184"><ele>157.0</ele><time>2026-04-18T16:16:25Z</time></trkpt><trkpt lat="46.12161563708121" lon="13.5234527122294"><ele>157.0</ele><time>2026-04-18T16:16:26Z</time></trkpt><trkpt lat="46.12171874067869" lon="13.523501059871348"><ele>157.0</ele><time>2026-04-18T16:16:28Z</time></trkpt><trkpt lat="46.12183256139669" lon="13.523531671594846"><ele>157.2</ele><time>2026-04-18T16:16:30Z</time></trkpt><trkpt lat="46.12194470972946" lon="13.523570578357331"><ele>157.39999999999998</ele><time>2026-04-18T16:16:32Z</time></trkpt><trkpt lat="46.1220523780874" lon="13.523644535254533"><ele>157.60000000000002</ele><time>2026-04-18T16:16:34Z</time></trkpt><trkpt lat="46.12210618285531" lon="13.523692180222033"><ele>157.8</ele><time>2026-04-18T16:16:35Z</time></trkpt><trkpt lat="46.12221334213636" lon="13.523746480498271"><ele>158.0</ele><time>2026-04-18T16:16:37Z</time></trkpt><trkpt lat="46.122321833336976" lon="13.523758439406118"><ele>158.60000000000002</ele><time>2026-04-18T16:16:39Z</time></trkpt><trkpt lat="46.12244081051926" lon="13.523769147436086"><ele>159.20000000000002</ele><time>2026-04-18T16:16:41Z</time></trkpt><trkpt lat="46.1225482964374" lon="13.523752420568023"><ele>159.8</ele><time>2026-04-18T16:16:43Z</time></trkpt><trkpt lat="46.12265969316337" lon="13.523731367875218"><ele>160.4</ele><time>2026-04-18T16:16:44.999Z</time></trkpt><trkpt lat="46.122765595418386" lon="13.523694815781791"><ele>161.0</ele><time>2026-04-18T16:16:46.999Z</time></trkpt><trkpt lat="46.12286296039111" lon="13.5236464008721"><ele>161.20000000000002</ele><time>2026-04-18T16:16:48.999Z</time></trkpt><trkpt lat="46.122963117351475" lon="13.523617461294885"><ele>161.4</ele><time>2026-04-18T16:16:50.999Z</time></trkpt><trkpt lat="46.12307531187545" lon="13.523594568212381"><ele>161.6</ele><time>2026-04-18T16:16:52.999Z</time></trkpt><trkpt lat="46.1231822027979" lon="13.523572773081872"><ele>161.8</ele><time>2026-04-18T16:16:54.999Z</time></trkpt><trkpt lat="46.12329523477455" lon="13.523563454245744"><ele>162.0</ele><time>2026-04-18T16:16:56.999Z</time></trkpt><trkpt lat="46.123407551049226" lon="13.523560367984281"><ele>161.6</ele><time>2026-04-18T16:16:58.999Z</time></trkpt><trkpt lat="46.123516871535784" lon="13.523566307055432"><ele>161.2</ele><time>2026-04-18T16:17:00.999Z</time></trkpt><trkpt lat="46.12362279585802" lon="13.523583487988663"><ele>160.8</ele><time>2026-04-18T16:17:02.999Z</time></trkpt><trkpt lat="46.12372964219146" lon="13.523613470897097"><ele>160.4</ele><time>2026-04-18T16:17:04.999Z</time></trkpt><trkpt lat="46.12383079187493" lon="13.523651538966352"><ele>160.0</ele><time>2026-04-18T16:17:06.999Z</time></trkpt><trkpt lat="46.123919873245136" lon="13.523696404367335"><ele>160.0</ele><time>2026-04-18T16:17:08.999Z</time></trkpt><trkpt lat="46.1240064380247" lon="13.523740879663483"><ele>160.0</ele><time>2026-04-18T16:17:10.999Z</time></trkpt><trkpt lat="46.12410301299787" lon="13.523774428424257"><ele>160.0</ele><time>2026-04-18T16:17:12.999Z</time></trkpt><trkpt lat="46.12418995975025" lon="13.523779960134972"><ele>160.0</ele><time>2026-04-18T16:17:14.999Z</time></trkpt><trkpt lat="46.124262497132456" lon="13.523763254965981"><ele>160.0</ele><time>2026-04-18T16:17:28.999Z</time></trkpt><trkpt lat="46.12432478886423" lon="13.523808195513972"><ele>160.0</ele><time>2026-04-18T16:17:31.999Z</time></trkpt><trkpt lat="46.124384079360276" lon="13.523893547061078"><ele>159.4</ele><time>2026-04-18T16:17:34.999Z</time></trkpt><trkpt lat="46.12446520129014" lon="13.523931199933202"><ele>158.8</ele><time>2026-04-18T16:17:37.999Z</time></trkpt><trkpt lat="46.12456061970915" lon="13.523963521986307"><ele>158.2</ele><time>2026-04-18T16:17:40.999Z</time></trkpt><trkpt lat="46.124633627541996" lon="13.52403071391587"><ele>157.6</ele><time>2026-04-18T16:17:42.998Z</time></trkpt><trkpt lat="46.12468516688001" lon="13.524134842451605"><ele>157.0</ele><time>2026-04-18T16:17:44.998Z</time></trkpt><trkpt lat="46.12475564312501" lon="13.524254435982694"><ele>157.0</ele><time>2026-04-18T16:17:46.998Z</time></trkpt><trkpt lat="46.12483807326713" lon="13.524368453792668"><ele>157.0</ele><time>2026-04-18T16:17:48.998Z</time></trkpt><trkpt lat="46.124901520712925" lon="13.524484121034982"><ele>157.0</ele><time>2026-04-18T16:17:50.998Z</time></trkpt><trkpt lat="46.124933945996354" lon="13.5245671042742"><ele>157.0</ele><time>2026-04-18T16:17:53.998Z</time></trkpt><trkpt lat="46.12499924667356" lon="13.524647066945768"><ele>157.0</ele><time>2026-04-18T16:17:56.998Z</time></trkpt><trkpt lat="46.125072173904776" lon="13.524721373659133"><ele>157.57142857142856</ele><time>2026-04-18T16:17:58.998Z</time></trkpt><trkpt lat="46.12511500956501" lon="13.52479387403304"><ele>158.14285714285714</ele><time>2026-04-18T16:18:01.998Z</time></trkpt><trkpt lat="46.125187340503466" lon="13.524775281821695"><ele>158.71428571428572</ele><time>2026-04-18T16:18:04.998Z</time></trkpt><trkpt lat="46.12524607608848" lon="13.524720441615434"><ele>159.28571428571428</ele><time>2026-04-18T16:18:10Z</time></trkpt><trkpt lat="46.12532045208731" lon="13.524697726885186"><ele>159.85714285714286</ele><time>2026-04-18T16:18:14Z</time></trkpt><trkpt lat="46.12537551367153" lon="13.524648138433276"><ele>160.42857142857142</ele><time>2026-04-18T16:18:17Z</time></trkpt><trkpt lat="46.125430978601756" lon="13.524591880275118"><ele>161.0</ele><time>2026-04-18T16:18:21Z</time></trkpt><trkpt lat="46.1254897624791" lon="13.52453371875062"><ele>161.0</ele><time>2026-04-18T16:18:24Z</time></trkpt><trkpt lat="46.12555943659423" lon="13.52450287476832"><ele>161.0</ele><time>2026-04-18T16:18:27Z</time></trkpt><trkpt lat="46.12562372064707" lon="13.524451873964004"><ele>161.0</ele><time>2026-04-18T16:18:30Z</time></trkpt><trkpt lat="46.12570006960477" lon="13.5244421536939"><ele>161.0</ele><time>2026-04-18T16:18:33Z</time></trkpt><trkpt lat="46.12576193542397" lon="13.524519733578973"><ele>161.0</ele><time>2026-04-18T16:18:36Z</time></trkpt><trkpt lat="46.125825611046956" lon="13.524614454007788"><ele>161.0</ele><time>2026-04-18T16:18:39Z</time></trkpt><trkpt lat="46.12588246673474" lon="13.524687647577895"><ele>161.33333333333331</ele><time>2026-04-18T16:18:41Z</time></trkpt><trkpt lat="46.12593470695772" lon="13.524765130227383"><ele>161.66666666666666</ele><time>2026-04-18T16:18:43Z</time></trkpt><trkpt lat="46.12599124498592" lon="13.52485223943643"><ele>162.0</ele><time>2026-04-18T16:18:45Z</time></trkpt><trkpt lat="46.126048258004474" lon="13.524932365801366"><ele>162.33333333333334</ele><time>2026-04-18T16:18:47Z</time></trkpt><trkpt lat="46.12610951978952" lon="13.525021386681738"><ele>162.66666666666669</ele><time>2026-04-18T16:18:49Z</time></trkpt><trkpt lat="46.12617021947727" lon="13.525118931849402"><ele>163.0</ele><time>2026-04-18T16:18:51.999Z</time></trkpt><trkpt lat="46.126225931213206" lon="13.525187809165342"><ele>163.0</ele><time>2026-04-18T16:18:53.999Z</time></trkpt><trkpt lat="46.12628631892775" lon="13.525280440797198"><ele>163.0</ele><time>2026-04-18T16:18:55.999Z</time></trkpt><trkpt lat="46.12635549225673" lon="13.525377909525242"><ele>163.0</ele><time>2026-04-18T16:18:57.999Z</time></trkpt><trkpt lat="46.12643126158096" lon="13.5254908675097"><ele>163.0</ele><time>2026-04-18T16:18:59.999Z</time></trkpt><trkpt lat="46.126505227827515" lon="13.52559516825446"><ele>163.0</ele><time>2026-04-18T16:19:01.999Z</time></trkpt><trkpt lat="46.12657826320029" lon="13.525687987120797"><ele>163.0</ele><time>2026-04-18T16:19:03.999Z</time></trkpt><trkpt lat="46.126644784900165" lon="13.525792104392231"><ele>163.0</ele><time>2026-04-18T16:19:05.999Z</time></trkpt><trkpt lat="46.126717248997764" lon="13.525892892238645"><ele>163.0</ele><time>2026-04-18T16:19:07.999Z</time></trkpt><trkpt lat="46.12678814217422" lon="13.525994167145377"><ele>163.0</ele><time>2026-04-18T16:19:09.999Z</time></trkpt><trkpt lat="46.12685877147679" lon="13.526097414936762"><ele>163.0</ele><time>2026-04-18T16:19:11.999Z</time></trkpt><trkpt lat="46.12693421633499" lon="13.526206774148516"><ele>163.2</ele><time>2026-04-18T16:19:13.999Z</time></trkpt><trkpt lat="46.12701001336383" lon="13.526312670041365"><ele>163.4</ele><time>2026-04-18T16:19:15.999Z</time></trkpt><trkpt lat="46.12708287688318" lon="13.526424485665917"><ele>163.6</ele><time>2026-04-18T16:19:17.999Z</time></trkpt><trkpt lat="46.12716055584078" lon="13.526538205381776"><ele>163.79999999999998</ele><time>2026-04-18T16:19:19.999Z</time></trkpt><trkpt lat="46.127240987723965" lon="13.526657624120794"><ele>164.0</ele><time>2026-04-18T16:19:21.999Z</time></trkpt><trkpt lat="46.12732147494328" lon="13.526777450834798"><ele>164.0</ele><time>2026-04-18T16:19:23.999Z</time></trkpt><trkpt lat="46.12740425753862" lon="13.526900666665554"><ele>164.0</ele><time>2026-04-18T16:19:25.999Z</time></trkpt><trkpt lat="46.12749041920489" lon="13.527023147849498"><ele>164.0</ele><time>2026-04-18T16:19:27.999Z</time></trkpt><trkpt lat="46.12757372956561" lon="13.527150992450204"><ele>164.0</ele><time>2026-04-18T16:19:29.999Z</time></trkpt><trkpt lat="46.127659842659085" lon="13.527284400916836"><ele>163.79999999999998</ele><time>2026-04-18T16:19:31.999Z</time></trkpt><trkpt lat="46.127704092093936" lon="13.527350688595076"><ele>163.6</ele><time>2026-04-18T16:19:32.999Z</time></trkpt><trkpt lat="46.12779565211608" lon="13.527471743859818"><ele>163.4</ele><time>2026-04-18T16:19:34.999Z</time></trkpt><trkpt lat="46.12787770173581" lon="13.527595609066273"><ele>163.2</ele><time>2026-04-18T16:19:36.999Z</time></trkpt><trkpt lat="46.12795308731055" lon="13.527713104689889"><ele>163.0</ele><time>2026-04-18T16:19:38.999Z</time></trkpt><trkpt lat="46.12804012735998" lon="13.527825495084384"><ele>163.2</ele><time>2026-04-18T16:19:40.999Z</time></trkpt><trkpt lat="46.128135831016394" lon="13.52793766490028"><ele>163.4</ele><time>2026-04-18T16:19:42.999Z</time></trkpt><trkpt lat="46.12823041716416" lon="13.52805273082881"><ele>163.6</ele><time>2026-04-18T16:19:44.999Z</time></trkpt><trkpt lat="46.12827914114361" lon="13.528111984572266"><ele>163.79999999999998</ele><time>2026-04-18T16:19:45.999Z</time></trkpt><trkpt lat="46.12837213442381" lon="13.528213613849072"><ele>164.0</ele><time>2026-04-18T16:19:47.998Z</time></trkpt><trkpt lat="46.12846681527269" lon="13.528318128870227"><ele>165.25</ele><time>2026-04-18T16:19:49.998Z</time></trkpt><trkpt lat="46.12856361915997" lon="13.528421307143088"><ele>166.5</ele><time>2026-04-18T16:19:51.998Z</time></trkpt><trkpt lat="46.12866139570701" lon="13.528526246862542"><ele>167.75</ele><time>2026-04-18T16:19:53.998Z</time></trkpt><trkpt lat="46.12876453533011" lon="13.52861794278868"><ele>169.0</ele><time>2026-04-18T16:19:55.998Z</time></trkpt><trkpt lat="46.12886388798119" lon="13.528719916559142"><ele>169.25</ele><time>2026-04-18T16:19:57.998Z</time></trkpt><trkpt lat="46.12896826349349" lon="13.52880783275074"><ele>169.5</ele><time>2026-04-18T16:19:59.998Z</time></trkpt><trkpt lat="46.129070780739774" lon="13.528903937847492"><ele>169.75</ele><time>2026-04-18T16:20:01.998Z</time></trkpt><trkpt lat="46.12917514321288" lon="13.5289988500659"><ele>170.0</ele><time>2026-04-18T16:20:03.998Z</time></trkpt><trkpt lat="46.12927287082302" lon="13.529090217100425"><ele>170.0</ele><time>2026-04-18T16:20:05.998Z</time></trkpt><trkpt lat="46.12936918520314" lon="13.529174345556156"><ele>170.0</ele><time>2026-04-18T16:20:07.998Z</time></trkpt><trkpt lat="46.12946377512117" lon="13.529263929418843"><ele>170.0</ele><time>2026-04-18T16:20:09.998Z</time></trkpt><trkpt lat="46.12956143427737" lon="13.529352854637235"><ele>170.0</ele><time>2026-04-18T16:20:11.998Z</time></trkpt><trkpt lat="46.129665530529245" lon="13.529445355825539"><ele>170.0</ele><time>2026-04-18T16:20:14Z</time></trkpt><trkpt lat="46.12976069653894" lon="13.52954019525965"><ele>170.0</ele><time>2026-04-18T16:20:16Z</time></trkpt><trkpt lat="46.12985472552455" lon="13.529630347172832"><ele>170.0</ele><time>2026-04-18T16:20:18Z</time></trkpt><trkpt lat="46.12994567789108" lon="13.529726491367123"><ele>170.0</ele><time>2026-04-18T16:20:20Z</time></trkpt><trkpt lat="46.13003468370837" lon="13.529825450893133"><ele>171.4</ele><time>2026-04-18T16:20:22Z</time></trkpt><trkpt lat="46.130119767891735" lon="13.529922538745941"><ele>172.8</ele><time>2026-04-18T16:20:24Z</time></trkpt><trkpt lat="46.13019410014975" lon="13.530019669351269"><ele>174.2</ele><time>2026-04-18T16:20:26Z</time></trkpt><trkpt lat="46.130262115296006" lon="13.530108515328354"><ele>175.6</ele><time>2026-04-18T16:20:28Z</time></trkpt><trkpt lat="46.13031797153245" lon="13.530201907703962"><ele>177.0</ele><time>2026-04-18T16:20:30Z</time></trkpt><trkpt lat="46.13037630421732" lon="13.530305029658262"><ele>175.2</ele><time>2026-04-18T16:20:32Z</time></trkpt><trkpt lat="46.130439143749946" lon="13.530408338074611"><ele>173.39999999999998</ele><time>2026-04-18T16:20:34Z</time></trkpt><trkpt lat="46.130502578962655" lon="13.530507564280477"><ele>171.60000000000002</ele><time>2026-04-18T16:20:36Z</time></trkpt><trkpt lat="46.130558061463454" lon="13.530607794435962"><ele>169.8</ele><time>2026-04-18T16:20:38Z</time></trkpt><trkpt lat="46.130623606884875" lon="13.530698039803495"><ele>168.0</ele><time>2026-04-18T16:20:40Z</time></trkpt><trkpt lat="46.1306893294965" lon="13.530815653691915"><ele>168.8</ele><time>2026-04-18T16:20:42Z</time></trkpt><trkpt lat="46.130751012705474" lon="13.530935094197908"><ele>169.60000000000002</ele><time>2026-04-18T16:20:44Z</time></trkpt><trkpt lat="46.1308149896343" lon="13.531051224964756"><ele>170.39999999999998</ele><time>2026-04-18T16:20:46Z</time></trkpt><trkpt lat="46.13088739672223" lon="13.531160504765522"><ele>171.2</ele><time>2026-04-18T16:20:48Z</time></trkpt><trkpt lat="46.13095186790858" lon="13.531287243453795"><ele>172.0</ele><time>2026-04-18T16:20:50Z</time></trkpt><trkpt lat="46.13102187456958" lon="13.53141900185375"><ele>172.0</ele><time>2026-04-18T16:20:52Z</time></trkpt><trkpt lat="46.131088202256144" lon="13.531551802386147"><ele>172.0</ele><time>2026-04-18T16:20:53.999Z</time></trkpt><trkpt lat="46.13116050383771" lon="13.53167471841823"><ele>172.0</ele><time>2026-04-18T16:20:55.999Z</time></trkpt><trkpt lat="46.131238895516944" lon="13.531796656213254"><ele>172.0</ele><time>2026-04-18T16:20:57.999Z</time></trkpt><trkpt lat="46.13130964076683" lon="13.531922568865886"><ele>172.0</ele><time>2026-04-18T16:20:59.999Z</time></trkpt><trkpt lat="46.13138327952186" lon="13.532051792134046"><ele>172.0</ele><time>2026-04-18T16:21:01.999Z</time></trkpt><trkpt lat="46.131459337368916" lon="13.532181392381178"><ele>172.0</ele><time>2026-04-18T16:21:03.999Z</time></trkpt><trkpt lat="46.131543487900856" lon="13.532306899262831"><ele>172.0</ele><time>2026-04-18T16:21:05.999Z</time></trkpt><trkpt lat="46.13162675217332" lon="13.532432964858199"><ele>172.25</ele><time>2026-04-18T16:21:07.999Z</time></trkpt><trkpt lat="46.13171838712022" lon="13.532558483625667"><ele>172.5</ele><time>2026-04-18T16:21:09.999Z</time></trkpt><trkpt lat="46.13181041578783" lon="13.532681970079215"><ele>172.75</ele><time>2026-04-18T16:21:11.999Z</time></trkpt><trkpt lat="46.13189652815133" lon="13.53278823845693"><ele>173.0</ele><time>2026-04-18T16:21:13.999Z</time></trkpt><trkpt lat="46.131986439355586" lon="13.53288922042678"><ele>172.2</ele><time>2026-04-18T16:21:15.999Z</time></trkpt><trkpt lat="46.132076704085165" lon="13.532991169391156"><ele>171.4</ele><time>2026-04-18T16:21:17.999Z</time></trkpt><trkpt lat="46.13216293648402" lon="13.533088072684814"><ele>170.6</ele><time>2026-04-18T16:21:19.999Z</time></trkpt><trkpt lat="46.13224386008502" lon="13.533172163029896"><ele>169.79999999999998</ele><time>2026-04-18T16:21:21.999Z</time></trkpt><trkpt lat="46.132296116463976" lon="13.533300742026967"><ele>169.0</ele><time>2026-04-18T16:21:23.999Z</time></trkpt><trkpt lat="46.132285769210235" lon="13.53339785250677"><ele>169.0</ele><time>2026-04-18T16:21:24.999Z</time></trkpt><trkpt lat="46.132253282125774" lon="13.533569227201127"><ele>169.0</ele><time>2026-04-18T16:21:26.999Z</time></trkpt><trkpt lat="46.132217403562585" lon="13.533714042392003"><ele>169.0</ele><time>2026-04-18T16:21:28.999Z</time></trkpt><trkpt lat="46.13218939437885" lon="13.53385231766973"><ele>169.0</ele><time>2026-04-18T16:21:30.999Z</time></trkpt><trkpt lat="46.132164739391044" lon="13.533990339694114"><ele>169.0</ele><time>2026-04-18T16:21:32.999Z</time></trkpt><trkpt lat="46.13214405387342" lon="13.534130048517893"><ele>169.0</ele><time>2026-04-18T16:21:34.999Z</time></trkpt><trkpt lat="46.132136776503884" lon="13.534276781712757"><ele>169.0</ele><time>2026-04-18T16:21:36.999Z</time></trkpt><trkpt lat="46.13213573927396" lon="13.534419176722265"><ele>169.0</ele><time>2026-04-18T16:21:38.999Z</time></trkpt><trkpt lat="46.13215355431254" lon="13.53456640292803"><ele>169.0</ele><time>2026-04-18T16:21:40.999Z</time></trkpt><trkpt lat="46.13217046887823" lon="13.53471559017714"><ele>169.0</ele><time>2026-04-18T16:21:42.999Z</time></trkpt><trkpt lat="46.13217864767004" lon="13.534861685282129"><ele>169.2</ele><time>2026-04-18T16:21:44.999Z</time></trkpt><trkpt lat="46.13219125488467" lon="13.53501477903159"><ele>169.39999999999998</ele><time>2026-04-18T16:21:46.999Z</time></trkpt><trkpt lat="46.13220123109888" lon="13.535163263501687"><ele>169.6</ele><time>2026-04-18T16:21:48.999Z</time></trkpt><trkpt lat="46.132210707557526" lon="13.535305135614836"><ele>169.8</ele><time>2026-04-18T16:21:50.998Z</time></trkpt><trkpt lat="46.13222319247051" lon="13.535452781181618"><ele>170.0</ele><time>2026-04-18T16:21:52.998Z</time></trkpt><trkpt lat="46.132231084366104" lon="13.535591889152743"><ele>170.66666666666666</ele><time>2026-04-18T16:21:54.998Z</time></trkpt><trkpt lat="46.13222832849277" lon="13.535714097710429"><ele>171.33333333333331</ele><time>2026-04-18T16:21:56.998Z</time></trkpt><trkpt lat="46.13222833382977" lon="13.535839521858342"><ele>172.0</ele><time>2026-04-18T16:21:58.998Z</time></trkpt><trkpt lat="46.13224390052515" lon="13.535980230168764"><ele>172.66666666666666</ele><time>2026-04-18T16:22:00.998Z</time></trkpt><trkpt lat="46.13223691713772" lon="13.536106984547676"><ele>173.33333333333334</ele><time>2026-04-18T16:22:02.998Z</time></trkpt><trkpt lat="46.13221729388846" lon="13.536224064815492"><ele>174.0</ele><time>2026-04-18T16:22:04.998Z</time></trkpt><trkpt lat="46.132199571678605" lon="13.536333048838705"><ele>174.33333333333334</ele><time>2026-04-18T16:22:06.998Z</time></trkpt><trkpt lat="46.1322547959835" lon="13.53642040753887"><ele>174.66666666666666</ele><time>2026-04-18T16:23:27.999Z</time></trkpt><trkpt lat="46.13233740463698" lon="13.536455612759003"><ele>175.0</ele><time>2026-04-18T16:23:30.999Z</time></trkpt><trkpt lat="46.13242284341536" lon="13.536471824252272"><ele>175.33333333333331</ele><time>2026-04-18T16:23:33.999Z</time></trkpt><trkpt lat="46.132493492249964" lon="13.536450358148622"><ele>175.66666666666666</ele><time>2026-04-18T16:23:37.999Z</time></trkpt><trkpt lat="46.13255224948539" lon="13.536303313501008"><ele>176.0</ele><time>2026-04-18T16:23:39.999Z</time></trkpt><trkpt lat="46.132588202978575" lon="13.536208388373709"><ele>176.0</ele><time>2026-04-18T16:23:40.999Z</time></trkpt><trkpt lat="46.132625032222194" lon="13.536104055835633"><ele>176.0</ele><time>2026-04-18T16:23:41.999Z</time></trkpt><trkpt lat="46.132632751616654" lon="13.535992793214012"><ele>176.0</ele><time>2026-04-18T16:23:42.999Z</time></trkpt><trkpt lat="46.132637793118555" lon="13.535874791699545"><ele>176.0</ele><time>2026-04-18T16:23:44.999Z</time></trkpt><trkpt lat="46.13272981351073" lon="13.535920476098395"><ele>176.0</ele><time>2026-04-18T16:23:46.999Z</time></trkpt><trkpt lat="46.13279978182302" lon="13.53595947771469"><ele>176.0</ele><time>2026-04-18T16:23:49.999Z</time></trkpt><trkpt lat="46.132861874394685" lon="13.536080734197276"><ele>176.0</ele><time>2026-04-18T16:23:51.999Z</time></trkpt><trkpt lat="46.132953053926805" lon="13.536114398917604"><ele>176.0</ele><time>2026-04-18T16:23:53.999Z</time></trkpt><trkpt lat="46.133033243968114" lon="13.53614010924791"><ele>176.0</ele><time>2026-04-18T16:23:55.999Z</time></trkpt><trkpt lat="46.133107631142224" lon="13.536152497633053"><ele>176.0</ele><time>2026-04-18T16:23:57.999Z</time></trkpt><trkpt lat="46.133169927515745" lon="13.53617937113631"><ele>176.0</ele><time>2026-04-18T16:23:58.999Z</time></trkpt><trkpt lat="46.13326599516718" lon="13.536195862260941"><ele>176.0</ele><time>2026-04-18T16:24:00.999Z</time></trkpt><trkpt lat="46.13337167612636" lon="13.53619975298635"><ele>175.8</ele><time>2026-04-18T16:24:02.999Z</time></trkpt><trkpt lat="46.133459750612886" lon="13.53619055208959"><ele>175.60000000000002</ele><time>2026-04-18T16:24:04.999Z</time></trkpt><trkpt lat="46.1335487651229" lon="13.536157279049256"><ele>175.4</ele><time>2026-04-18T16:24:06.999Z</time></trkpt><trkpt lat="46.13363629059107" lon="13.53615764173768"><ele>175.2</ele><time>2026-04-18T16:24:08.999Z</time></trkpt><trkpt lat="46.13372752596061" lon="13.536159689597605"><ele>175.0</ele><time>2026-04-18T16:24:10.999Z</time></trkpt><trkpt lat="46.13382068164558" lon="13.536191588416663"><ele>176.6</ele><time>2026-04-18T16:24:12.998Z</time></trkpt><trkpt lat="46.13387034583759" lon="13.536305537729586"><ele>178.2</ele><time>2026-04-18T16:24:14.998Z</time></trkpt><trkpt lat="46.13392302428057" lon="13.536417695533325"><ele>179.8</ele><time>2026-04-18T16:24:16.998Z</time></trkpt><trkpt lat="46.13398702104832" lon="13.536521113679397"><ele>181.4</ele><time>2026-04-18T16:24:18.998Z</time></trkpt><trkpt lat="46.13406251991745" lon="13.536607045888967"><ele>183.0</ele><time>2026-04-18T16:24:20.998Z</time></trkpt><trkpt lat="46.13415832062319" lon="13.536661274809456"><ele>183.0</ele><time>2026-04-18T16:24:22.998Z</time></trkpt><trkpt lat="46.13425948059571" lon="13.536659324736847"><ele>183.0</ele><time>2026-04-18T16:24:25Z</time></trkpt><trkpt lat="46.13437086370976" lon="13.53662555945294"><ele>183.0</ele><time>2026-04-18T16:24:27Z</time></trkpt><trkpt lat="46.1344749464606" lon="13.53659183072718"><ele>183.0</ele><time>2026-04-18T16:24:29Z</time></trkpt><trkpt lat="46.13458645783303" lon="13.53660705158528"><ele>183.0</ele><time>2026-04-18T16:24:31Z</time></trkpt><trkpt lat="46.13468248715138" lon="13.536680990792755"><ele>183.0</ele><time>2026-04-18T16:24:33Z</time></trkpt><trkpt lat="46.13478439549545" lon="13.536784235470872"><ele>183.0</ele><time>2026-04-18T16:24:35Z</time></trkpt><trkpt lat="46.134876632484755" lon="13.536874413156415"><ele>183.0</ele><time>2026-04-18T16:24:37Z</time></trkpt><trkpt lat="46.13498539447458" lon="13.536956306830575"><ele>183.0</ele><time>2026-04-18T16:24:39Z</time></trkpt><trkpt lat="46.13509204375506" lon="13.536943235516857"><ele>181.60000000000002</ele><time>2026-04-18T16:24:41Z</time></trkpt><trkpt lat="46.13514621726749" lon="13.536881678442155"><ele>180.20000000000002</ele><time>2026-04-18T16:24:42Z</time></trkpt><trkpt lat="46.135184990507554" lon="13.536798362395658"><ele>178.8</ele><time>2026-04-18T16:24:43Z</time></trkpt><trkpt lat="46.135239125621965" lon="13.53664688664826"><ele>177.4</ele><time>2026-04-18T16:24:45Z</time></trkpt><trkpt lat="46.135314619435064" lon="13.53652862984674"><ele>176.0</ele><time>2026-04-18T16:24:47Z</time></trkpt><trkpt lat="46.13538043172487" lon="13.536412794460247"><ele>176.0</ele><time>2026-04-18T16:24:49Z</time></trkpt><trkpt lat="46.13547984295943" lon="13.536380431202932"><ele>176.0</ele><time>2026-04-18T16:24:51Z</time></trkpt><trkpt lat="46.135566898180706" lon="13.536394882300261"><ele>176.0</ele><time>2026-04-18T16:24:53Z</time></trkpt><trkpt lat="46.135503551946904" lon="13.536349557659644"><ele>176.0</ele><time>2026-04-18T16:25:43.999Z</time></trkpt><trkpt lat="46.13544480460374" lon="13.536304344025961"><ele>176.0</ele><time>2026-04-18T16:25:46.999Z</time></trkpt><trkpt lat="46.135406331100214" lon="13.536231563700072"><ele>176.0</ele><time>2026-04-18T16:25:49.999Z</time></trkpt><trkpt lat="46.13535881936898" lon="13.536149925518492"><ele>178.0</ele><time>2026-04-18T16:25:54.999Z</time></trkpt><trkpt lat="46.135320749915" lon="13.536075503227847"><ele>178.0</ele><time>2026-04-18T16:26:00.999Z</time></trkpt><trkpt lat="46.135241782373235" lon="13.536244360916063"><ele>176.0</ele><time>2026-04-18T16:28:13.998Z</time></trkpt><trkpt lat="46.135273016689865" lon="13.536123005476162"><ele>178.0</ele><time>2026-04-18T16:28:21.998Z</time></trkpt></trkseg></trk></gpx>